[[{"header":{"parameterUnit":"m.s-1","parameterCategory":1,"la1":30.6,"la2":28.766,"lo1":-90.7593,"lo2":-88.6598,"dy":0.0162,"dx":0.0183,"nx":116,"ny":114,"refTime":"2023-10-10T00:00:00:Z","depth":0,"parameterNumber":2,"parameterNumberName":"U-component_of_WINDS"},"data":[0.0,0.0,0.0,0.0,0.0,0.0,0.0,0.0,0.0,0.0,0.0,0.0,0.0,0.0,0.0,0.0,0.0,0.0,0.0,0.0,0.0,0.0,0.0,0.0,0.0,0.0,0.0,0.0,0.0,0.0,0.0,0.0,0.0,0.0,0.0,0.0,0.0,0.0,0.0,0.0,0.0,0.0,0.0,0.0,0.0,0.0,0.0,0.0,0.0,0.0,0.0,0.0,0.0,0.0,0.0,0.0,0.0,0.0,0.0,0.0,0.0,0.0,0.0,0.0,0.0,0.0,0.0,0.0,0.0,0.0,0.0,0.0,0.0,0.0,0.0,0.0,0.0,0.0,0.0,0.0,0.0,0.0,0.0,0.0,0.0,0.0,0.0,0.0,0.0,0.0,0.0,0.0,0.0,0.0,0.0,0.0,0.0,0.0,0.0,0.0,0.0,0.0,0.0,0.0,0.0,0.0,0.0,0.0,0.0,0.0,0.0,0.0,0.0,0.0,0.0,0.0,0.0,0.0,0.0,0.0,0.0,0.0,0.0,0.0,0.0,0.0,0.0,0.0,0.0,0.0,0.0,0.0,0.0,0.0,0.0,0.0,0.0,0.0,0.0,0.0,0.0,0.0,0.0,0.0,0.0,0.0,0.0,0.0,0.0,0.0,0.0,0.0,0.0,0.0,0.0,0.0,0.0,0.0,0.0,0.0,0.0,0.0,0.0,0.0,0.0,0.0,0.0,0.0,0.0,0.0,0.0,0.0,0.0,0.0,0.0,0.0,0.0,0.0,0.0,0.0,0.0,0.0,0.0,0.0,0.0,0.0,0.0,0.0,0.0,0.0,0.0,0.0,0.0,0.0,0.0,0.0,0.0,0.0,0.0,0.0,0.0,0.0,0.0,0.0,0.0,0.0,0.0,0.0,0.0,0.0,0.0,0.0,0.0,0.0,0.0,0.0,0.0,0.0,0.0,0.0,0.0,0.0,0.0,0.0,0.0,0.0,0.0,0.0,0.0,0.0,0.0,0.0,0.0,0.0,0.0,0.0,0.0,0.0,0.0,0.0,0.0,0.0,0.0,0.0,0.0,0.0,0.0,0.0,0.0,0.0,0.0,0.0,0.0,0.0,0.0,0.0,0.0,0.0,0.0,0.0,0.0,0.0,0.0,0.0,0.0,0.0,0.0,0.0,0.0,0.0,0.0,0.0,0.0,0.0,0.0,0.0,0.0,0.0,0.0,0.0,0.0,0.0,0.0,0.0,0.0,0.0,0.0,0.0,0.0,0.0,0.0,0.0,0.0,0.0,0.0,0.0,0.0,0.0,0.0,0.0,0.0,0.0,0.0,0.0,0.0,0.0,0.0,0.0,0.0,0.0,0.0,0.0,0.0,0.0,0.0,0.0,0.0,0.0,0.0,0.0,0.0,0.0,0.0,0.0,0.0,0.0,0.0,0.0,0.0,0.0,0.0,0.0,0.0,0.0,0.0,0.0,0.0,0.0,0.0,0.0,0.0,0.0,0.0,0.0,0.0,0.0,0.0,0.0,0.0,0.0,0.0,0.0,0.0,0.0,0.0,0.0,0.0,0.0,0.0,0.0,0.0,0.0,0.0,0.0,0.0,0.0,0.0,0.0,0.0,0.0,0.0,0.0,0.0,0.0,0.0,0.0,0.0,0.0,0.0,0.0,0.0,0.0,0.0,0.0,0.0,0.0,0.0,0.0,0.0,0.0,0.0,0.0,0.0,0.0,0.0,0.0,0.0,0.0,0.0,0.0,0.0,0.0,0.0,0.0,0.0,0.0,0.0,0.0,0.0,0.0,0.0,0.0,0.0,0.0,0.0,0.0,0.0,0.0,0.0,0.0,0.0,0.0,0.0,0.0,0.0,0.0,0.0,0.0,0.0,0.0,0.0,0.0,0.0,0.0,0.0,0.0,0.0,0.0,0.0,0.0,0.0,0.0,0.0,0.0,0.0,0.0,0.0,0.0,0.0,0.0,0.0,0.0,0.0,0.0,0.0,0.0,0.0,0.0,0.0,0.0,0.0,0.0,0.0,0.0,0.0,0.0,0.0,0.0,0.0,0.0,0.0,0.0,0.0,0.0,0.0,0.0,0.0,0.0,0.0,0.0,0.0,0.0,0.0,0.0,0.0,0.0,0.0,0.0,0.0,0.0,0.0,0.0,0.0,0.0,0.0,0.0,0.0,0.0,0.0,0.0,0.0,0.0,0.0,0.0,0.0,0.0,0.0,0.0,0.0,0.0,0.0,0.0,0.0,0.0,0.0,0.0,0.0,0.0,0.0,0.0,0.0,0.0,0.0,0.0,0.0,0.0,0.0,0.0,0.0,0.0,0.0,0.0,0.0,0.0,0.0,0.0,0.0,0.0,0.0,0.0,0.0,0.0,0.0,0.0,0.0,0.0,0.0,0.0,0.0,0.0,0.0,0.0,0.0,0.0,0.0,0.0,0.0,0.0,0.0,0.0,0.0,0.0,0.0,0.0,0.0,0.0,0.0,0.0,0.0,0.0,0.0,0.0,0.0,0.0,0.0,0.0,0.0,0.0,0.0,0.0,0.0,0.0,0.0,0.0,0.0,0.0,0.0,0.0,0.0,0.0,0.0,0.0,0.0,0.0,0.0,0.0,0.0,0.0,0.0,0.0,0.0,0.0,0.0,0.0,0.0,0.0,0.0,0.0,0.0,0.0,0.0,0.0,0.0,0.0,0.0,0.0,0.0,0.0,0.0,0.0,0.0,0.0,0.0,0.0,0.0,0.0,0.0,0.0,0.0,0.0,0.0,0.0,0.0,0.0,0.0,0.0,0.0,0.0,0.0,0.0,0.0,0.0,0.0,0.0,0.0,0.0,0.0,0.0,0.0,0.0,0.0,0.0,0.0,0.0,0.0,0.0,0.0,0.0,0.0,0.0,0.0,0.0,0.0,0.0,0.0,0.0,0.0,0.0,0.0,0.0,0.0,0.0,0.0,0.0,0.0,0.0,0.0,0.0,0.0,0.0,0.0,0.0,0.0,0.0,0.0,0.0,0.0,0.0,0.0,0.0,0.0,0.0,0.0,0.0,0.0,0.0,0.0,0.0,0.0,0.0,0.0,0.0,0.0,0.0,0.0,0.0,0.0,0.0,0.0,0.0,0.0,0.0,0.0,0.0,0.0,0.0,0.0,0.0,0.0,0.0,0.0,0.0,0.0,0.0,0.0,0.0,0.0,0.0,0.0,0.0,0.0,0.0,0.0,0.0,0.0,0.0,0.0,0.0,0.0,0.0,0.0,0.0,0.0,0.0,0.0,0.0,0.0,0.0,0.0,0.0,0.0,0.0,0.0,0.0,0.0,0.0,0.0,0.0,0.0,0.0,0.0,0.0,0.0,0.0,0.0,0.0,0.0,0.0,0.0,0.0,0.0,0.0,0.0,0.0,0.0,0.0,0.0,0.0,0.0,0.0,0.0,0.0,0.0,0.0,0.0,0.0,0.0,0.0,0.0,0.0,0.0,0.0,0.0,0.0,0.0,0.0,0.0,0.0,0.0,0.0,0.0,0.0,0.0,0.0,0.0,0.0,0.0,0.0,0.0,0.0,0.0,0.0,0.0,0.0,0.0,0.0,0.0,0.0,0.0,0.0,0.0,0.0,0.0,0.0,0.0,0.0,0.0,0.0,0.0,0.0,0.0,0.0,0.0,0.0,0.0,0.0,0.0,0.0,0.0,0.0,0.0,0.0,0.0,0.0,0.0,0.0,0.0,0.0,0.0,0.0,0.0,0.0,0.0,0.0,0.0,0.0,0.0,0.0,0.0,0.0,0.0,0.0,0.0,0.0,0.0,0.0,0.0,0.0,0.0,0.0,0.0,0.0,0.0,0.0,0.0,0.0,0.0,0.0,0.0,0.0,0.0,0.0,0.0,0.0,0.0,0.0,0.0,0.0,0.0,0.0,0.0,0.0,0.0,0.0,0.0,0.0,0.0,0.0,0.0,0.0,0.0,0.0,0.0,0.0,0.0,0.0,0.0,0.0,0.0,0.0,0.0,0.0,0.0,0.0,0.0,0.0,0.0,0.0,0.0,0.0,0.0,0.0,0.0,0.0,0.0,0.0,0.0,0.0,0.0,0.0,0.0,0.0,0.0,0.0,0.0,0.0,0.0,0.0,0.0,0.0,0.0,0.0,0.0,0.0,0.0,0.0,0.0,0.0,0.0,0.0,0.0,0.0,0.0,0.0,0.0,0.0,0.0,0.0,0.0,0.0,0.0,0.0,0.0,0.0,0.0,0.0,0.0,0.0,0.0,0.0,0.0,0.0,0.0,0.0,0.0,0.0,0.0,0.0,0.0,0.0,0.0,0.0,0.0,0.0,0.0,0.0,0.0,0.0,0.0,0.0,0.0,0.0,0.0,0.0,0.0,0.0,0.0,0.0,0.0,0.0,0.0,0.0,0.0,0.0,0.0,0.0,0.0,0.0,0.0,0.0,0.0,0.0,0.0,0.0,0.0,0.0,0.0,0.0,0.0,0.0,0.0,0.0,0.0,0.0,0.0,0.0,0.0,0.0,0.0,0.0,0.0,0.0,0.0,0.0,0.0,0.0,0.0,0.0,0.0,0.0,0.0,0.0,0.0,0.0,0.0,0.0,0.0,0.0,0.0,0.0,0.0,0.0,0.0,0.0,0.0,0.0,0.0,0.0,0.0,0.0,0.0,0.0,0.0,0.0,0.0,0.0,0.0,0.0,0.0,0.0,0.0,0.0,0.0,0.0,0.0,0.0,0.0,0.0,0.0,0.0,0.0,0.0,0.0,0.0,0.0,0.0,0.0,0.0,0.0,0.0,0.0,0.0,0.0,0.0,0.0,0.0,0.0,0.0,0.0,0.0,0.0,0.0,0.0,0.0,0.0,0.0,0.0,0.0,0.0,0.0,0.0,0.0,0.0,0.0,0.0,0.0,0.0,0.0,0.0,0.0,0.0,0.0,0.0,0.0,0.0,0.0,0.0,0.0,0.0,0.0,0.0,0.0,0.0,0.0,0.0,0.0,0.0,0.0,0.0,0.0,0.0,0.0,0.0,0.0,0.0,0.0,0.0,0.0,0.0,0.0,0.0,0.0,0.0,0.0,0.0,0.0,0.0,0.0,0.0,0.0,0.0,0.0,0.0,0.0,0.0,0.0,0.0,0.0,0.0,0.0,0.0,0.0,0.0,0.0,0.0,0.0,0.0,0.0,0.0,0.0,0.0,0.0,0.0,0.0,0.0,0.0,0.0,0.0,0.0,0.0,0.0,0.0,0.0,0.0,0.0,0.0,0.0,0.0,0.0,0.0,0.0,0.0,0.0,0.0,0.0,0.0,0.0,0.0,0.0,0.0,0.0,0.0,0.0,0.0,0.0,0.0,0.0,0.0,0.0,0.0,0.0,0.0,0.0,0.0,0.0,0.0,0.0,0.0,0.0,0.0,0.0,0.0,0.0,0.0,0.0,0.0,0.0,0.0,0.0,0.0,0.0,0.0,0.0,0.0,0.0,0.0,0.0,0.0,0.0,0.0,0.0,0.0,0.0,0.0,0.0,0.0,0.0,0.0,0.0,0.0,0.0,0.0,0.0,0.0,0.0,0.0,0.0,0.0,0.0,0.0,0.0,0.0,0.0,0.0,0.0,0.0,0.0,0.0,0.0,0.0,0.0,0.0,0.0,0.0,0.0,0.0,0.0,0.0,0.0,0.0,0.0,0.0,0.0,0.0,0.0,0.0,0.0,0.0,0.0,0.0,0.0,0.0,0.0,0.0,0.0,0.0,0.0,0.0,0.0,0.0,0.0,0.0,0.0,0.0,0.0,0.0,0.0,0.0,0.0,0.0,0.0,0.0,0.0,0.0,0.0,0.0,0.0,0.0,0.0,0.0,0.0,0.0,0.0,0.0,0.0,0.0,0.0,0.0,0.0,0.0,0.0,0.0,0.0,0.0,0.0,0.0,0.0,0.0,0.0,0.0,0.0,0.0,0.0,0.0,0.0,0.0,0.0,0.0,0.0,0.0,0.0,0.0,0.0,0.0,0.0,0.0,0.0,0.0,0.0,0.0,0.0,0.0,0.0,0.0,0.0,0.0,0.0,0.0,0.0,0.0,4.1063,0.0,0.0,0.0,0.0,0.0,0.0,0.0,0.0,0.0,0.0,0.0,0.0,0.0,0.0,0.0,0.0,0.0,0.0,0.0,0.0,0.0,0.0,0.0,0.0,0.0,0.0,0.0,0.0,0.0,0.0,0.0,0.0,0.0,0.0,0.0,0.0,0.0,0.0,0.0,4.7309,4.7309,4.7309,4.7309,4.7309,4.7309,0.0,0.0,0.0,0.0,0.0,0.0,0.0,0.0,0.0,0.0,0.0,0.0,0.0,0.0,0.0,0.0,0.0,0.0,0.0,0.0,0.0,0.0,0.0,0.0,0.0,0.0,0.0,0.0,0.0,0.0,0.0,0.0,0.0,0.0,0.0,0.0,0.0,0.0,0.0,0.0,0.0,0.0,0.0,0.0,0.0,0.0,0.0,0.0,0.0,0.0,0.0,0.0,0.0,0.0,0.0,0.0,0.0,0.0,0.0,0.0,0.0,0.0,0.0,0.0,0.0,0.0,0.0,0.0,0.0,0.0,0.0,4.1324,0.0,0.0,0.0,0.0,0.0,0.0,0.0,0.0,0.0,0.0,0.0,0.0,0.0,0.0,0.0,0.0,0.0,0.0,0.0,0.0,0.0,0.0,0.0,4.7309,4.7309,4.7309,4.7309,4.7309,0.0,0.0,0.0,0.0,0.0,0.0,0.0,4.7309,4.7309,4.7309,4.7309,4.7309,4.7309,4.7309,4.7309,4.7309,4.7309,0.0,0.0,0.0,0.0,0.0,0.0,0.0,0.0,0.0,0.0,0.0,0.0,0.0,0.0,0.0,0.0,0.0,0.0,0.0,0.0,0.0,0.0,0.0,0.0,0.0,0.0,0.0,0.0,0.0,0.0,0.0,0.0,0.0,0.0,0.0,0.0,0.0,0.0,0.0,0.0,0.0,0.0,0.0,0.0,0.0,0.0,0.0,0.0,0.0,0.0,0.0,0.0,0.0,0.0,0.0,0.0,0.0,0.0,0.0,0.0,0.0,0.0,0.0,4.1324,4.1324,4.1324,4.1097,4.1097,4.1097,4.0896,4.0997,4.1097,4.0896,0.0,0.0,0.0,0.0,0.0,0.0,0.0,0.0,0.0,0.0,0.0,0.0,0.0,0.0,0.0,0.0,0.0,0.0,0.0,0.0,0.0,4.7309,4.7309,4.7309,4.7309,4.7309,4.7309,0.0,0.0,0.0,0.0,0.0,4.7309,4.7309,4.7309,4.7309,4.7309,4.7309,4.7309,4.7309,4.7309,4.7309,4.7309,4.7309,4.7309,0.0,0.0,0.0,0.0,0.0,0.0,0.0,0.0,0.0,0.0,0.0,0.0,0.0,0.0,0.0,0.0,0.0,0.0,0.0,0.0,0.0,0.0,0.0,0.0,0.0,0.0,0.0,0.0,0.0,0.0,0.0,0.0,0.0,0.0,0.0,0.0,0.0,0.0,0.0,0.0,0.0,4.1319,4.1298,0.0,0.0,0.0,0.0,0.0,0.0,0.0,0.0,0.0,0.0,0.0,0.0,0.0,4.1324,4.1324,4.1324,4.1324,4.1324,4.1324,4.1324,4.1324,4.0593,4.0287,4.0185,3.9415,0.0,4.0185,3.944,0.0,0.0,0.0,0.0,0.0,0.0,0.0,0.0,0.0,0.0,0.0,0.0,0.0,0.0,0.0,0.0,0.0,0.0,0.0,0.0,0.0,4.7309,4.7309,4.7309,4.7309,4.7309,4.7309,4.7309,0.0,0.0,0.0,4.7309,4.7309,4.7309,4.7309,4.7309,4.7309,4.7309,4.7309,4.7309,4.7309,4.7309,4.7309,4.7309,4.7309,4.7309,0.0,0.0,0.0,0.0,0.0,0.0,0.0,0.0,0.0,0.0,0.0,0.0,0.0,0.0,0.0,0.0,0.0,0.0,0.0,0.0,0.0,0.0,0.0,0.0,0.0,0.0,0.0,0.0,0.0,0.0,0.0,0.0,0.0,0.0,0.0,0.0,0.0,0.0,0.0,4.1324,4.1428,4.1768,4.1794,4.1794,0.0,0.0,0.0,0.0,0.0,0.0,0.0,0.0,0.0,4.1324,4.1638,4.1794,4.1794,4.2108,4.2265,4.2265,4.175,4.1543,4.1543,4.0576,4.0259,4.0152,3.9272,3.9188,3.9462,3.9037,3.9198,3.981,0.0,0.0,0.0,0.0,4.0259,4.0152,0.0,0.0,0.0,0.0,0.0,0.0,0.0,0.0,0.0,0.0,0.0,0.0,4.7309,4.7309,4.7309,4.7309,4.7309,4.7309,4.7309,4.7309,4.7309,0.0,4.7309,4.7309,4.7309,4.7309,4.7309,4.7309,4.7309,4.7309,4.7309,4.7309,4.7309,4.7309,4.7309,4.7309,4.7309,4.7309,4.7309,4.7309,0.0,0.0,0.0,0.0,0.0,0.0,0.0,0.0,0.0,0.0,0.0,0.0,0.0,0.0,0.0,0.0,0.0,0.0,0.0,0.0,0.0,0.0,0.0,0.0,0.0,0.0,0.0,0.0,0.0,0.0,0.0,0.0,0.0,0.0,0.0,0.0,0.0,4.1664,4.1899,4.2343,4.2239,4.216,0.0,0.0,0.0,0.0,0.0,0.0,4.1533,4.1533,4.1611,4.1742,4.216,4.2293,4.2061,4.2476,4.2604,4.2263,4.1625,4.1304,4.1304,4.0414,3.9977,3.9977,3.9118,3.8783,3.8736,3.8587,3.8922,3.9418,3.9501,3.9854,4.0305,4.0087,3.9977,3.9867,0.0,0.0,0.0,0.0,0.0,0.0,0.0,0.0,0.0,0.0,0.0,4.7309,4.7309,4.7309,4.7309,4.7309,4.7309,4.7309,4.7309,4.7309,4.7309,4.7309,4.7309,4.7309,4.7309,4.7309,4.7309,4.7309,4.7309,4.7309,4.7309,4.7309,4.7309,4.7309,4.7309,4.7309,4.7309,4.7309,4.7309,4.7309,4.7309,0.0,0.0,0.0,0.0,0.0,0.0,0.0,0.0,0.0,0.0,0.0,0.0,0.0,0.0,0.0,0.0,0.0,0.0,0.0,0.0,0.0,0.0,0.0,0.0,0.0,0.0,0.0,0.0,0.0,0.0,0.0,0.0,0.0,0.0,0.0,0.0,0.0,0.0,4.2971,4.25,0.0,0.0,0.0,0.0,4.0997,4.1198,4.1559,4.2082,4.2108,4.2369,4.2918,4.2971,4.2553,4.1707,4.1732,4.1304,4.0414,4.0414,4.0414,4.0305,3.9561,3.9118,3.9118,3.8222,3.7906,3.7883,3.7837,3.84,3.9094,3.9094,3.9647,4.0196,3.945,3.9118,3.9006,0.0,0.0,0.0,0.0,0.0,0.0,0.0,0.0,4.7309,4.7309,4.7309,4.7309,4.7309,4.7309,4.7309,4.7309,4.7309,4.7309,4.7309,4.7309,4.7309,4.7309,4.7309,4.7309,4.7309,4.7309,4.7309,4.7309,4.7309,4.7309,4.7309,4.7309,4.7309,4.7309,4.7309,4.7309,4.7309,4.7309,4.7309,4.7309,4.7309,4.7309,0.0,0.0,0.0,0.0,0.0,0.0,0.0,0.0,0.0,0.0,0.0,0.0,0.0,0.0,0.0,0.0,0.0,0.0,0.0,0.0,0.0,0.0,0.0,0.0,0.0,0.0,0.0,0.0,0.0,0.0,0.0,0.0,0.0,0.0,0.0,0.0,0.0,4.352,4.3389,0.0,4.3179,4.3075,4.2814,4.2319,4.2293,4.25,4.2709,4.2709,4.2814,4.3023,4.3389,4.3466,4.3148,4.2946,4.2578,4.2248,4.1135,4.0571,4.0571,3.9659,3.9221,3.9221,3.8873,3.8757,3.8757,3.8757,3.8805,3.8756,3.8756,3.9171,3.9659,3.9337,3.9221,3.9221,0.0,0.0,0.0,0.0,0.0,0.0,0.0,0.0,4.7309,4.7309,4.7309,4.7309,4.7309,4.7309,4.7309,4.7309,4.7309,4.7309,4.7309,4.7309,4.7309,4.7309,4.7309,4.7309,4.7309,4.7309,4.7309,4.7309,4.7309,4.7309,4.7309,4.7309,4.7309,4.7309,4.7309,4.7309,4.7309,4.7309,4.7309,4.7309,4.7309,4.7309,4.7309,0.0,0.0,0.0,0.0,0.0,0.0,0.0,0.0,0.0,0.0,0.0,0.0,0.0,0.0,0.0,0.0,0.0,0.0,0.0,0.0,0.0,0.0,0.0,0.0,0.0,0.0,0.0,0.0,0.0,0.0,0.0,0.0,0.0,0.0,0.0,4.3729,4.4121,4.399,4.3859,4.3859,4.3702,4.3415,4.3049,4.3023,4.3101,4.3284,4.331,4.3284,4.3148,4.3536,4.3393,4.2823,4.2649,4.2375,4.2037,4.0779,4.0223,4.0223,3.9521,3.9308,3.9308,3.9308,3.9308,3.9308,3.9308,3.9124,3.8826,3.8826,3.9033,3.9308,3.9308,3.9308,3.9308,0.0,0.0,0.0,0.0,0.0,0.0,0.0,4.7309,4.7309,4.7309,4.7309,4.7309,4.7309,4.7309,4.7309,4.7309,4.7309,4.7309,4.7309,4.7309,4.7309,4.7309,4.7309,4.7309,4.7309,4.7309,4.7309,4.7309,4.7309,4.7309,4.7309,4.7309,4.7309,4.7309,4.7309,4.7309,4.7309,4.7309,4.7309,4.7309,4.7309,4.7309,4.7309,0.0,0.0,0.0,0.0,0.0,0.0,0.0,0.0,0.0,0.0,0.0,0.0,0.0,0.0,0.0,0.0,0.0,0.0,0.0,0.0,0.0,0.0,0.0,0.0,0.0,0.0,0.0,0.0,0.0,0.0,0.0,0.0,0.0,4.3964,4.4382,4.4722,4.4722,4.4225,4.3885,4.3885,4.3389,4.3075,4.3075,4.3075,4.331,4.3859,4.3885,4.3717,4.3381,4.3381,4.2488,4.0803,4.0687,4.0223,3.9308,3.9308,3.9308,3.9308,3.9308,3.9308,3.9308,3.9308,3.9308,3.9308,3.9308,3.9308,3.9308,3.9308,3.9308,3.9308,3.9308,3.9308,3.9308,0.0,0.0,0.0,0.0,0.0,0.0,0.0,4.7309,4.7309,4.7309,4.7309,4.7309,4.7309,4.7309,4.7309,4.7309,4.7309,4.7309,4.7309,4.7309,4.7309,4.7309,4.7309,4.7309,4.7309,4.7309,4.7309,4.7309,4.7309,4.7309,4.7309,4.7309,4.7309,4.7309,4.7309,4.7396,4.7538,4.7396,4.7396,4.7452,4.7396,4.7309,4.7309,0.0,0.0,0.0,0.0,0.0,0.0,0.0,0.0,0.0,0.0,0.0,0.0,0.0,0.0,0.0,0.0,0.0,0.0,0.0,0.0,0.0,0.0,0.0,0.0,0.0,0.0,0.0,0.0,0.0,0.0,0.0,0.0,4.467,4.4513,4.4617,4.4722,4.4722,4.4591,4.4487,4.4487,4.4356,4.4251,4.4251,4.4251,4.433,4.4487,4.4487,4.4131,4.3381,4.3381,4.2824,4.1672,4.1009,4.0571,4.0339,3.9638,3.9308,3.9308,3.9308,3.9308,3.9308,3.9308,3.9308,3.9308,3.9308,3.9308,3.9308,3.9308,3.9308,3.9308,3.9308,3.9308,3.9308,0.0,0.0,0.0,0.0,0.0,0.0,0.0,4.7309,4.7309,4.7309,4.7309,4.7309,4.7309,4.7309,4.7309,4.7309,4.7309,4.7309,4.7309,4.7309,4.7309,4.7309,4.7309,4.7309,4.7309,4.7309,4.7309,4.7309,4.7309,4.7309,4.7309,4.7309,4.7106,4.6638,4.6638,4.6521,4.6255,4.6077,4.6255,4.6521,4.6166,4.6284,4.6638,4.6814,4.6432,4.6135,4.6308,4.6628,4.7036,4.6907,0.0,0.0,0.0,0.0,0.0,0.0,0.0,0.0,0.0,0.0,0.0,0.0,0.0,0.0,0.0,0.0,0.0,0.0,0.0,0.0,0.0,0.0,0.0,0.0,4.4722,4.4722,4.4722,4.4722,4.4722,4.4722,4.4722,4.4722,4.4722,4.4722,4.4722,4.4722,4.4722,4.4722,4.4722,4.4396,4.3713,4.2824,4.2488,4.181,4.0894,4.0339,4.0106,4.0106,3.9544,3.9308,3.9308,3.9308,3.9308,3.9308,3.9308,3.9308,3.9308,3.9308,3.9308,0.0,0.0,0.0,0.0,0.0,3.9308,3.9308,0.0,0.0,0.0,0.0,0.0,0.0,0.0,4.7309,4.7309,4.7309,4.7309,4.7309,4.7309,4.7309,4.7309,4.7309,4.7309,4.7309,4.7309,4.7309,4.7309,4.7309,4.7309,4.7309,4.7309,4.7309,4.7309,4.7309,4.7309,4.7222,4.7106,4.7106,4.6638,4.5598,4.5598,4.5144,4.4312,4.4312,4.4591,4.4961,4.4499,4.4869,4.5689,4.584,4.5264,4.4481,4.5043,4.5324,4.5509,4.6504,0.0,0.0,0.0,0.0,0.0,0.0,0.0,0.0,0.0,0.0,0.0,0.0,0.0,0.0,0.0,0.0,0.0,0.0,0.0,0.0,0.0,0.0,0.0,0.0,4.4722,4.4722,4.4722,4.4722,4.4722,4.4722,4.4722,4.4722,4.4722,4.4722,4.4722,4.4722,4.4722,4.4722,4.4722,0.0,0.0,0.0,0.0,4.0223,3.9308,3.9308,3.9308,3.9308,3.9308,3.9308,3.9308,3.9308,3.9308,3.9308,3.9308,3.9308,3.9308,3.9308,3.9308,3.9308,3.9308,3.9308,3.9308,3.9308,3.9308,3.9308,0.0,0.0,0.0,0.0,0.0,0.0,0.0,4.7309,4.7309,4.7309,4.7309,4.7309,4.7309,4.7309,4.7309,4.7309,4.7309,4.7309,4.7309,4.7309,4.7309,4.7309,4.7309,4.7309,4.7309,4.7309,4.7309,4.7309,4.7309,4.6931,4.6077,4.6077,4.5508,4.4591,4.4591,4.4563,4.4563,4.4406,4.447,4.4656,4.4563,4.484,4.5144,4.4776,4.4809,4.5071,4.5183,4.5858,4.656,4.5907,4.6113,4.6419,4.5608,4.5342,0.0,0.0,0.0,0.0,0.0,0.0,0.0,0.0,0.0,0.0,0.0,0.0,0.0,0.0,0.0,0.0,0.0,0.0,0.0,4.4722,4.4722,4.4722,4.4722,4.4722,4.4722,4.4722,4.4722,4.4722,4.4722,4.4722,4.4722,4.4722,4.4722,4.4722,4.4722,4.3848,4.2936,4.2012,4.1124,4.0223,3.9308,3.9308,3.9308,3.9308,0.0,0.0,3.9308,3.9308,3.9308,3.9308,3.9308,3.9308,3.9308,3.9308,3.9308,3.9308,3.9308,3.9308,3.9308,3.9308,3.9308,3.9308,0.0,0.0,0.0,0.0,0.0,0.0,0.0,4.7309,4.7309,4.7309,4.7309,4.7309,4.7309,4.7309,4.7309,4.7309,4.7309,4.7309,4.7309,4.7309,4.7309,4.7309,4.7309,4.7309,4.7309,4.7309,4.7309,4.7309,4.6814,4.6255,4.5779,4.5326,4.4499,4.3559,4.3559,4.3368,4.2985,4.2792,4.2985,4.3368,4.3081,4.3369,4.4028,4.4097,4.4001,4.3769,4.4366,4.4963,4.5403,4.5128,4.5315,4.5449,4.483,4.4722,4.4722,0.0,0.0,0.0,0.0,0.0,0.0,0.0,0.0,0.0,0.0,0.0,0.0,0.0,0.0,4.4722,0.0,0.0,4.4722,4.4722,4.4722,4.4722,4.4722,4.4722,4.4722,4.4722,4.4722,4.4722,4.4722,4.4722,4.4722,4.4722,4.4722,4.4722,4.4722,4.3848,4.2936,4.2012,4.1124,4.0223,3.9308,3.9308,3.9308,3.9308,3.9308,3.9308,3.9308,3.9308,3.9308,3.9308,3.9308,3.9308,3.9308,3.9308,3.9308,3.9308,3.9308,3.9308,3.9308,3.9308,3.9308,3.9308,0.0,0.0,0.0,0.0,0.0,0.0,0.0,4.7309,4.7309,4.7309,4.7309,4.7309,4.7309,4.7309,4.7309,4.7309,4.7309,4.7309,4.7309,4.7309,4.7309,4.7309,4.7309,4.7309,4.7309,4.7309,4.7309,4.7309,4.6462,4.5869,4.5508,4.4684,4.3654,4.2501,4.2501,4.2065,4.1324,4.1324,4.1498,4.1895,4.1629,4.1944,4.287,4.366,4.3365,4.2605,4.3546,4.3938,4.4121,4.4565,4.4722,4.4722,4.4722,4.4722,4.4722,4.4722,4.4722,0.0,0.0,0.0,0.0,0.0,0.0,0.0,0.0,0.0,4.4722,4.4722,4.4722,4.4722,4.4722,4.4722,4.4722,4.4722,4.4722,4.4722,4.4722,4.4722,4.4722,4.4722,4.4722,4.4722,4.4722,4.4722,4.4722,4.4722,4.4722,4.4722,4.4722,4.3713,4.2824,4.2012,4.1009,4.0106,3.9308,3.94,3.9446,3.9446,3.9561,3.9607,3.9607,3.9607,3.9607,3.9607,3.9607,3.9607,3.9607,3.9607,3.9607,3.9584,3.9492,3.9446,3.9446,3.9331,3.9308,3.9308,0.0,0.0,0.0,0.0,0.0,0.0,0.0,0.0,4.7309,4.7309,4.7309,4.7309,4.7309,4.7309,4.7309,4.7309,4.7309,4.7309,4.7309,4.7309,4.7309,4.7309,4.7309,4.7309,4.7309,4.7309,4.7309,4.7309,4.7222,4.6166,4.4499,4.4312,4.3273,4.1498,4.1498,4.1398,4.1324,4.1324,4.1324,4.145,4.1873,4.221,4.2367,4.3494,4.3782,4.3702,4.3833,4.4199,4.4643,4.4696,4.4722,4.4722,4.4722,4.4722,4.4722,4.4722,4.4722,4.4722,4.4722,4.4722,4.4722,4.4722,4.4722,4.4722,0.0,0.0,4.4722,4.4722,4.4722,4.4722,4.4722,4.4722,4.4722,4.4722,4.4722,4.4722,4.4722,4.4722,4.4722,4.4722,4.4722,4.4722,4.4722,4.4722,4.4722,4.4722,4.4722,4.4722,4.4722,4.3022,4.2125,4.2012,4.0316,3.9426,3.9308,3.9744,3.9974,3.9974,4.0433,4.0663,4.0663,4.0663,4.0663,4.0663,4.0663,4.0663,4.0663,4.0663,4.0663,4.0617,4.0158,3.9974,3.9928,3.9469,3.9308,3.9308,0.0,0.0,0.0,0.0,0.0,0.0,0.0,0.0,0.0,4.7309,4.7309,4.7309,4.7309,4.7309,4.7309,4.7309,4.7309,4.7309,4.7309,4.7309,4.7309,4.7309,4.7309,4.7309,4.7309,4.7309,4.7309,4.7309,4.6726,4.5718,4.4312,4.3748,4.2722,4.1324,4.1324,4.1324,4.1324,4.1324,4.1507,4.1847,4.2082,4.2552,4.3206,4.3702,4.4068,4.4382,4.4382,4.4513,0.0,4.4722,4.4722,4.4722,4.4722,4.4722,4.4722,4.4722,4.4722,4.4722,4.4722,4.4722,4.4722,4.4722,4.4722,4.4722,4.4722,4.4722,4.4722,4.4722,4.4722,4.4722,4.4722,4.4722,4.4722,0.0,4.4722,4.4722,4.4722,4.4722,4.4722,4.4722,4.4722,4.4722,4.4722,4.4722,4.4722,4.4722,4.4722,4.4505,4.3958,4.327,4.2499,4.1673,4.0881,4.0455,4.0181,4.0387,4.0502,4.0502,4.0709,4.0823,4.0823,4.0823,4.0823,4.08,4.0502,4.0364,4.0364,4.0066,3.9951,3.9928,3.9698,3.9607,3.9584,3.9377,3.9308,3.919,0.0,0.0,0.0,0.0,0.0,0.0,0.0,0.0,0.0,0.0,4.7309,4.7309,4.7309,4.7309,4.7309,4.7309,4.7309,4.7309,4.7309,4.7309,4.7309,4.7309,4.7309,4.7309,4.7309,4.7309,4.7309,4.7309,4.655,4.5689,4.4684,4.3654,4.2722,4.167,4.1398,4.1324,4.1324,4.1481,4.1794,4.2186,4.25,4.3127,4.3885,4.4042,4.4356,4.4722,4.4722,4.4722,4.4722,4.4722,4.4722,4.4722,4.4722,4.4722,4.4722,4.4722,4.4722,4.4722,4.4722,4.4722,4.4722,4.4722,4.4722,4.4722,4.4722,4.4722,4.4722,4.4722,4.4722,4.4722,4.4722,4.4722,4.4722,4.4722,4.4722,4.4722,4.4722,4.4722,4.4722,4.4722,4.4722,4.4722,4.4722,4.4722,4.4722,4.4722,4.4722,4.4287,4.3517,4.331,4.2658,4.14,4.133,4.1135,4.0823,4.0961,4.103,4.103,4.1168,4.1237,4.1237,4.1237,4.1237,4.1214,4.0846,4.0686,4.0663,4.0295,4.0135,4.0135,3.9974,3.9928,3.9905,3.9607,3.9423,3.9167,0.0,0.0,0.0,0.0,0.0,0.0,0.0,0.0,0.0,0.0,0.0,0.0,0.0,4.7309,4.7309,4.7309,4.7309,4.7309,4.7309,4.7309,4.7309,4.7309,4.7309,4.7309,4.7309,4.7309,4.7309,4.7309,4.7309,4.6726,4.5689,4.4776,4.3748,4.2695,4.1796,4.1324,4.135,4.1899,4.2134,4.2265,4.3363,4.3833,4.3938,4.4487,4.4722,4.4722,4.4722,4.4722,4.4722,4.4722,4.4722,4.4722,4.4722,4.4722,4.4722,4.4722,4.4722,4.4722,4.4722,4.4722,4.4722,4.4722,4.4722,4.4722,4.4722,4.4722,4.4722,4.4722,4.4722,4.4722,4.4722,4.4722,4.4722,4.4722,4.4722,4.4722,4.4722,4.4722,4.4722,4.4722,4.4722,4.4722,0.0,4.4722,4.4722,4.4722,4.4722,4.4287,4.3517,4.2985,4.2336,4.1424,4.0987,4.08,4.0823,4.1306,4.1558,4.1558,4.2063,4.2293,4.2293,4.2293,4.2293,4.2293,4.227,4.227,4.227,4.2247,4.2247,4.2201,4.1696,4.1512,4.1374,4.0387,3.9721,3.9308,0.0,0.0,0.0,0.0,0.0,0.0,0.0,0.0,0.0,0.0,0.0,0.0,0.0,0.0,0.0,0.0,4.7309,4.7309,4.7309,4.7309,4.7309,4.7309,4.7309,4.7309,4.7309,4.7309,4.7309,4.7309,4.7309,4.6814,4.5779,4.4776,4.3748,4.2792,4.2192,4.1873,4.1925,4.25,4.2944,4.3337,4.3729,4.4095,4.446,4.4643,4.4722,4.4722,0.0,4.4722,4.4722,4.4722,4.4722,4.4722,4.4722,4.4722,4.4722,4.4722,4.4722,4.4722,4.4722,4.4722,4.4722,4.4722,4.4722,4.4722,4.4722,4.4722,4.4722,4.4722,4.4722,4.4722,4.4722,4.4722,4.4722,4.4722,4.4722,4.4722,4.4722,4.4722,4.4722,4.4722,4.4722,0.0,0.0,0.0,0.0,4.4722,4.5088,4.4635,4.3123,4.3185,4.2829,4.1521,4.1337,4.1489,4.1834,4.1994,4.2086,4.2086,4.2247,4.2339,4.2339,4.2339,4.2339,4.2316,4.1971,4.1834,4.1811,4.1466,4.1329,4.1306,4.1145,4.1076,4.103,4.0686,4.0456,4.0083,0.0,0.0,0.0,0.0,0.0,0.0,0.0,0.0,0.0,0.0,0.0,0.0,0.0,0.0,0.0,0.0,0.0,4.7309,4.7309,4.7309,4.7309,4.7309,4.7309,4.7309,4.7309,4.7309,4.7309,4.7309,4.7309,4.6931,4.6344,4.5326,4.4612,4.4177,4.3157,4.2849,4.3088,4.3284,4.3546,4.3885,4.4095,4.4408,4.4722,4.4722,4.4722,0.0,4.4722,4.4722,4.4722,4.4722,4.4722,4.4722,4.4722,4.4722,4.4722,4.4722,4.4722,4.4722,4.4722,4.4722,4.4722,4.4722,4.4722,4.4722,4.4722,4.4722,4.4722,4.4722,4.4722,4.4722,4.4722,4.4722,4.4722,4.4722,4.4722,4.4722,4.4722,4.4722,4.4722,4.4722,4.4722,4.4722,0.0,0.0,0.0,4.4461,4.4575,4.3979,4.2652,4.3044,4.2782,4.1683,4.1742,4.1994,4.2339,4.2339,4.2339,4.2339,4.2339,4.2431,4.2614,4.2614,4.2706,4.2844,4.2522,4.2385,4.2339,4.2017,4.188,4.188,4.1696,4.1627,4.1581,4.1214,4.1099,4.0838,0.0,0.0,0.0,0.0,0.0,0.0,0.0,0.0,0.0,0.0,0.0,0.0,0.0,0.0,0.0,0.0,0.0,0.0,4.7309,4.7309,4.7309,4.7309,4.7309,4.7309,4.7309,4.7309,4.7309,4.7309,4.7339,4.7369,4.7339,4.6343,4.6214,4.6639,4.465,4.4122,4.4536,4.4176,4.3912,4.3964,4.4513,4.4722,4.4722,4.4722,4.4722,4.4722,4.4722,4.4722,4.4722,4.4722,4.4722,4.4722,4.4722,4.4722,4.4722,4.4722,4.4722,4.4722,4.4722,4.4722,4.4722,4.4722,4.4722,4.4722,4.4722,4.4722,4.4722,4.4722,4.4722,4.4722,0.0,0.0,4.4613,4.4613,4.4613,4.4613,4.4613,4.4613,4.4613,0.0,0.0,0.0,0.0,0.0,0.0,4.4042,0.0,4.2676,4.2257,4.2634,4.255,4.1604,4.2086,4.2339,4.2339,4.2362,4.2385,4.2408,4.2408,4.266,4.3119,4.3119,4.3372,4.3808,4.3808,4.3808,4.3808,4.3808,4.3808,4.3762,4.3303,4.3119,4.3005,4.204,4.1696,4.1627,0.0,0.0,0.0,0.0,0.0,0.0,0.0,0.0,0.0,0.0,0.0,0.0,0.0,0.0,0.0,0.0,0.0,0.0,4.7309,4.7309,4.7309,4.7309,4.7309,4.7309,4.7309,4.7309,4.7309,4.7309,4.7788,4.8027,4.8057,4.7486,4.6915,4.6231,4.5431,4.4716,4.4098,4.4359,4.4513,4.4513,4.467,4.4722,4.4722,4.4722,4.4722,4.4722,4.4722,4.4722,4.4722,4.4722,4.4722,4.4722,0.0,4.4722,4.4722,0.0,0.0,4.4722,4.4722,4.4722,4.4722,4.4722,4.4722,4.4722,4.4722,4.4722,4.4722,4.4722,4.4722,4.4722,4.4722,0.0,0.0,4.3738,4.3159,0.0,4.2687,4.2687,0.0,4.3602,0.0,4.3891,4.4163,4.3526,0.0,0.0,4.3671,4.36,4.2803,4.3303,4.3114,4.2132,4.227,4.2339,4.2339,4.2706,4.3074,4.3441,4.3441,4.351,4.3625,4.3625,4.3693,4.3808,4.3808,4.3808,4.3808,4.3808,4.3808,4.3785,4.3671,4.3625,4.3602,4.3326,4.3234,4.3211,0.0,0.0,0.0,0.0,0.0,0.0,0.0,0.0,0.0,0.0,0.0,0.0,0.0,0.0,0.0,0.0,0.0,0.0,0.0,4.7309,4.7309,4.7309,4.7309,4.7309,4.7309,4.7309,4.7459,4.7728,4.8117,4.8446,4.8716,4.8531,4.8243,4.7845,4.7193,4.6404,4.5678,4.5502,4.5127,0.0,0.0,4.4722,4.4722,4.4722,4.4722,4.4722,4.4722,4.4722,4.4722,4.4722,0.0,4.4722,4.4722,4.4722,4.4722,4.4722,0.0,4.4722,4.4722,4.4722,4.4722,4.4722,4.4722,4.4722,4.4722,4.4722,4.4722,4.4722,4.4722,4.4722,4.4722,4.4287,4.3958,0.0,0.0,0.0,4.3134,4.3361,4.3762,0.0,4.4214,0.0,4.4409,4.3505,4.2832,0.0,4.3116,4.299,4.2607,4.2911,4.2822,4.2339,4.2339,4.2431,4.266,4.3165,4.3533,4.3808,4.3808,4.3923,4.4153,4.4153,4.4267,4.4497,0.0,4.4497,4.4497,4.4497,4.4497,4.4474,4.4245,4.4153,4.413,4.39,4.3808,4.3808,0.0,0.0,0.0,0.0,0.0,0.0,0.0,0.0,0.0,0.0,0.0,0.0,0.0,0.0,0.0,0.0,0.0,0.0,0.0,0.0,4.7309,4.7309,4.7309,4.7309,4.7309,4.7309,4.7578,4.8147,4.8327,4.8716,4.9254,4.9434,4.9731,5.0084,4.915,4.8477,4.7965,4.6895,4.5874,4.4938,4.4722,4.4722,4.4722,0.0,4.4722,4.4722,4.4722,4.4722,4.4722,4.4722,4.4722,4.4722,4.4722,4.4722,4.4722,4.4722,4.4722,4.4722,4.4722,4.4722,4.4722,4.4722,4.4722,4.4722,4.4722,4.4722,4.4722,4.4722,4.4722,4.4722,4.4722,4.4613,4.4505,4.4505,0.0,4.4396,4.4396,4.4915,4.5278,4.5389,4.5181,4.4965,4.4926,4.3793,4.3017,4.2843,4.2149,4.188,4.2316,4.2339,4.2362,4.2431,4.25,4.2775,4.328,4.3716,4.3946,4.4015,4.4015,4.4245,4.4704,4.4704,4.4933,4.537,4.537,4.537,4.537,4.537,4.537,4.5324,4.4887,4.4704,4.4658,4.4176,4.4015,4.4015,0.0,0.0,0.0,0.0,0.0,0.0,0.0,0.0,0.0,0.0,4.7309,4.7309,0.0,0.0,0.0,0.0,0.0,0.0,0.0,0.0,0.0,4.7309,4.7309,4.7309,4.7309,4.7309,4.7369,4.7489,4.8566,4.9164,4.9284,5.0361,5.0431,4.9659,4.9533,4.8907,4.7965,4.6895,4.6269,4.6058,4.5046,4.4722,4.4722,4.4722,0.0,0.0,4.4722,4.4722,4.4722,4.4722,4.4722,4.4722,4.4722,4.4722,4.4722,4.4722,4.4722,4.4722,4.4722,4.4722,4.4722,4.4722,4.4722,4.4722,4.4722,4.4722,0.0,4.4722,4.4722,4.4722,4.4722,4.4068,4.3628,4.3628,4.2936,4.2463,4.2463,4.296,4.3676,0.0,4.484,4.4885,4.4487,4.4252,0.0,0.0,4.2201,4.2247,4.2339,4.2339,4.2522,4.2936,4.3349,4.3808,4.4336,4.4428,4.4681,4.5094,4.5094,4.514,4.5232,4.5232,4.5278,4.537,4.537,0.0,4.537,4.537,4.537,4.5347,4.5255,4.5232,4.5209,4.5117,4.5094,4.5094,0.0,0.0,0.0,0.0,0.0,0.0,0.0,4.7309,4.7309,4.7309,4.7309,4.7309,4.7309,4.7309,4.7309,0.0,0.0,0.0,0.0,0.0,0.0,0.0,0.0,0.0,4.7309,4.7309,4.7489,4.7818,0.0,4.9434,4.9793,5.075,5.0917,5.0412,5.0412,4.9805,4.8795,4.8296,4.7791,4.7177,4.6058,4.5555,4.5555,0.0,0.0,0.0,0.0,4.4722,4.4722,4.4722,4.4722,4.4722,4.4722,4.4722,4.4722,4.4722,4.4722,4.4722,4.4722,4.4722,4.4722,4.4722,4.4722,4.4722,4.4722,0.0,0.0,4.4722,4.4722,4.4722,4.4722,4.4396,4.4068,4.4068,4.3713,4.3381,4.3381,4.4229,4.4903,4.5381,4.5758,4.5902,4.5679,4.5105,4.4378,4.3177,4.3075,4.2822,4.2339,4.2591,4.2959,4.3441,4.3946,4.4336,4.4612,4.4864,4.5117,4.537,4.537,4.537,4.537,4.537,4.537,4.537,4.537,4.537,4.537,4.537,4.537,4.537,4.537,4.537,4.537,4.537,4.537,4.537,0.0,0.0,0.0,0.0,0.0,0.0,0.0,4.7309,4.7309,4.7309,4.7189,4.71,4.71,4.7219,4.7309,0.0,0.0,0.0,0.0,0.0,0.0,0.0,0.0,0.0,0.0,0.0,0.0,4.8087,4.8865,0.0,0.0,0.0,0.0,0.0,5.1229,5.0728,4.9931,4.9737,4.9092,0.0,0.0,4.6791,0.0,0.0,0.0,0.0,0.0,4.4722,4.4722,4.4722,4.4722,4.4722,4.4722,4.4722,4.4722,4.4722,4.4722,4.4722,4.4722,4.4722,4.4722,4.4722,4.4722,4.4722,4.4722,4.4722,4.4722,4.4722,4.4722,4.4722,4.4722,4.4722,4.4722,4.4722,4.4722,4.4774,4.4905,4.582,4.6525,4.6656,4.685,0.0,4.6704,4.5985,0.0,4.4175,4.4046,4.349,4.25,4.3074,4.3579,4.3969,4.4497,4.4773,4.4773,4.5163,4.537,4.537,4.537,4.537,4.537,4.537,4.537,4.537,4.537,4.537,4.537,4.537,4.537,4.537,4.537,4.537,4.537,4.537,4.5347,4.5074,0.0,0.0,0.0,0.0,0.0,0.0,0.0,4.7309,4.7309,4.7309,4.68,4.6411,4.6411,4.695,4.7309,0.0,0.0,0.0,0.0,0.0,0.0,0.0,0.0,0.0,0.0,0.0,0.0,4.7399,4.8656,0.0,0.0,0.0,0.0,0.0,0.0,5.1135,5.1011,5.0028,0.0,0.0,0.0,0.0,0.0,0.0,0.0,0.0,0.0,4.4722,4.4722,0.0,0.0,4.4722,4.4722,4.4722,4.4722,4.4722,0.0,0.0,4.4722,4.4722,4.4722,4.4722,4.4722,4.4722,4.4722,0.0,4.4722,4.4722,4.4722,4.4722,4.4722,4.4722,4.4722,4.4722,4.4722,4.4905,4.5454,4.6081,4.6682,4.7205,0.0,0.0,4.6824,4.6585,4.6225,4.5281,4.4756,4.4135,4.3028,4.3946,4.4497,4.4543,4.5025,4.5301,4.5301,4.5347,4.537,4.537,4.537,4.537,4.537,4.537,4.537,4.537,4.537,4.537,0.0,4.537,4.537,4.537,4.537,4.537,4.537,4.537,4.4937,4.4366,0.0,0.0,0.0,0.0,0.0,0.0,4.7309,4.7309,4.7309,4.7309,4.6741,4.6322,4.6322,4.6202,4.6262,4.6681,0.0,0.0,0.0,0.0,0.0,0.0,0.0,0.0,0.0,0.0,4.7309,4.7309,4.8237,0.0,0.0,0.0,0.0,0.0,0.0,5.1229,5.1229,5.0728,0.0,0.0,0.0,0.0,0.0,0.0,0.0,0.0,0.0,0.0,4.4722,4.4722,0.0,0.0,4.4722,4.4722,0.0,0.0,4.4722,4.4722,4.4722,4.4722,4.4722,4.4722,4.4722,4.4722,4.4722,0.0,4.4722,4.4722,4.4722,4.4722,4.4722,4.4722,4.4722,4.4722,4.4722,4.4931,4.5558,4.6107,4.6682,4.7257,4.7832,0.0,0.0,0.0,4.7095,4.5847,4.4753,4.404,4.3992,4.4382,4.475,4.5048,4.5255,4.537,4.537,4.537,4.537,4.537,4.537,4.537,4.537,4.537,4.537,4.537,4.537,4.537,0.0,4.537,4.537,4.537,4.537,4.5074,4.4663,4.4663,4.4228,4.3536,0.0,0.0,0.0,0.0,0.0,4.7309,4.7309,4.7309,4.7309,4.7309,4.6561,4.6022,4.6022,4.5341,4.5132,4.5693,4.6322,0.0,0.0,0.0,0.0,0.0,0.0,0.0,0.0,0.0,4.7309,4.7309,4.7967,4.8506,0.0,0.0,5.0481,5.093,0.0,0.0,0.0,0.0,0.0,0.0,0.0,0.0,0.0,0.0,0.0,0.0,0.0,0.0,0.0,0.0,0.0,0.0,0.0,0.0,0.0,0.0,4.4722,4.4722,4.4722,4.4722,4.4722,4.4722,4.4722,4.4722,0.0,0.0,4.4722,4.4722,4.4722,4.4722,4.4722,4.4722,4.4722,4.4722,4.4722,4.5009,4.5767,4.6212,4.6761,4.7492,0.0,4.8172,0.0,4.8172,4.7555,4.6143,4.5167,4.4696,4.4589,4.475,4.4979,4.5347,4.537,4.537,4.537,4.537,4.537,4.537,4.537,4.537,4.537,4.537,4.537,4.537,4.537,4.537,0.0,4.537,4.537,4.537,4.5074,4.4663,4.4228,4.3952,4.3397,4.284,0.0,0.0,0.0,0.0,0.0,0.0,4.7309,4.7309,4.7309,4.7309,4.6142,4.5304,4.5304,4.4571,4.4102,4.4347,4.4945,0.0,0.0,0.0,0.0,0.0,0.0,0.0,0.0,0.0,4.7309,4.7309,4.7967,4.8297,4.8327,4.9643,5.0242,5.0272,0.0,0.0,0.0,0.0,0.0,0.0,0.0,0.0,0.0,0.0,0.0,0.0,0.0,0.0,0.0,0.0,0.0,0.0,0.0,4.4722,0.0,0.0,4.4722,4.4722,4.4722,4.4722,4.4722,4.4722,4.4722,4.4722,4.4722,4.4722,4.4722,4.4722,4.4722,4.4722,4.4722,4.4722,4.4722,4.4722,4.4722,4.514,4.629,4.6473,4.6891,0.0,0.0,4.8172,4.8172,4.8172,4.7555,4.6143,4.6459,0.0,4.47,4.5071,4.5347,4.537,4.537,4.537,4.537,4.537,4.537,4.537,4.537,4.537,4.537,4.537,4.537,4.537,4.537,4.537,0.0,4.537,4.537,4.5347,4.4503,4.4228,4.409,4.3375,4.27,4.2018,0.0,0.0,0.0,0.0,0.0,0.0,0.0,4.7309,4.7309,4.7309,4.6142,4.5221,4.5138,4.4072,4.3307,4.3388,4.44,0.0,0.0,0.0,0.0,0.0,0.0,0.0,0.0,0.0,4.7309,4.7309,4.7519,4.7848,4.8297,4.8716,4.9374,5.0242,5.0451,0.0,0.0,0.0,0.0,0.0,0.0,0.0,0.0,0.0,0.0,0.0,0.0,0.0,0.0,0.0,0.0,0.0,0.0,0.0,0.0,4.4722,4.4722,4.4722,4.4722,4.4722,4.4722,4.4722,4.4722,4.4722,4.4722,4.4722,4.4722,4.4722,4.4722,4.4722,4.4722,4.4722,4.4722,4.4722,4.4722,4.514,4.6316,4.6473,0.0,4.8041,4.8172,4.8172,0.0,0.0,4.7197,4.7004,4.696,4.6743,4.6607,4.6499,4.616,4.5347,4.537,4.537,4.537,4.537,4.537,4.537,4.537,4.537,4.537,4.537,4.537,4.537,4.537,4.537,4.537,4.537,4.537,4.5347,4.4526,4.3952,4.3397,4.2559,4.1855,4.131,0.0,0.0,0.0,0.0,0.0,0.0,0.0,4.7309,4.7309,4.7309,4.6142,4.5221,4.4971,4.3783,4.2981,4.2981,4.3753,0.0,0.0,0.0,0.0,0.0,0.0,0.0,0.0,4.7189,4.7309,4.7309,4.7309,4.7519,4.7908,4.7908,4.8626,4.9883,4.9883,5.0361,0.0,0.0,0.0,0.0,0.0,0.0,5.1229,0.0,0.0,0.0,0.0,0.0,0.0,0.0,0.0,0.0,0.0,0.0,0.0,0.0,4.5046,4.4722,4.4722,4.4722,4.4722,4.4722,4.4722,0.0,4.4722,4.4722,4.4722,4.4722,4.4722,4.4722,4.4722,4.4722,4.4722,4.4722,4.4905,4.5401,4.6342,4.6656,0.0,4.8068,0.0,0.0,0.0,4.7677,4.7317,4.7491,4.7457,4.7379,4.6997,4.6897,4.6405,4.5483,4.537,4.537,4.537,4.537,4.537,4.537,4.537,4.537,4.537,4.537,4.537,4.537,4.537,4.537,0.0,4.537,4.537,4.5347,4.4228,4.3514,4.2958,4.1997,4.131,4.0882,0.0,0.0,0.0,0.0,0.0,0.0,0.0,4.7309,4.7309,4.7309,4.6142,4.5221,4.4971,4.3783,4.2981,4.2981,0.0,0.0,0.0,0.0,0.0,0.0,0.0,0.0,0.0,4.692,4.7249,4.7309,4.7309,4.7309,4.7309,4.7309,4.7967,4.9134,4.9224,5.0002,0.0,0.0,0.0,0.0,0.0,0.0,0.0,0.0,0.0,0.0,0.0,0.0,0.0,0.0,0.0,0.0,0.0,0.0,0.0,0.0,0.0,0.0,0.0,4.4722,4.4722,4.4722,4.4722,4.4722,4.4722,0.0,0.0,4.4722,4.4722,4.4722,4.4722,4.4722,4.4722,4.4722,4.5245,4.582,4.6395,4.6996,0.0,0.0,4.8172,0.0,4.8172,4.8172,4.8028,4.7561,4.8049,4.7858,4.6453,4.6897,4.6674,4.5619,4.5483,4.5483,4.537,4.537,4.537,4.537,4.537,4.537,4.537,4.537,4.537,0.0,4.537,4.537,4.537,4.5347,4.5347,4.521,4.3653,4.2958,4.2818,4.1431,4.0882,4.0882,0.0,0.0,0.0,0.0,0.0,0.0,0.0,0.0,0.0,0.0,4.6142,4.5221,4.4971,4.3783,4.2981,0.0,0.0,0.0,0.0,0.0,0.0,0.0,0.0,0.0,0.0,4.6471,4.68,4.7309,4.7309,4.7309,4.7309,4.7309,4.7459,4.7818,4.8805,5.0002,0.0,0.0,0.0,0.0,0.0,0.0,0.0,0.0,0.0,0.0,5.1229,5.1011,0.0,0.0,0.0,0.0,0.0,0.0,0.0,0.0,4.6867,4.5953,4.5953,0.0,4.4722,4.4722,4.4722,4.4722,0.0,0.0,0.0,0.0,0.0,0.0,4.4722,4.4722,4.4722,4.4722,4.5245,4.582,4.6395,4.7336,0.0,4.8172,4.8172,4.8172,4.8172,4.8172,4.8107,4.8003,4.8937,4.9316,4.9076,4.9267,4.8893,4.7846,4.6941,4.616,4.5347,4.537,4.537,4.537,4.537,4.537,4.537,4.537,4.537,4.537,4.537,4.537,4.5347,4.48,4.4503,4.4366,4.284,4.2278,4.2138,4.131,4.0882,4.0882,0.0,0.0,0.0,0.0,0.0,0.0,0.0,0.0,0.0,0.0,0.0,0.0,0.0,0.0,0.0,0.0,0.0,0.0,0.0,0.0,0.0,0.0,0.0,4.4646,4.5394,4.6022,4.6501,4.686,4.716,4.7309,4.7309,4.701,4.701,4.7369,4.8686,4.9643,0.0,0.0,0.0,0.0,5.1229,0.0,0.0,0.0,0.0,0.0,5.1229,5.1229,0.0,5.0508,5.0316,5.022,0.0,0.0,0.0,0.0,4.7993,4.7177,4.7177,4.5953,4.4722,4.4722,4.4722,4.4722,4.4722,0.0,0.0,0.0,0.0,0.0,0.0,4.4722,4.4826,4.5088,4.5637,4.6316,0.0,0.0,4.8172,4.8172,4.8172,4.8172,0.0,4.8172,4.8172,4.8172,4.9008,4.9369,4.9116,4.9467,4.9289,4.8502,4.7977,4.6941,4.5347,4.537,4.537,4.537,4.537,4.537,4.537,4.537,4.537,4.537,4.537,4.537,4.5347,4.4526,4.4228,4.409,4.2559,4.2018,4.1877,4.1167,4.0882,4.0882,0.0,0.0,0.0,0.0,0.0,0.0,0.0,0.0,0.0,0.0,0.0,0.0,0.0,0.0,0.0,0.0,0.0,0.0,0.0,0.0,0.0,0.0,0.0,4.4227,4.4317,4.5544,4.6232,4.6322,4.698,4.7309,4.7309,4.6741,4.683,4.7489,4.8626,4.9224,0.0,0.0,0.0,0.0,5.1229,0.0,0.0,0.0,0.0,0.0,0.0,0.0,0.0,5.1229,5.1229,5.1229,5.1229,0.0,0.0,0.0,0.0,0.0,4.8267,4.6764,4.5127,4.5046,4.483,4.4722,4.4722,0.0,0.0,0.0,0.0,0.0,0.0,4.4931,0.0,0.0,0.0,0.0,4.8041,4.8172,4.8172,4.8172,4.8172,0.0,4.8172,4.8172,4.8172,4.8172,4.8747,4.8937,4.86,4.9062,4.9242,4.8738,4.8763,4.7846,4.589,4.589,4.589,4.589,4.589,4.589,4.589,4.589,4.5754,4.5619,0.0,0.0,4.5347,4.4366,4.409,4.3952,4.2419,4.1877,4.1735,4.1167,4.0882,4.0882,0.0,0.0,0.0,0.0,0.0,0.0,0.0,0.0,0.0,0.0,0.0,0.0,0.0,0.0,0.0,0.0,0.0,0.0,0.0,0.0,0.0,4.3329,4.3419,4.3748,4.4317,4.5065,4.5753,4.6322,4.698,4.7309,4.7309,4.7189,4.7489,4.8147,4.8356,4.9045,5.0122,0.0,0.0,0.0,0.0,0.0,0.0,0.0,0.0,0.0,0.0,0.0,0.0,5.1229,5.1229,5.1229,5.1229,0.0,0.0,0.0,0.0,0.0,4.9317,4.8496,4.728,4.6374,4.5449,4.4722,4.4722,0.0,0.0,0.0,0.0,0.0,0.0,4.5872,4.6238,0.0,0.0,4.744,0.0,0.0,4.8172,4.8172,0.0,4.8172,4.8172,4.8172,4.8172,4.8172,4.8747,4.9322,4.9603,5.0201,5.0275,4.9925,4.9797,4.9282,4.7977,4.7977,4.7977,4.7977,4.7977,4.7977,4.7977,4.7977,4.7581,4.6674,0.0,4.616,4.5347,4.3814,4.3236,4.3097,4.1573,4.1025,4.1025,4.0882,4.0882,4.0924,0.0,0.0,0.0,0.0,0.0,0.0,0.0,0.0,0.0,0.0,0.0,0.0,0.0,0.0,0.0,0.0,0.0,0.0,0.0,0.0,0.0,4.3329,4.3329,4.3479,4.3778,4.4766,4.5454,4.5753,4.68,4.7309,4.7309,4.695,4.692,4.7249,4.7608,4.8297,4.9254,5.0272,5.09,5.1229,0.0,0.0,0.0,0.0,0.0,0.0,0.0,0.0,0.0,0.0,5.1229,5.1229,5.1229,0.0,0.0,0.0,0.0,0.0,5.0412,4.997,4.9223,4.838,4.728,4.6451,4.6451,0.0,0.0,0.0,0.0,0.0,0.0,4.629,4.6578,4.6891,0.0,4.7885,4.8146,4.8172,4.8172,0.0,0.0,4.8172,4.8172,4.8172,4.8172,4.8172,4.8433,4.8982,4.9845,5.0159,5.0461,5.0942,5.0968,5.0689,5.0181,5.0181,4.9668,4.8502,4.8502,4.8502,4.8502,4.8502,4.824,4.7714,0.0,4.7449,4.6917,4.4869,4.3907,4.3769,4.1714,4.0882,4.0882,4.0882,4.0882,4.0986,0.0,0.0,0.0,0.0,0.0,0.0,0.0,0.0,0.0,0.0,0.0,0.0,0.0,0.0,0.0,0.0,0.0,0.0,0.0,0.0,4.3329,4.3329,4.3329,4.3329,4.3329,4.4616,4.5304,4.5304,4.6651,4.7309,4.7309,4.68,4.6561,4.6591,4.7399,4.8027,4.8596,4.9912,5.075,5.1229,0.0,0.0,0.0,0.0,0.0,0.0,0.0,0.0,0.0,0.0,0.0,0.0,0.0,0.0,0.0,5.1229,5.1229,5.1259,5.1409,5.1195,5.0905,5.0554,0.0,4.8387,4.8246,0.0,0.0,0.0,0.0,0.0,0.0,4.6787,0.0,4.7466,4.7911,4.8172,4.8172,4.8172,4.8172,4.8172,4.8172,4.8172,4.8172,4.8172,4.8172,4.8172,4.8172,4.8695,4.9819,4.9897,5.042,5.157,5.1596,5.1596,5.1596,5.1596,5.0816,4.9282,4.9282,4.9282,4.9282,4.9157,4.9028,4.8893,4.8639,4.8509,4.824,4.6066,4.5119,4.4846,4.2796,4.1975,4.1975,4.1975,4.1975,4.2103,0.0,0.0,0.0,0.0,0.0,0.0,0.0,0.0,0.0,0.0,0.0,0.0,0.0,0.0,0.0,0.0,0.0,0.0,0.0,0.0,4.3329,4.3329,4.3329,4.3329,4.3329,4.4616,4.5304,4.5304,4.6651,4.7309,4.7309,4.7249,4.7249,4.7279,4.8566,4.9164,4.9284,5.0601,5.1169,5.1229,5.1229,0.0,0.0,0.0,0.0,0.0,0.0,0.0,0.0,0.0,0.0,0.0,0.0,0.0,5.1229,5.1229,5.1229,5.1349,5.1977,5.2061,5.224,5.2808,5.1381,0.0,4.9108,4.9446,0.0,0.0,0.0,0.0,0.0,4.7702,4.8068,4.812,4.8146,4.8172,4.8172,0.0,4.8172,4.8172,4.8172,4.8172,4.8172,4.8172,4.8172,4.8172,4.8172,4.8695,4.9819,4.9897,5.042,5.157,5.1596,5.1596,5.1596,5.1596,5.1471,5.1346,5.1346,5.1346,5.132,5.0825,5.0352,4.9925,4.9012,4.8422,4.7977,4.676,4.6224,4.6224,4.5255,4.4823,4.4823,4.4823,4.4823,4.4983,0.0,0.0,0.0,0.0,0.0,0.0,0.0,0.0,0.0,0.0,0.0,0.0,0.0,0.0,0.0,0.0,0.0,0.0,0.0,4.3329,4.3329,4.3329,4.3718,4.3958,4.3958,4.4825,4.5514,4.5933,4.686,4.7309,4.7309,4.7309,4.7309,4.7339,4.8267,4.8895,4.9314,5.0212,5.084,5.1229,5.1229,5.1229,0.0,0.0,0.0,0.0,0.0,0.0,0.0,0.0,5.1229,5.1229,5.1229,5.1229,5.1229,5.1229,5.1229,5.1379,5.2007,5.2187,5.2366,5.3025,0.0,0.0,0.0,0.0,0.0,0.0,0.0,0.0,0.0,0.0,4.8172,4.8172,4.8172,4.8172,4.8172,4.8172,4.8172,4.8172,4.8172,4.8172,4.8172,4.8172,4.8172,4.8172,4.8172,4.8695,4.9819,4.9897,5.042,5.157,5.1596,5.1596,5.1596,5.1596,5.1596,5.1596,5.1596,5.1413,5.11,5.123,5.0981,5.0477,5.0355,5.013,4.9797,4.8084,4.7269,4.716,4.5797,4.5232,4.5232,4.5232,4.5232,4.5393,0.0,0.0,0.0,0.0,0.0,0.0,0.0,0.0,0.0,0.0,0.0,0.0,0.0,0.0,0.0,0.0,0.0,0.0,4.3329,4.3329,4.3419,4.3629,4.4077,4.4526,4.4945,4.5394,4.5843,4.6322,4.698,4.7309,4.7309,4.7309,4.7309,4.7339,4.8207,4.8835,4.9314,5.0182,5.081,5.1229,5.1229,5.1229,0.0,0.0,0.0,0.0,0.0,0.0,0.0,0.0,5.1229,5.1229,5.1229,5.1229,5.1229,5.1229,5.1229,5.1379,5.2007,5.2336,5.2606,0.0,0.0,0.0,0.0,0.0,0.0,0.0,0.0,0.0,0.0,0.0,0.0,0.0,4.8172,4.8172,4.8172,4.8172,4.8172,4.8172,4.8172,4.8172,4.8172,4.8172,4.8172,4.8172,4.8355,4.8878,4.9845,5.008,5.0603,5.157,5.1596,5.1596,5.1596,5.1596,5.1596,5.1596,5.1596,5.1413,5.1047,5.1047,5.1047,5.0949,5.0783,5.0713,5.0614,4.9152,4.8502,4.8347,4.7003,4.6603,4.6603,4.6603,4.6603,4.6745,0.0,0.0,0.0,0.0,0.0,0.0,0.0,0.0,0.0,0.0,0.0,0.0,0.0,0.0,0.0,0.0,0.0,0.0,4.3359,4.3359,4.3658,4.4287,4.4317,4.4945,4.6292,4.6322,4.6322,4.6322,4.698,4.7309,4.7309,4.7309,4.7309,4.7369,4.8686,4.9254,4.9344,5.0661,5.1199,5.1229,5.1229,5.1229,5.1229,0.0,0.0,0.0,0.0,0.0,0.0,0.0,5.1229,5.1229,5.1229,5.1229,5.1229,5.1229,5.1229,5.1379,5.2037,5.2665,5.3174,0.0,0.0,0.0,0.0,0.0,0.0,0.0,0.0,0.0,0.0,0.0,0.0,4.8405,4.8172,4.8172,4.8172,4.8172,4.8172,4.8172,4.8172,4.8172,4.8172,4.8172,4.8172,4.8172,4.8747,4.9322,4.9871,5.0472,5.1047,5.157,5.1596,5.1596,5.1596,5.1596,5.1596,5.1596,5.1596,5.1596,5.1544,5.042,5.0279,5.1068,5.0176,4.9875,5.0129,4.9719,4.959,4.959,4.959,4.959,4.959,4.959,4.959,4.9766,0.0,0.0,0.0,0.0,0.0,0.0,0.0,0.0,0.0,0.0,0.0,0.0,0.0,0.0,0.0,0.0,0.0,0.0,4.4706,4.4706,4.4796,4.5005,4.5484,4.5903,4.6322,4.677,4.701,4.701,4.7219,4.7309,4.7309,4.7309,4.7309,4.7339,4.8207,4.8835,4.9314,5.0182,5.081,5.1229,5.1229,5.1229,5.1229,0.0,0.0,0.0,0.0,0.0,0.0,0.0,0.0,0.0,5.1229,5.1229,5.1229,5.1229,5.1229,5.1468,5.2576,5.2366,0.0,0.0,0.0,0.0,0.0,0.0,0.0,0.0,0.0,0.0,5.1347,0.0,0.0,4.8405,4.8172,4.8172,4.8172,4.8172,4.8172,4.8172,4.8172,4.8172,4.8172,4.8172,4.8172,4.8172,4.8747,4.9322,4.9871,5.0472,5.1047,5.157,5.1596,5.1596,5.1596,5.1596,5.1596,5.1596,5.1204,5.1021,5.1021,5.0825,5.0701,5.0551,5.0154,5.0104,5.0129,4.9719,4.959,4.959,4.959,4.959,4.959,4.959,4.959,4.9766,0.0,0.0,0.0,0.0,0.0,0.0,0.0,0.0,0.0,0.0,0.0,0.0,0.0,0.0,0.0,0.0,0.0,0.0,0.0,4.5304,4.5424,4.5693,4.6112,4.6441,4.6711,4.71,4.7309,4.7309,4.7309,4.7309,4.7309,4.7309,4.7309,4.7339,4.7997,4.8656,4.9314,4.9942,5.0631,5.1229,5.1229,5.1229,5.1229,0.0,0.0,0.0,0.0,0.0,0.0,0.0,0.0,0.0,5.1229,5.1229,5.1229,5.1229,5.1229,5.1379,5.2187,5.2007,0.0,0.0,0.0,0.0,0.0,0.0,0.0,0.0,0.0,5.3756,5.2537,5.1783,0.0,4.916,4.8842,4.8726,4.8289,4.8172,4.8172,4.8172,4.8172,4.8172,4.8172,4.8172,4.8172,4.8172,4.893,4.9557,4.9871,5.0655,5.1256,5.1596,5.1596,5.1596,5.1346,5.1471,5.1471,5.122,5.1033,5.0877,5.0753,5.0732,5.0607,5.0253,4.9977,4.9847,4.9847,4.9719,4.959,4.959,4.959,4.959,4.959,4.959,4.959,4.9766,0.0,0.0,0.0,0.0,0.0,0.0,0.0,0.0,0.0,0.0,0.0,0.0,0.0,0.0,0.0,0.0,0.0,0.0,0.0,0.0,4.5753,4.6381,4.6411,4.6681,4.7309,4.7309,4.7309,4.7309,4.7309,4.7309,4.7309,4.7309,4.7309,4.7339,4.7997,4.8656,4.9314,4.9942,5.0631,5.1229,5.1229,5.1229,5.1229,5.1229,0.0,0.0,0.0,0.0,0.0,0.0,0.0,0.0,5.1229,5.1229,5.1229,5.1229,5.1229,5.1229,5.1289,0.0,0.0,0.0,0.0,0.0,0.0,0.0,0.0,5.5179,0.0,5.4845,5.3623,5.3413,5.2644,5.0462,5.0014,4.9589,4.8521,4.8289,4.8172,4.8172,4.8172,4.8172,4.8172,4.8172,4.8172,4.8172,4.9244,4.9897,4.9897,5.0969,5.1596,5.1596,5.1596,5.1346,5.112,5.1346,5.122,5.0588,5.0867,5.0867,5.0588,5.0327,5.0253,5.0001,4.9719,4.959,4.959,4.959,4.959,4.959,4.959,4.959,4.959,4.959,4.959,4.9766,0.0,0.0,0.0,0.0,0.0,0.0,0.0,0.0,0.0,0.0,0.0,0.0,0.0,0.0,0.0,0.0,0.0,0.0,0.0,0.0,4.695,4.71,4.71,4.716,4.7309,4.7309,4.7309,4.7309,4.7309,4.7309,4.7309,4.7309,4.7309,4.7339,4.7997,4.8656,4.9314,4.9942,5.0631,5.1229,5.1229,5.1229,5.1229,5.1229,5.1229,0.0,0.0,0.0,0.0,0.0,0.0,0.0,5.1229,5.1229,5.1229,5.1229,5.1229,5.1319,5.1858,5.1708,0.0,0.0,0.0,0.0,0.0,5.4341,5.5179,5.5179,5.5179,5.4845,5.3623,5.3413,5.2963,5.1565,5.0462,4.9816,4.9589,4.8726,4.8172,4.8172,4.8172,4.8172,4.8172,4.8172,4.8172,4.8172,4.9244,4.9897,4.9897,5.0969,5.1596,5.1596,5.1372,5.112,5.112,5.0867,5.0715,5.0588,5.0715,5.0487,5.0232,5.0104,5.0002,4.9719,4.959,4.959,4.959,4.959,4.959,4.959,4.959,4.959,4.959,4.959,4.959,4.9766,0.0,0.0,0.0,0.0,0.0,0.0,0.0,0.0,0.0,0.0,0.0,0.0,0.0,0.0,0.0,0.0,0.0,0.0,0.0,0.0,4.7309,4.7309,4.7309,4.7309,4.7309,4.7309,4.7309,4.7309,4.7309,4.7309,4.7309,4.7309,4.7309,4.7339,4.7997,4.8656,4.9314,4.9942,5.0631,5.1229,5.1229,5.1229,5.1229,5.1229,5.1229,5.1229,5.1229,0.0,0.0,0.0,0.0,0.0,0.0,0.0,5.1229,5.1229,5.1229,5.1289,5.1648,0.0,0.0,5.1648,0.0,0.0,5.3174,5.4221,5.5179,5.5179,5.5179,5.4976,5.4406,5.4304,5.386,5.2644,5.2,5.1209,5.0014,4.9362,4.8842,4.8289,4.8172,4.8172,4.8172,4.8172,4.8303,4.859,4.9401,5.0028,5.0315,5.1126,5.1471,5.1346,5.1246,5.0994,5.0614,5.0614,5.0487,5.0104,5.0232,5.0232,4.9847,4.9847,4.9719,4.959,4.959,4.959,4.959,4.959,4.959,4.959,4.959,4.959,4.959,4.959,4.959,4.9766,0.0,0.0,0.0,0.0,0.0,0.0,0.0,0.0,0.0,0.0,0.0,0.0,0.0,0.0,0.0,0.0,0.0,0.0,0.0,0.0,0.0,4.7309,4.7309,4.7309,4.7309,4.7309,4.7309,4.7309,4.7309,0.0,0.0,0.0,4.7369,4.7489,4.8147,4.8805,4.9464,5.0122,5.072,5.1229,5.1229,5.1229,5.1229,5.1229,5.1229,5.1229,5.1229,5.1229,5.1229,5.1229,0.0,0.0,0.0,0.0,5.1229,5.1229,5.1229,5.1229,5.1229,0.0,5.1229,5.1229,5.2127,0.0,5.3144,5.4132,5.5059,5.5179,5.5179,5.5179,5.5179,5.5179,5.4845,5.386,5.3518,5.2751,5.0796,5.0126,4.9589,4.8611,4.8289,4.8172,4.8172,4.8172,4.8433,4.9035,4.9584,5.0159,5.076,5.1309,5.1346,5.112,5.0994,5.0614,5.0129,5.0359,5.0104,4.959,4.9847,4.9873,4.959,4.959,4.959,4.959,4.959,4.959,4.959,4.959,4.959,4.959,4.959,4.959,4.959,4.959,4.959,4.9766,0.0,0.0,0.0,0.0,0.0,0.0,0.0,0.0,0.0,0.0,0.0,0.0,0.0,0.0,0.0,0.0,0.0,0.0,4.7309,0.0,0.0,4.7309,4.7309,4.7309,4.7309,4.7309,4.7309,4.7309,4.7309,0.0,0.0,0.0,0.0,4.8177,4.8835,4.9494,5.0152,5.081,5.1139,5.1229,5.1229,5.1229,5.1229,5.1229,5.1229,5.1229,5.1229,5.1229,5.1229,5.1229,5.1229,0.0,0.0,0.0,5.1229,5.1229,5.1229,5.1229,0.0,0.0,5.1229,0.0,5.1768,5.2486,0.0,0.0,5.4491,0.0,5.5179,5.5179,5.5179,5.5179,5.5179,5.4976,5.4068,5.3308,5.2963,5.1209,4.9788,4.9702,4.8842,4.8172,4.8172,4.8172,4.8433,4.9035,4.9584,5.0159,5.076,5.1059,5.112,5.112,5.0487,5.0257,5.0129,4.9847,4.9719,4.959,4.959,4.959,4.959,4.959,4.959,4.959,4.959,4.959,4.959,4.959,4.959,4.959,4.959,4.959,4.959,4.959,4.959,4.9766,0.0,0.0,0.0,0.0,0.0,0.0,0.0,0.0,0.0,0.0,0.0,0.0,0.0,0.0,0.0,4.7309,4.7309,4.7309,4.7309,4.7309,4.7309,4.7309,4.7309,4.7309,4.7309,4.7309,4.7489,4.7848,0.0,0.0,0.0,4.8416,4.8356,0.0,0.0,0.0,5.0272,5.093,5.1229,5.1229,5.1229,5.1229,5.1229,5.1229,5.1229,5.1229,5.1229,5.1229,5.1229,5.1229,5.1229,5.1229,5.1229,0.0,0.0,0.0,5.1229,0.0,5.1229,5.1229,5.1229,0.0,5.1708,5.2366,5.3025,0.0,5.4401,5.5059,5.5179,5.5179,5.5179,5.5179,5.5179,5.5179,5.4743,5.42,5.3518,5.2537,5.1674,5.1017,5.0489,5.0154,5.0154,5.0154,5.0222,5.0495,5.0789,5.0989,5.1204,5.1341,5.122,5.0842,5.0487,5.0232,4.9847,4.9719,4.959,4.959,4.959,4.959,4.959,4.959,4.959,4.959,4.959,4.959,4.959,4.959,4.959,4.959,4.959,4.959,4.959,4.959,4.959,4.9766,0.0,0.0,0.0,0.0,0.0,0.0,0.0,0.0,0.0,0.0,0.0,0.0,0.0,0.0,0.0,0.0,4.7309,4.7309,4.7309,4.7309,4.7309,4.7309,4.7309,4.7309,4.7309,4.7459,4.7788,0.0,0.0,0.0,4.9254,4.9434,4.9254,0.0,4.9793,0.0,0.0,0.0,0.0,5.1229,5.1229,5.1229,5.1229,5.1229,5.1229,5.1229,5.1229,5.1229,5.1229,5.1229,5.1229,5.1229,5.1229,5.1229,0.0,0.0,0.0,0.0,0.0,0.0,5.1229,5.1229,5.1588,5.2127,0.0,0.0,5.4132,0.0,5.5089,5.5179,5.5179,5.5179,5.5179,5.5179,5.5179,5.4845,5.3964,5.3623,5.3069,5.2216,5.1892,5.1674,5.1674,5.1674,5.1877,5.2075,5.1836,5.1788,5.2139,5.1721,5.122,5.0588,5.0461,5.0232,4.959,4.959,4.959,4.959,4.959,4.959,4.959,4.959,4.959,4.959,4.959,4.959,4.959,4.959,4.959,4.959,4.959,4.959,4.959,4.959,4.959,4.9766,0.0,0.0,0.0,0.0,0.0,0.0,0.0,0.0,0.0,0.0,0.0,0.0,4.7396,4.7309,4.7309,4.7309,4.7309,4.7309,4.7309,4.7309,4.7309,4.7309,4.7309,0.0,4.7309,4.7908,4.8267,0.0,0.0,0.0,4.9284,4.9912,5.0182,5.0122,5.0212,5.0571,5.1169,0.0,0.0,0.0,5.1229,5.1229,5.1229,5.1229,5.1229,5.1229,5.1229,5.1229,5.1229,5.1229,5.1229,5.1229,5.1229,5.1229,5.1229,0.0,0.0,0.0,0.0,5.1229,0.0,5.1229,5.1259,0.0,0.0,0.0,0.0,5.4132,5.476,5.5179,5.5179,5.5179,5.5179,5.5179,5.5179,5.5179,5.5078,5.4068,5.3413,5.3308,5.2323,5.1674,5.1674,5.1674,5.2208,5.3304,5.2416,5.2262,5.3308,5.1944,5.0994,5.0588,5.0232,4.9976,4.959,4.959,4.959,4.959,4.959,4.959,4.959,4.959,4.959,4.959,4.959,4.959,4.959,4.959,4.959,4.959,4.959,4.959,4.959,4.959,4.959,4.9766,0.0,0.0,0.0,0.0,0.0,0.0,0.0,0.0,0.0,0.0,0.0,0.0,0.0,4.7309,4.7309,4.7309,4.7309,4.7309,4.7309,4.7309,4.7309,4.7309,4.7309,4.7489,4.7938,4.8177,0.0,0.0,0.0,5.0092,5.0511,5.075,5.087,5.087,5.087,5.099,5.1229,5.1229,0.0,0.0,0.0,0.0,0.0,0.0,0.0,0.0,0.0,0.0,0.0,5.1229,5.1229,5.1229,0.0,0.0,0.0,0.0,0.0,0.0,0.0,0.0,0.0,5.1229,5.1229,5.1379,5.2067,5.2695,5.3384,5.4072,5.473,5.5179,5.5179,5.5179,5.5179,5.5179,5.5179,5.5179,5.5179,5.4845,5.4539,5.4539,5.42,5.3993,5.3993,5.3993,5.4176,5.4586,5.4229,5.3862,5.3549,5.2903,5.2068,5.0994,5.0614,5.0104,4.959,4.959,4.959,4.959,4.959,4.959,4.959,4.959,4.959,4.959,4.959,4.959,4.959,4.959,4.959,4.959,4.959,4.959,4.959,4.959,4.959,4.9766,0.0,0.0,0.0,0.0,0.0,0.0,0.0,0.0,0.0,0.0,0.0,0.0,0.0,0.0,4.7309,4.7309,4.7309,4.7309,4.7309,4.7309,4.7399,4.7638,4.7638,4.7938,4.8596,4.8835,0.0,0.0,0.0,0.0,0.0,5.1229,5.1229,5.1229,5.1229,5.1229,0.0,0.0,0.0,5.1229,0.0,0.0,5.1229,0.0,0.0,0.0,0.0,0.0,0.0,0.0,0.0,0.0,0.0,0.0,0.0,0.0,0.0,0.0,5.1229,0.0,0.0,0.0,0.0,5.1319,5.1768,0.0,5.3054,5.3713,5.4401,5.494,5.5149,5.5179,5.5179,5.5179,5.5179,5.5179,5.5179,5.5179,5.5179,5.5179,5.5179,5.5179,5.5179,5.5179,5.5321,5.5624,5.5459,0.0,5.4435,5.4212,5.3483,5.2289,5.1094,5.0334,5.0181,4.9847,4.959,4.959,4.959,4.959,4.959,4.959,4.959,4.959,4.959,4.959,4.959,4.959,4.959,4.959,4.959,4.959,4.959,4.959,4.959,4.9766,0.0,0.0,0.0,0.0,0.0,0.0,0.0,0.0,0.0,4.8635,0.0,0.0,0.0,0.0,0.0,4.7369,4.7369,4.7369,4.7369,4.7369,4.7638,4.8297,4.8327,4.8626,4.9284,4.9912,5.0242,0.0,0.0,0.0,0.0,0.0,5.1229,5.1229,5.1229,5.1229,5.1229,0.0,5.1229,5.1229,0.0,5.1229,5.1229,0.0,0.0,0.0,5.1229,5.1229,0.0,5.1229,0.0,0.0,0.0,0.0,0.0,0.0,0.0,0.0,0.0,0.0,0.0,0.0,0.0,0.0,5.1229,0.0,5.2396,5.3054,5.3713,5.4401,5.5059,5.5179,5.5179,5.5179,5.5179,5.5179,5.5179,5.5179,5.5179,5.5179,5.5179,5.5179,5.5179,5.5179,5.5478,5.6137,5.5654,5.562,5.6258,5.5766,5.515,5.4414,5.1669,5.0715,5.1492,5.0308,4.9719,4.9719,4.959,4.959,4.959,4.959,4.959,4.959,4.959,4.959,4.959,4.959,4.959,4.959,4.959,4.959,4.959,4.959,4.9615,4.9766,0.0,0.0,0.0,0.0,0.0,0.0,5.2734,5.1757,5.0829,0.0,0.0,0.0,0.0,4.8716,4.8716,4.8716,4.8716,4.8716,4.8716,4.8716,4.8805,4.8985,4.8985,4.9284,4.9942,5.0152,5.0481,0.0,5.1139,5.1229,5.1229,5.1229,5.1229,0.0,5.1229,5.1229,5.1229,5.1229,0.0,0.0,5.1229,5.1229,0.0,0.0,0.0,0.0,0.0,5.1229,5.1229,0.0,5.1229,5.1229,0.0,0.0,0.0,0.0,0.0,0.0,5.1229,0.0,0.0,0.0,0.0,0.0,0.0,0.0,5.2396,5.3054,5.3713,5.4401,5.5059,5.5179,5.5179,5.5179,5.5179,5.5179,5.5179,5.5179,5.5179,5.5179,5.5179,5.5179,5.5179,5.5179,5.5478,0.0,5.6422,5.6515,5.6258,5.5766,5.515,5.4769,5.4057,5.3456,5.3187,5.1989,5.1268,5.0916,5.0078,4.959,4.959,4.959,4.959,4.959,4.959,4.959,4.959,4.959,4.959,4.959,4.959,4.959,4.959,4.959,4.9841,5.0293,0.0,0.0,0.0,0.0,0.0,5.3782,5.3782,5.305,5.2218,0.0,0.0,0.0,0.0,0.0,4.9254,4.9254,4.9254,4.9254,4.9254,4.9254,4.9374,4.9643,4.9673,4.9972,5.0631,5.0661,5.084,5.1229,5.1229,5.1229,5.1199,5.093,5.081,0.0,0.0,0.0,0.0,0.0,0.0,0.0,5.1229,0.0,0.0,5.1229,5.1229,0.0,0.0,0.0,5.1229,5.1229,5.1229,0.0,0.0,0.0,0.0,0.0,0.0,0.0,0.0,0.0,0.0,0.0,0.0,0.0,5.1229,5.1498,5.2067,0.0,5.3503,5.4072,5.4999,5.5179,5.5179,5.5179,5.5179,5.5179,5.5179,5.5179,5.5179,5.5179,5.5179,5.5179,5.5179,5.5179,5.5359,5.5718,5.6346,5.6779,5.7055,5.6419,5.6308,5.6537,5.5472,5.4887,5.4769,5.3429,5.2604,5.2385,5.1544,5.1194,5.1194,5.1194,5.0942,5.0436,5.0436,5.0078,4.959,4.959,4.959,4.959,4.959,4.959,4.959,4.959,4.9941,5.0494,0.0,0.0,5.5596,5.4933,5.4759,5.4759,5.4759,5.4011,5.3197,0.0,5.1274,5.0441,0.0,4.9554,4.9494,4.9494,4.9494,4.9494,4.9494,4.9494,4.9733,5.0331,5.0361,5.0631,5.1199,5.1229,5.1229,5.1229,5.1229,5.1169,5.1109,5.0511,5.0182,5.0122,0.0,0.0,0.0,0.0,0.0,5.1386,5.1199,5.1229,0.0,0.0,5.1229,5.1229,5.1229,5.1229,5.1229,5.1229,5.1229,0.0,0.0,0.0,0.0,0.0,5.1229,0.0,0.0,0.0,0.0,0.0,0.0,0.0,5.1229,5.1229,5.1588,0.0,5.3174,5.3593,5.494,5.5179,5.5179,5.5179,5.5179,5.5179,5.5179,5.5179,5.5179,5.5179,5.5179,5.5179,5.5179,5.5179,5.5179,5.5179,5.5807,5.6735,5.8052,5.7614,5.7745,5.8664,5.6537,5.5588,5.6222,5.4887,5.4057,5.3724,5.3631,5.351,5.351,5.351,5.2876,5.1741,5.1741,5.1042,5.0078,5.0078,4.9847,4.959,4.959,4.959,4.959,4.959,4.9941,5.0494,5.7345,5.7238,5.7096,5.6813,5.6629,5.6478,5.6478,5.5562,5.4566,5.3735,5.2116,0.0,0.0,5.1272,5.084,5.084,5.084,5.084,5.084,5.084,5.09,5.102,5.102,5.1079,5.1229,5.1229,5.1229,5.1229,5.1229,5.096,5.0421,5.0301,4.9942,4.9464,0.0,0.0,0.0,0.0,0.0,5.2245,5.1479,0.0,5.1229,5.1229,5.1229,5.1229,5.1229,5.1229,5.1229,5.1229,5.1229,5.1229,0.0,0.0,0.0,5.1229,0.0,0.0,0.0,0.0,0.0,0.0,0.0,0.0,5.1229,5.1229,5.1588,0.0,5.3174,5.3593,5.494,5.5179,5.5179,5.5179,5.5179,5.5179,5.5179,5.5179,5.5179,5.5179,5.5179,5.5179,5.5179,5.5179,5.5179,5.5179,5.5807,5.6735,5.8052,5.8017,5.8208,5.8991,5.8525,5.8305,5.8195,5.6651,5.5732,5.5412,5.4084,5.351,5.351,5.351,5.3389,5.312,5.312,5.2998,5.278,5.278,5.1544,4.959,4.959,4.959,4.959,4.959,4.9941,5.0494,5.7588,5.7514,5.7439,5.7289,5.7214,5.7139,5.7139,5.6569,5.5876,5.5035,5.3687,0.0,0.0,0.0,5.1727,5.1199,5.1229,5.1229,5.1229,5.1229,5.1229,5.1229,5.1229,5.1229,5.1229,5.1229,5.1229,5.1229,5.09,5.0571,5.0242,4.9583,4.9254,4.9254,4.8925,0.0,0.0,0.0,5.0697,5.1455,5.1759,0.0,5.2516,5.2094,5.1911,5.1819,5.1386,5.1229,5.1229,5.1229,5.1229,0.0,5.1229,5.1229,5.1229,0.0,5.1229,5.1229,0.0,0.0,0.0,5.1229,0.0,0.0,0.0,5.1229,5.1588,5.2905,5.3174,5.3593,5.494,5.5179,5.5179,5.5179,5.5179,5.5179,5.5179,5.5179,5.5179,5.5179,5.5179,5.5179,5.5179,5.5179,5.5179,5.5179,5.5807,5.6585,5.7573,5.7932,5.8441,5.9069,5.9099,5.8991,5.8694,5.7863,5.7274,5.6822,5.5992,5.5528,5.5412,5.5412,5.5032,5.4442,5.4442,5.4084,5.351,5.351,5.278,5.1419,5.079,5.0206,4.959,4.959,4.9941,5.0494,5.7662,5.7514,5.7439,5.7439,5.7364,5.7364,5.7364,5.703,5.6536,0.0,0.0,0.0,0.0,0.0,0.0,0.0,5.1293,5.1229,5.1229,5.1229,5.1229,5.1229,5.1229,5.1229,5.1229,5.1229,5.1229,5.1229,5.0571,5.0182,5.0032,4.8835,4.8566,4.9045,4.8683,0.0,0.0,0.0,0.0,5.088,0.0,5.3196,5.3632,5.3108,5.2785,5.2516,5.1572,5.1229,5.1229,5.1229,5.1229,5.1229,5.1229,5.1229,0.0,0.0,0.0,0.0,0.0,0.0,0.0,0.0,0.0,5.1229,0.0,0.0,0.0,5.2905,0.0,0.0,5.494,0.0,0.0,5.5029,0.0,0.0,0.0,5.5119,0.0,5.5179,5.5179,5.5179,5.5179,5.5179,5.5179,5.5179,5.5688,5.6256,5.6885,5.7573,5.8231,5.889,5.9039,5.8991,5.8803,5.8694,5.8445,5.8003,5.7892,5.7669,5.7416,5.7303,5.6708,5.5761,5.5761,5.515,5.4204,5.4204,5.4084,5.3724,5.2359,5.1294,5.0334,5.0078,5.0229,5.0735,5.7881,5.7808,5.7808,5.7808,5.7662,5.7588,5.7588,5.6658,5.6001,0.0,0.0,0.0,0.0,0.0,0.0,0.0,0.0,0.0,5.1229,0.0,5.1229,5.1229,5.1229,5.1229,5.1229,5.1229,5.1229,5.1229,5.0571,4.9942,4.9374,4.8626,4.8327,4.8475,4.9194,0.0,0.0,0.0,5.194,0.0,5.3521,5.3371,0.0,5.3545,5.3284,5.2516,5.1572,5.1229,5.1229,0.0,5.1229,5.1229,0.0,5.1229,5.1229,5.1229,0.0,0.0,0.0,0.0,0.0,0.0,5.1229,0.0,0.0,0.0,5.1588,5.2905,0.0,5.3593,5.494,0.0,0.0,0.0,0.0,0.0,5.4401,5.482,5.5179,5.5179,5.5179,5.5179,5.5179,5.5179,5.5179,5.5179,5.5269,5.5598,5.6256,5.6885,5.7513,5.8201,5.88,5.9099,5.8991,5.8773,5.8694,5.8555,5.8003,5.7781,5.7781,5.7416,5.7191,5.7078,5.7078,5.6936,5.6822,5.6822,5.6222,5.5032,5.3724,5.312,5.2876,5.1767,5.1294,5.1402,5.7881,5.7881,0.0,5.7881,5.7808,5.7735,5.7735,5.7406,5.6811,0.0,5.5603,0.0,0.0,0.0,0.0,0.0,0.0,5.2754,0.0,0.0,5.188,5.1229,5.1229,5.1229,5.1229,5.1229,5.1229,5.1229,5.0571,5.0092,4.9823,4.9164,4.8865,4.8954,4.9799,0.0,5.0201,0.0,5.2596,0.0,0.0,0.0,0.0,5.4621,5.3891,5.2516,5.2185,5.1635,5.1229,0.0,5.1229,0.0,0.0,0.0,0.0,5.1229,0.0,0.0,0.0,0.0,0.0,0.0,0.0,0.0,5.1229,0.0,5.1588,0.0,0.0,0.0,0.0,0.0,0.0,0.0,5.4999,5.5089,0.0,0.0,5.5179,5.5179,0.0,0.0,5.5179,5.5179,5.5179,5.5179,5.5179,5.5478,5.6137,5.6765,5.7423,5.8112,5.877,5.9099,5.9099,5.8991,5.8882,5.8694,5.8445,5.8114,5.7781,5.7669,5.7416,5.7303,5.7303,5.7303,5.7303,5.7303,5.6936,5.648,5.5876,5.4797,5.3362,5.2876,5.2631,5.2615,5.7881,0.0,0.0,0.0,5.7881,5.7881,5.7881,5.7881,5.7554,0.0,0.0,0.0,5.4589,5.4621,0.0,0.0,5.403,5.3773,0.0,0.0,5.2245,0.0,0.0,0.0,5.1323,5.1416,5.1416,5.1323,5.0663,5.0242,5.0212,4.9374,4.9105,4.9344,0.0,5.0615,5.0746,0.0,5.3382,5.3528,5.4777,5.5474,5.5636,5.5393,5.4453,5.3284,5.302,5.2516,5.1911,5.1635,5.1572,0.0,5.1293,5.1229,5.1229,0.0,0.0,0.0,5.1229,0.0,0.0,0.0,0.0,0.0,0.0,0.0,0.0,0.0,0.0,0.0,0.0,0.0,0.0,5.494,0.0,5.5119,0.0,5.5089,0.0,0.0,0.0,0.0,0.0,5.5179,5.5179,5.5179,5.5179,5.5388,5.5867,5.6645,5.7334,5.7812,5.865,5.9099,5.9099,5.9099,5.8991,5.8773,5.8694,5.8445,5.8003,5.7892,5.7669,5.7416,5.7303,5.7303,5.7303,5.7303,5.7303,5.7303,5.7303,5.6107,5.4442,5.4084,5.3964,5.3954,5.7881,5.7881,0.0,0.0,0.0,5.7881,5.7881,5.7881,0.0,0.0,0.0,0.0,0.0,0.0,0.0,0.0,0.0,5.334,5.3253,0.0,5.188,0.0,0.0,5.188,0.0,5.188,5.188,5.1572,5.0909,5.0425,5.0212,4.8925,4.8656,4.9314,5.0372,5.0767,5.0746,5.3227,5.4308,5.4453,5.5021,5.5829,5.6603,0.0,5.528,5.5117,5.4232,0.0,0.0,5.2874,5.2516,0.0,0.0,0.0,0.0,0.0,0.0,0.0,0.0,0.0,0.0,5.1229,0.0,0.0,0.0,0.0,5.2366,0.0,0.0,0.0,0.0,0.0,5.497,5.4341,5.479,0.0,0.0,5.479,5.5179,5.5179,5.5179,0.0,0.0,5.5179,5.5179,5.5179,5.5179,5.5209,5.5209,5.6406,5.7094,5.7124,5.8411,5.9099,5.9099,5.9099,5.9099,5.9099,5.8773,5.8694,5.8664,5.8114,5.7781,5.7781,5.7416,5.7303,5.7303,5.7303,5.7303,5.7303,5.7303,5.7303,5.7078,5.5761,5.5295,5.5261,0.0,0.0,0.0,0.0,0.0,0.0,0.0,5.7881,0.0,0.0,0.0,0.0,0.0,5.6459,5.6192,0.0,0.0,5.5922,5.5215,5.4421,0.0,0.0,0.0,5.2215,0.0,0.0,5.2002,5.188,5.1667,5.1121,5.0516,5.0486,5.0065,4.9374,5.1857,5.2639,0.0,0.0,0.0,0.0,0.0,5.6414,5.668,0.0,5.5829,5.5312,5.4985,5.4485,0.0,5.3632,5.3227,5.2785,5.2547,5.2124,5.1695,5.1509,5.1479,5.1416,0.0,0.0,5.1229,5.1229,0.0,0.0,0.0,0.0,0.0,0.0,0.0,0.0,0.0,0.0,5.5119,5.491,5.5029,5.5119,0.0,5.5059,5.5179,5.5179,5.5179,5.5179,0.0,5.5179,5.5179,5.5179,5.5179,5.5179,5.5179,5.6017,5.6675,5.7094,5.7992,5.865,5.9099,5.9099,5.9099,5.9099,5.8991,5.8882,5.8694,5.8445,5.8225,5.7781,5.7669,5.7528,5.7303,5.7303,5.7303,5.7303,5.7303,5.7303,5.7303,5.6822,5.6708,5.6566,5.7881,0.0,0.0,0.0,0.0,0.0,0.0,0.0,0.0,0.0,5.7406,0.0,5.7105,0.0,5.6954,0.0,5.7181,5.6844,5.5889,5.5329,0.0,5.4253,5.3227,0.0,0.0,0.0,0.0,0.0,5.2063,5.1759,5.1061,5.1334,5.088,5.0005,5.2403,5.3323,5.3331,5.5431,5.6448,0.0,0.0,5.6834,0.0,0.0,5.6492,5.5876,0.0,5.5636,5.5149,5.4787,5.4369,5.3945,5.3284,5.2815,5.2397,5.188,5.1695,5.1572,5.1386,5.1323,0.0,5.1498,5.1887,0.0,5.2486,0.0,5.3683,0.0,0.0,0.0,0.0,0.0,5.5179,5.5179,5.5179,5.5179,0.0,5.5179,5.5179,5.5179,5.5179,5.5179,5.5179,5.5179,5.5179,5.5179,5.5179,5.5179,5.5179,5.5807,5.6466,5.7064,5.7752,5.8441,5.9099,5.9099,5.9099,5.9099,5.9099,5.8991,5.8803,5.8803,5.8474,5.8114,5.8003,5.7863,5.764,5.764,5.764,5.764,5.7528,5.7416,5.7416,5.7303,5.7303,5.7278,0.0,0.0,0.0,0.0,5.7881,0.0,0.0,0.0,5.7881,0.0,5.7881,5.7881,5.7881,5.7881,5.7881,5.7881,5.7181,5.627,5.5474,5.5393,0.0,0.0,5.3891,5.3891,5.3632,0.0,0.0,0.0,0.0,5.2215,5.1941,5.1334,5.103,5.106,5.2031,0.0,5.3528,5.5005,5.6051,5.6757,5.6911,5.6987,5.7063,5.7214,5.7214,5.7063,5.7214,5.7289,5.7181,5.6237,5.6001,5.5651,5.3945,5.3427,5.3196,5.2306,5.188,5.1665,5.1665,5.1416,5.1409,5.2037,5.2247,0.0,0.0,0.0,5.4251,0.0,0.0,0.0,0.0,0.0,5.5179,5.5179,5.5179,5.5179,5.5179,5.5179,5.5179,5.5179,5.5179,5.5179,5.5179,5.5179,5.5179,5.5179,5.5179,5.5179,5.5179,5.5777,5.6406,5.7064,5.7723,5.8411,5.9099,5.9099,5.9099,5.9099,5.9099,5.9099,5.9099,5.8803,5.8664,5.8694,5.8335,5.8195,5.8195,5.8195,5.8195,5.8195,5.7892,5.7781,5.7781,5.7416,5.7303,5.739,5.7881,5.7881,5.7881,0.0,5.7881,5.7881,0.0,0.0,0.0,0.0,5.7881,5.7881,5.7881,5.7881,5.7881,5.7881,5.7735,0.0,0.0,0.0,0.0,5.5876,5.4653,5.3976,5.3891,5.3113,5.2698,5.2608,0.0,5.2242,5.1483,5.1819,5.1637,5.109,5.3143,5.407,5.4146,5.5883,5.6744,5.6911,5.7139,5.7214,5.7214,0.0,5.7514,5.7439,5.7364,5.7289,5.7289,5.703,5.6614,5.6146,5.5636,5.5231,5.4537,5.3459,5.3108,5.2962,5.2124,5.2243,5.248,5.2472,5.3254,5.4037,5.3892,5.4461,0.0,0.0,0.0,0.0,0.0,0.0,5.5179,5.5179,5.5179,5.5179,5.5179,5.5179,5.5179,5.5179,5.5179,5.5179,5.5179,5.5179,5.5179,5.5179,5.5179,5.5179,5.5179,5.5359,5.5957,5.7064,5.7274,5.7932,5.9099,5.9099,5.9099,5.9099,5.9099,5.9099,5.9099,5.8991,5.8882,5.8694,5.8555,5.8445,5.8195,5.8195,5.8195,5.8195,5.8085,5.8003,5.7781,5.7416,5.7303,5.7332,5.7881,0.0,0.0,5.7881,0.0,0.0,5.7881,5.7881,0.0,5.7881,5.7881,0.0,5.7881,5.7881,5.7881,5.7881,5.7881,0.0,5.7331,0.0,0.0,5.6034,5.5035,5.4401,5.3976,5.3113,0.0,5.2698,0.0,5.2424,5.1935,5.2334,5.2213,5.1817,5.3507,5.4348,5.4601,5.6257,5.6987,5.7063,5.7289,5.7439,0.0,5.7662,5.7735,5.7735,5.7588,5.7588,5.7588,5.7588,5.7331,5.6954,5.6536,5.6192,5.5636,5.4621,5.3945,5.3521,5.3276,5.3132,5.3125,5.3542,5.4141,5.4677,5.478,5.501,5.5179,5.5179,5.5179,5.5179,5.5179,0.0,0.0,5.5179,5.5179,5.5179,0.0,0.0,0.0,5.5179,5.5179,5.5179,5.5179,5.5179,5.5179,5.5179,5.5179,5.5179,5.5179,5.5179,5.5658,5.6645,5.6944,5.7603,5.865,5.8949,5.9099,5.9099,5.9099,5.9099,5.9099,5.9099,5.8991,5.8882,5.8882,5.8773,5.8525,5.8525,5.8525,5.8555,5.8445,5.8225,5.8003,5.764,5.7416,5.7303,0.0,0.0,0.0,0.0,0.0,0.0,0.0,5.7881,0.0,5.7881,0.0,5.7881,5.7881,5.7881,5.7881,5.7881,0.0,5.7554,5.6844,5.748,5.7147,5.5393,5.5312,5.4819,5.3836,5.3113,5.2698,0.0,0.0,5.2698,5.2698,5.2698,5.2698,5.2698,0.0,0.0,0.0,5.6492,5.7063,5.7139,5.7514,5.7662,5.7662,5.7808,5.7881,5.7881,5.7881,5.7881,5.7881,5.7881,5.7881,5.7808,5.6996,5.6768,5.6614,5.5716,5.4768,5.4057,5.4631,5.408,5.3614,5.477,5.494,5.4986,5.556,5.5481,5.528,5.528,5.5179,5.5179,5.5179,5.5179,5.5179,5.5179,5.5179,0.0,0.0,0.0,0.0,0.0,5.5179,0.0,5.5179,5.5179,5.5179,5.5179,5.5179,5.5179,5.5179,5.5179,5.5508,5.6137,5.6765,5.7423,5.8112,5.877,5.9099,5.9099,5.9099,5.9099,5.9099,5.9099,5.9099,5.9099,5.9099,5.9099,5.9099,5.9099,5.9099,5.9099,5.8882,5.8555,5.8225,5.8003,5.7669,5.7416,0.0,0.0,0.0,0.0,0.0,5.7881,5.7881,5.7881,5.7881,5.7881,5.7881,5.7881,5.7881,5.7881,5.7881,5.7881,5.7881,0.0,0.0,0.0,0.0,5.5393,5.5312,5.4569,5.2935,5.2788,5.2698,0.0,0.0,5.2698,5.2698,5.2698,5.2698,5.2698,0.0,0.0,5.6067,5.7105,0.0,5.7514,5.7735,5.7808,5.7881,5.7881,5.7881,5.7881,5.7881,5.7881,5.7881,5.7881,5.7881,5.7881,5.7735,5.7662,5.748,5.6614,5.6107,5.5686,5.5075,5.5096,5.5217,5.5241,5.5664,5.6024,5.5948,5.5681,5.5481,5.5481,5.5381,5.5179,5.5179,5.5179,5.5179,5.5179,0.0,0.0,0.0,0.0,0.0,0.0,5.5179,5.5179,5.5179,5.5179,5.5179,5.5179,5.5179,5.5179,5.5179,5.5179,5.5508,0.0,5.6765,5.7423,0.0,5.877,5.9099,5.9099,5.9099,5.9099,5.9099,5.9099,5.9099,5.9099,5.9099,5.9099,5.9099,5.9099,5.9099,5.9099,5.8991,5.8882,5.8555,5.8555,5.8335,5.7974,0.0,0.0,0.0,0.0,0.0,0.0,0.0,5.8457,5.8321,5.7949,5.7881,5.7881,5.7881,5.7881,5.7881,5.7881,5.7881,5.7881,5.7881,5.7881,5.7147,5.5393,5.5312,5.4485,5.2698,5.2698,5.2698,5.2698,0.0,5.2698,5.2698,5.2698,5.2698,5.2788,0.0,5.4902,0.0,0.0,5.7588,5.7588,5.7808,5.7881,5.7881,5.7881,5.7881,5.7881,5.7881,5.7881,5.7881,5.7881,5.7881,5.7881,5.7881,5.7881,5.7876,5.7876,5.7094,5.6344,5.6659,5.6238,5.5776,5.605,5.6225,5.6372,5.6274,5.5979,5.578,5.5581,5.5481,5.5381,5.5179,5.5179,5.5179,0.0,0.0,0.0,0.0,0.0,5.5179,0.0,0.0,0.0,5.5918,5.5918,5.572,5.5179,5.5179,5.5179,5.5179,5.5179,5.5329,0.0,0.0,0.0,5.7573,0.0,5.9099,5.9099,5.9099,5.9099,5.9099,5.9099,5.9099,5.9099,5.9099,5.9099,5.9099,5.9099,5.9099,5.9099,5.9099,5.8991,5.8882,5.8803,5.8555,5.8335,0.0,6.0114,0.0,0.0,6.0114,5.9911,5.9336,5.9235,5.893,5.8017,5.7881,5.7881,5.7881,5.7881,5.7881,5.7881,5.7881,5.7881,5.7881,5.7881,5.7222,5.5636,5.5555,5.4736,5.3024,5.3201,5.3024,0.0,0.0,5.2877,5.2698,5.2698,5.2788,5.3024,0.0,0.0,0.0,5.703,5.7662,5.7662,5.7808,5.7881,5.7881,5.7881,5.7881,5.7881,5.7881,5.7881,5.7881,5.7881,5.7881,5.7881,5.7881,5.7881,5.8017,5.8795,5.7806,5.6783,5.8044,5.72,5.6053,5.6607,5.6664,5.647,5.647,5.6274,5.6077,5.578,5.5681,5.5581,5.528,5.5179,5.5179,5.5179,0.0,0.0,0.0,0.0,5.5179,0.0,5.5381,5.575,5.628,5.6638,5.6541,5.5551,5.5451,5.5451,5.5451,5.528,0.0,0.0,5.6286,5.6944,5.7094,5.8291,5.8979,5.9099,5.9099,5.9099,5.9099,5.9099,5.9099,5.9099,5.9099,5.9099,5.9099,5.9099,5.9099,5.9099,5.9099,5.9099,5.9099,5.8882,5.8803,5.8664,0.0,0.0,0.0,0.0,0.0,6.008,6.0013,6.0013,5.9471,5.8084,5.7881,5.7881,5.7881,5.7881,5.7881,5.7881,5.7881,5.7881,5.7881,5.7881,5.748,5.6536,5.6459,5.5636,5.3922,5.4653,5.4264,0.0,0.0,5.3521,5.2698,5.2698,5.3113,5.3922,5.4902,5.5716,5.6536,5.748,5.7881,5.7881,5.7881,5.7881,5.7881,5.7881,5.7881,5.7881,5.7881,5.7881,5.7881,5.7881,5.7881,5.7881,5.7881,5.7881,5.8017,5.8795,5.8138,5.7397,5.8173,5.7548,5.6669,5.673,5.6761,5.6761,5.6761,5.6567,5.6372,5.6372,5.5979,5.5581,5.5581,5.5381,5.5179,5.5179,5.5179,5.5179,5.5179,5.5179,5.5179,5.5179,5.5918,5.6183,5.5381,5.6927,5.7559,5.6541,5.6445,5.6445,5.6445,0.0,0.0,5.5179,5.5897,5.6526,5.7094,5.7842,5.853,5.9099,5.9099,5.9099,5.9099,5.9099,5.9099,5.9099,5.9099,5.9099,5.9099,5.9099,5.9099,5.9099,5.9099,5.9099,5.9099,5.9099,5.9099,5.8991,0.0,0.0,0.0,0.0,0.0,0.0,0.0,6.0825,6.0283,5.8761,5.8558,5.8389,5.7949,5.7881,5.7881,5.7881,5.7881,5.7881,5.7881,5.7881,5.748,5.6614,5.6614,5.6034,5.4819,5.5149,5.4736,0.0,0.0,5.3577,5.2698,5.2698,5.2877,5.3258,5.4653,5.5474,5.5876,5.7331,5.7881,5.7881,5.7881,5.7881,5.7881,5.7881,5.7881,5.7881,5.7881,5.7881,5.7881,5.7881,5.7881,5.7881,5.7881,5.8186,5.8727,5.9438,5.9297,5.9019,5.9741,5.8831,5.7653,5.7653,5.7211,5.6761,5.6761,5.6761,5.6567,5.647,5.5979,5.5581,5.5581,5.5381,5.5179,5.5179,5.5179,5.5179,5.5179,5.5179,5.5179,5.5179,5.5551,5.5819,5.6017,5.7276,5.8177,5.8391,5.7839,5.7276,5.6638,5.628,5.5819,5.5179,5.5837,5.6466,5.7094,5.7782,5.8471,5.9099,5.9099,5.9099,5.9099,5.9099,5.9099,5.9099,5.9099,5.9099,5.9099,5.9099,5.9099,5.9099,5.9099,5.9099,5.9099,5.9099,5.9099,5.9099,6.2381,0.0,6.2381,0.0,6.2381,6.2212,6.1704,6.1637,6.1163,5.9877,5.9471,5.8964,5.7983,5.7881,5.7881,5.7881,5.7881,5.7881,5.7881,5.7881,5.7662,5.6996,5.6996,0.0,5.5716,5.5955,5.5523,5.4401,5.4401,5.3922,5.3113,5.2788,5.2935,5.3521,5.4485,5.5361,5.6113,5.7072,5.7662,5.7881,5.7881,5.7881,5.7881,5.7881,5.7881,5.7881,5.7881,5.7881,5.7881,5.7881,5.7881,5.7881,5.7881,5.8423,5.9167,5.9877,6.0002,6.0092,6.0788,5.9587,5.8211,5.8211,5.7495,5.6761,5.6761,5.6761,5.6761,5.6567,5.6176,5.578,5.578,5.5481,5.528,5.5179,5.5179,5.5179,5.5179,5.5179,5.5179,5.5179,5.5451,5.572,5.6183,5.7371,5.83,5.8664,5.83,5.7807,5.7086,5.6735,5.6183,5.5179,5.5658,5.6286,5.7094,5.7573,5.8338,5.9606,5.9207,5.9315,5.9606,5.9207,5.9099,5.9099,5.9099,5.9099,5.9099,5.9099,5.9099,5.9099,5.9099,5.9099,5.9099,5.9099,5.9099,5.9099,6.2381,6.2381,6.2381,6.2381,6.2381,6.2381,6.2381,6.2381,6.211,6.1366,6.0588,5.9539,5.8051,5.7881,5.7881,5.7881,5.7881,5.7881,5.7881,5.7881,5.7881,0.0,0.0,5.748,5.6614,5.7406,5.6996,5.528,5.528,5.4819,5.3976,5.3113,5.3608,5.5231,5.4401,5.5442,5.7808,5.692,5.7105,5.7881,5.7881,5.7881,5.7881,5.7881,5.7881,5.7881,5.7881,5.7881,5.7881,5.7881,5.7881,5.7881,5.7881,5.8423,5.9167,5.9877,6.0002,6.0092,6.0788,5.9587,5.8211,5.8211,5.7495,5.6761,5.6761,5.6761,5.6761,5.6761,5.6567,5.6274,5.6077,5.578,5.5481,5.5179,5.5179,5.5179,5.5179,5.5179,5.5179,5.5179,5.6017,5.6183,5.528,5.7022,5.7714,5.6735,5.7559,5.8085,5.8085,5.7181,5.6183,5.5179,5.5209,5.5807,5.7094,5.7094,5.8247,6.0701,5.9606,5.9713,6.0701,5.9606,5.9099,5.9099,5.9099,5.9099,5.9099,5.9099,5.9099,5.9099,5.9099,5.9099,5.9099,5.9099,5.9099,5.9099,6.2381,6.2381,6.2381,6.2381,6.2381,6.2381,6.2381,6.2381,6.2144,6.14,6.1095,6.0351,5.8829,5.8186,5.7881,0.0,5.7881,5.7881,0.0,5.7881,5.7881,5.7881,5.7881,5.7808,5.748,5.7735,5.7331,5.6192,5.5636,5.4569,5.3113,5.2788,5.3055,5.3521,5.3836,5.4787,5.6192,5.6459,5.7105,5.7881,5.7881,5.7881,5.7881,5.7881,5.7881,5.7881,5.7881,5.7881,5.7881,5.7881,5.7881,5.7881,5.7881,5.8761,5.981,6.0047,6.084,6.1648,6.1883,6.1069,5.9968,5.9323,5.8455,5.759,5.6954,5.6761,5.6761,5.6761,5.6567,5.6372,5.6274,5.588,5.5581,5.5481,5.528,5.5179,5.5179,5.5179,5.5179,5.5179,5.5451,5.5551,5.5179,5.6378,5.6896,5.6638,5.8208,5.8483,5.7181,5.6735,5.6183,5.5179,5.5819,5.661,5.7464,5.7922,5.9101,6.1002,6.0486,6.039,6.0701,5.9606,5.9099,5.9099,5.9099,5.9099,5.9099,5.9099,5.9099,5.9099,5.9099,5.9099,5.9099,5.9099,5.9099,5.9159,6.2381,6.2381,6.2381,6.2381,6.2381,6.2381,6.2381,6.2381,6.2212,6.1772,6.1467,6.0926,5.9979,5.9167,0.0,5.7949,5.7881,5.7881,5.7881,5.7881,5.7881,5.7881,5.7881,5.7881,5.7881,5.7881,0.0,5.7105,5.5876,5.4401,5.2698,5.2698,5.2877,5.3201,5.3434,5.4147,5.5312,5.5876,5.6614,5.7406,5.7808,5.7881,5.7881,5.7881,5.7881,5.7881,5.7881,5.7881,5.7881,5.7881,5.7881,5.7881,5.7881,5.8896,6.0114,6.0114,6.1197,6.2381,6.2381,6.1676,6.0736,5.9849,5.8908,5.7933,5.7019,5.6761,5.6761,5.6761,5.6664,5.6567,5.6372,5.6176,5.588,5.5581,5.5481,5.528,5.5179,5.5179,5.5179,5.5179,5.5179,5.5179,5.5179,5.572,5.6085,5.6085,5.7213,5.7559,5.6638,5.7276,5.7117,5.572,5.6638,5.7523,5.8111,5.8892,6.0066,6.1759,6.1873,6.169,6.1286,6.018,5.9683,5.9713,5.9315,5.9099,5.9099,5.9099,5.9099,5.9099,5.9099,5.9099,5.9099,5.9099,5.9099,5.9189,6.2381,6.2381,6.2381,6.2381,6.2381,6.2381,6.2381,6.2381,6.2381,6.2381,6.1806,6.1366,6.1298,6.0622,5.9607,5.8152,0.0,0.0,5.7881,5.7881,5.7881,5.7881,5.7881,5.7881,5.7881,5.7881,5.7808,5.7735,5.6113,5.4401,5.2698,5.2698,5.3201,5.3976,5.3113,5.3695,5.5312,5.5312,5.5796,5.6691,5.7554,5.7881,5.7881,5.7881,5.7881,5.7881,5.7881,5.7881,5.7881,5.7881,5.7881,5.7915,5.7949,5.893,6.0114,6.0114,6.1197,6.2381,6.2381,6.179,6.0903,5.9935,5.8908,5.7933,5.7019,5.6761,5.6761,5.6761,5.6761,5.6761,5.647,5.6372,5.6274,5.578,5.5581,5.5481,5.528,5.5179,5.5179,5.5179,5.5179,5.5179,5.5179,5.5179,5.5179,5.5179,5.528,5.5651,5.6541,5.8483,5.8664,5.6735,5.7652,5.8525,5.9096,5.9918,6.1152,6.289,6.357,6.3388,6.2355,6.1286,6.0774,6.0774,5.9713,5.9207,5.9207,5.9099,5.9099,5.9099,5.9099,5.9099,5.9099,5.9099,5.9099,5.9189,0.0,0.0,6.2381,6.2381,6.2381,6.2381,6.2381,6.2381,6.2381,6.2381,6.2245,6.1907,6.1366,6.1129,6.0622,5.9674,5.9066,5.849,5.7915,5.7881,5.7881,5.7881,5.7881,5.7881,5.7881,5.7881,5.7256,5.5955,5.5474,5.4401,5.2698,5.2698,5.3201,5.3976,5.3113,5.3695,5.5312,5.5312,5.5796,5.6691,5.7554,5.7881,5.7881,5.7881,5.7881,5.7881,5.7881,5.7881,5.7881,5.7881,5.7881,5.7983,5.8558,5.937,6.0114,6.0114,6.1197,6.2381,6.2381,6.2223,6.187,6.0903,5.9411,5.7933,5.7019,5.6761,5.6761,5.6761,5.6761,5.6761,5.6761,5.6567,5.6372,5.6274,5.588,5.5581,5.5481,5.528,5.5179,5.5179,5.5179,5.5179,5.5179,5.5179,5.5179,5.5179,5.5819,5.6378,5.6541,5.8483,5.9024,5.7807,5.8754,5.9298,5.9491,6.0715,6.2095,6.3635,6.3829,6.38,6.3483,6.2386,6.1859,6.1859,6.0805,6.0285,6.0285,5.9392,5.9099,5.9099,5.9099,5.9099,5.9099,5.9099,5.9099,5.9279,6.2448,6.2381,6.2516,6.2854,6.2888,6.3024,6.3362,6.3396,6.3396,6.3396,6.3396,6.326,6.2854,6.2516,6.2009,6.1231,5.9844,5.8829,5.8423,5.8084,5.7881,5.7881,5.7881,5.7881,5.7881,5.7881,5.7072,5.5312,5.5312,5.4401,5.2698,5.2698,5.3201,5.3976,5.3113,5.3434,5.4736,5.5149,5.5555,5.6113,5.7406,5.7881,5.7881,5.7881,5.7881,5.7881,5.7881,5.7881,5.7881,5.7881,5.7881,5.8017,5.8795,5.9505,6.0182,6.0554,6.1467,6.2381,6.2381,6.2381,6.2223,6.1235,5.9935,5.8728,5.818,5.7746,5.7401,5.7401,5.7115,5.6761,5.6761,5.6664,5.6567,5.6372,5.6176,5.588,5.5581,5.5481,5.528,5.5179,5.5179,5.5179,5.5179,5.5179,5.5179,5.5179,5.5651,5.6378,5.7276,5.83,5.8844,5.8754,5.9794,6.0259,6.0259,6.1699,6.2974,6.4087,6.4414,6.4577,6.4545,6.3483,6.2972,6.2972,6.1891,6.1184,6.0701,6.0106,5.9499,5.9099,5.9099,5.9099,5.9099,5.9099,5.9099,5.9308,6.2854,6.2719,6.2922,6.3565,6.3666,6.3903,6.4512,6.4613,6.4613,6.4613,6.4613,6.4613,6.4613,6.4038,6.3396,6.2618,6.0689,5.9438,5.9201,5.849,5.8051,5.8051,5.7949,5.7881,5.7881,5.7881,5.7139,5.5685,5.5685,5.4793,5.3186,5.3063,5.3502,5.4306,5.3321,5.3434,5.4485,5.5231,5.5474,5.5636,5.7256,5.7881,5.7881,5.7881,5.7881,5.7881,5.7881,5.7881,5.7881,5.7881,5.7881,5.8051,5.8896,5.9607,6.0283,6.1197,6.1907,6.2381,6.2381,6.2381,6.2223,6.1235,6.0397,5.9762,5.9587,5.8998,5.8363,5.8211,5.759,5.6954,5.6858,5.6761,5.6761,5.647,5.647,5.6274,5.578,5.5681,5.5481,5.528,5.5179,5.5179,5.5179,5.5179,5.5179,5.5179,5.5179,5.6017,5.7993,5.8085,5.8664,5.9794,6.0633,6.1152,6.1251,6.261,6.3637,6.4399,6.5094,6.5425,6.5425,6.4577,6.4081,6.4081,6.2972,6.199,6.1184,6.0979,6.0285,5.9285,5.9285,5.9207,5.9099,5.9099,5.9099,5.9308,6.4275,6.4275,6.4275,6.441,6.4444,6.4478,6.458,6.4613,6.4613,6.4613,6.4613,6.4613,6.4613,6.4512,6.414,6.3396,6.2448,6.1298,6.0013,5.9235,5.8829,5.8829,5.822,5.7881,5.7881,5.7881,5.7708,5.7351,5.7351,5.6759,5.5569,5.497,5.5121,5.5905,5.4401,5.4736,5.6224,5.6381,5.6381,5.6459,5.748,5.7881,5.7881,5.7881,5.7881,5.7881,5.7881,5.7881,5.7881,5.7881,5.7881,5.8118,5.9505,6.0013,6.0385,6.1806,6.2313,6.2381,6.2381,6.2381,6.2223,6.1235,6.0903,6.0567,5.9762,5.9499,5.9177,5.8363,5.8119,5.7746,5.6954,5.6761,5.6761,5.6761,5.6567,5.6372,5.6274,5.588,5.5581,5.5581,5.528,5.5179,5.5179,5.5179,5.5179,5.5179,5.5179,5.6017,5.7993,5.8085,5.8934,6.0835,6.1002,6.1384,6.198,6.2842,6.3637,6.4399,6.5094,6.5425,6.5425,6.5213,6.5123,6.5123,6.4081,6.3611,6.3292,6.2386,6.1387,6.0494,6.0494,5.9895,5.9099,5.9099,5.9099,5.9308,6.4681,6.4613,6.4715,6.5121,6.5189,6.5324,6.573,6.5797,6.5797,6.5797,6.5797,6.5797,6.5797,6.5425,6.5053,6.4715,6.3666,6.2685,6.1975,6.0486,5.9607,5.9607,5.9268,5.9066,5.9066,5.9066,5.8824,5.827,5.827,5.751,5.6062,5.5746,5.5851,5.608,5.5415,5.541,5.578,5.6784,5.6711,5.6034,5.7331,5.7881,5.7881,5.7881,5.7881,5.7881,5.7881,5.7881,5.7881,5.7881,5.7881,5.8152,5.9641,6.0114,6.0385,6.1941,6.2381,6.2381,6.2381,6.2381,6.2302,6.187,6.1756,6.1595,6.1185,6.0736,6.0194,5.9762,5.8908,5.8026,5.7653,5.7115,5.6761,5.6761,5.6664,5.6567,5.647,5.6176,5.588,5.5581,5.5481,5.5381,5.5179,5.5179,5.5179,5.5179,5.5179,5.6017,5.7993,5.8085,5.9024,6.1002,6.1119,6.1251,6.1583,6.2312,6.304,6.3802,6.4498,6.5061,6.5425,6.5425,6.5425,6.5425,6.4943,6.436,6.3894,6.3388,6.2485,6.1489,6.0877,6.039,5.9895,5.9315,5.9099,5.9249,6.5222,6.5121,6.529,6.5865,6.5967,6.6136,6.6711,6.6812,6.6812,6.6812,6.6812,6.6812,6.6812,6.6305,6.5865,6.5696,6.4512,6.37,6.3531,6.1704,6.0554,6.0385,6.0216,6.0114,6.0114,6.0114,5.9876,5.9385,5.9385,5.861,5.7245,5.7085,5.6989,5.6901,5.6829,5.6531,5.624,5.7503,5.7264,5.6264,5.7473,5.7881,5.7881,5.7881,5.7881,5.7881,5.7881,5.7881,5.7881,5.7881,5.8017,5.8389,5.9674,6.0216,6.0655,6.2009,6.2381,6.2381,6.2381,6.2381,6.2381,6.2381,6.2381,6.2381,6.2381,6.187,6.1235,6.1069,5.9674,5.8455,5.8211,5.7401,5.6761,5.6761,5.6761,5.6761,5.6567,5.647,5.6274,5.588,5.5681,5.5581,5.528,5.528,5.528,5.5179,5.5381,5.628,5.7993,5.8268,5.9234,6.1002,6.1119,6.1119,6.1119,6.1815,6.2543,6.3272,6.4034,6.473,6.5425,6.5425,6.5425,6.5425,6.5425,6.4943,6.4268,6.4268,6.3578,6.2583,6.179,6.1286,6.0979,5.9895,5.9499,5.9482,6.6677,6.6643,6.6677,6.6711,6.6745,6.6745,6.6812,6.6812,6.6812,6.6812,6.6812,6.6812,6.6812,6.6779,6.644,6.5764,6.4986,6.4241,6.3565,6.2685,6.1907,6.1231,6.0486,6.0114,6.0114,6.0114,6.0452,6.112,6.112,6.0952,6.0654,5.9961,5.9663,5.9548,5.8937,5.9006,5.9717,5.9152,5.8815,5.8714,5.8079,5.7881,5.7881,5.7881,5.7881,5.7881,5.7881,5.7881,5.7881,5.7881,5.8355,5.9066,5.9844,6.0622,6.1366,6.2144,6.2381,6.2381,6.2381,6.2381,6.2381,6.2381,6.2381,6.2381,6.2381,6.2381,6.203,6.1152,6.0194,5.9234,5.8395,5.7401,5.6761,5.6761,5.6761,5.6761,5.6761,5.6567,5.6372,5.6372,5.6077,5.588,5.5581,5.5581,5.5481,5.5179,5.6017,5.6991,5.7993,5.8934,5.9968,6.1119,6.1119,6.1119,6.1119,6.1815,6.2543,6.3272,6.4034,6.473,6.5425,6.5425,6.5425,6.5425,6.5425,6.5336,6.5303,6.5303,6.4669,6.38,6.3705,6.31,6.2058,6.0979,6.0598,6.0586,6.6812,6.6812,6.6812,6.6812,6.6812,6.6812,6.6812,6.6812,6.6812,6.6812,6.6812,6.6812,6.6812,6.6812,6.6711,6.6406,6.529,6.4478,6.4208,6.3057,6.2245,6.1975,6.167,6.1535,6.1535,6.1535,6.167,6.1975,6.1975,6.1682,6.0986,6.0721,6.034,5.9716,6.001,5.9811,5.9185,6.0058,5.954,5.8251,5.847,5.8321,5.7881,5.7881,5.7881,5.7881,5.7881,5.7881,5.7881,5.7881,5.8389,5.9133,5.9877,6.0655,6.1434,6.2178,6.2381,6.2381,6.2381,6.2381,6.2381,6.2381,6.2381,6.2381,6.2381,6.2381,6.2302,6.1951,6.1069,6.0397,6.0022,5.8728,5.7653,5.7653,5.7211,5.6761,5.6761,5.6664,5.6567,5.6372,5.6274,5.6176,5.588,5.5681,5.5581,5.5481,5.5651,5.6445,5.7993,5.9587,6.075,6.1119,6.1119,6.1119,6.1119,6.1384,6.2113,6.3272,6.357,6.4299,6.5425,6.5425,6.5425,6.5425,6.5425,6.5425,6.5425,6.5425,6.5123,6.4761,6.4175,6.3705,6.3196,6.209,6.1286,6.0732,6.6812,6.6812,6.6745,6.6508,6.644,6.6373,6.6136,6.6136,6.6136,6.6136,6.6136,6.6136,6.6136,6.6136,6.6136,6.6136,6.4986,6.4241,6.4241,6.3091,6.2381,6.2381,6.2381,6.2381,6.2381,6.2381,6.2381,6.2381,6.2381,6.203,6.1432,6.1432,6.1069,6.0482,6.1152,6.0804,5.9894,6.0863,6.0348,5.8842,5.8942,5.8693,5.822,5.7983,5.7881,5.7881,5.7881,5.7881,5.7915,5.8152,5.8727,5.9471,6.025,6.1028,6.1738,6.2245,6.2381,6.2381,6.2381,6.2381,6.2381,6.2381,6.2381,6.2381,6.2381,6.2381,6.2381,6.2381,6.1676,6.0986,6.0986,5.9674,5.8546,5.8211,5.7653,5.7115,5.6858,5.6761,5.6761,5.6567,5.6567,5.6372,5.6077,5.588,5.5681,5.5481,5.5819,5.6927,5.8934,6.0345,6.1119,6.1119,6.1119,6.1119,6.1119,6.1119,6.1715,6.2941,6.3173,6.3902,6.5094,6.5326,6.5425,6.5425,6.5425,6.5425,6.5425,6.5425,6.5425,6.5336,6.4669,6.436,6.4268,6.3164,6.2386,6.169,6.6812,6.6812,6.6576,6.5831,6.5696,6.5425,6.4715,6.4613,6.4613,6.4613,6.4613,6.4613,6.4613,6.4613,6.4613,6.4613,6.3937,6.3531,6.3497,6.2821,6.2381,6.2381,6.2381,6.2381,6.2381,6.2381,6.2381,6.2381,6.2381,6.2381,6.2381,6.2381,6.2381,6.2381,6.2381,6.2381,6.2347,6.1603,6.1298,6.1163,5.9641,5.9032,5.893,5.8186,5.7915,5.7915,5.7881,5.7881,5.8017,5.8761,5.9505,6.025,6.1061,6.1806,6.2381,6.2381,6.2381,6.2381,6.2381,6.2381,6.2381,6.2381,6.2381,6.2381,6.2381,6.2381,6.2381,6.2381,6.1676,6.0986,6.0986,6.0194,5.9355,5.8363,5.8211,5.784,5.6954,5.6761,5.6761,5.6761,5.6761,5.6567,5.6077,5.5979,5.578,5.528,5.6991,5.8934,6.1002,6.1119,6.1119,6.1119,6.1119,6.1119,6.1119,6.1119,6.145,6.2179,6.2941,6.367,6.4399,6.5094,6.5425,6.5425,6.5425,6.5425,6.5425,6.5425,6.5425,6.5425,6.5425,6.5425,6.5336,6.4268,6.3894,6.38,6.6812,6.6812,6.6745,6.6508,6.6034,6.5628,6.5392,6.4918,6.4613,6.4613,6.4613,6.4613,6.4613,6.4613,6.4613,6.4613,6.3937,6.3294,6.2753,6.2516,6.2381,6.2381,6.2381,6.2381,6.2381,6.2381,6.2381,6.2381,6.2381,6.2381,6.2381,6.2381,6.2381,6.2381,6.2381,6.2381,6.2381,6.2144,6.1772,6.1264,6.0791,6.0283,5.9708,5.8964,5.8693,5.8592,5.8084,5.7881,5.8017,5.8761,5.9505,6.0317,6.1637,6.2212,6.2381,6.2381,6.2381,6.2381,6.2381,6.2381,6.2381,6.2381,6.2381,6.2381,6.2381,6.2381,6.2381,6.2381,6.2223,6.1951,6.1951,6.1268,6.0482,6.0194,5.9088,5.8119,5.784,5.7211,5.6761,5.6761,5.6761,5.6761,5.6567,5.6274,5.5979,5.578,5.7213,5.8664,5.9968,6.0717,6.1119,6.1119,6.1119,6.1119,6.1119,6.1119,6.145,6.2179,6.2941,6.367,6.4399,6.5094,6.5425,6.5425,6.5425,6.5425,6.5425,6.5425,6.5425,6.5425,6.5425,6.5425,6.5303,6.5033,6.4485,6.3894,6.6812,6.6812,6.6711,6.644,6.5764,6.5155,6.4884,6.4208,6.3734,6.3734,6.3734,6.3734,6.3734,6.3734,6.3734,6.3734,6.3328,6.2888,6.2415,6.2381,6.2381,6.2381,6.2381,6.2381,6.2381,6.2381,6.2381,6.2381,6.2381,6.2381,6.2381,6.2381,6.2381,6.2381,6.2381,6.2381,6.2381,6.2381,6.2144,6.1704,6.1434,6.1028,6.0486,5.9742,5.9438,5.9404,5.893,5.8761,5.8896,5.9674,6.0419,6.1163,6.211,6.2381,6.2381,6.2381,6.2381,6.2381,6.2381,6.2381,6.2381,6.2381,6.2381,6.2381,6.2381,6.2381,6.2381,6.2381,6.2381,6.2381,6.2381,6.1951,6.1432,6.1069,6.0022,5.9177,5.8818,5.7933,5.7401,5.7401,5.705,5.6761,5.6664,5.6372,5.6342,5.6957,5.7746,5.8844,6.0173,6.0802,6.1169,6.1119,6.1119,6.1119,6.1119,6.1119,6.1318,6.1748,6.2477,6.3239,6.3968,6.4697,6.516,6.5425,6.5425,6.5425,6.5425,6.5425,6.5425,6.5425,6.5425,6.5425,6.5425,6.5425,6.5033,6.4453,6.6812,6.6812,6.6609,6.5899,6.5189,6.4444,6.3734,6.2956,6.2448,6.2415,6.2381,6.2381,6.2381,6.2381,6.2381,6.2381,6.2381,6.2381,6.2381,6.2381,6.2381,6.2381,6.2381,6.2381,6.2381,6.2381,6.2381,6.2381,6.2381,6.2381,6.2381,6.2381,6.2381,6.2381,6.2381,6.2381,6.2381,6.2381,6.2381,6.2347,6.167,6.14,6.1298,6.052,6.0216,6.0216,6.0148,6.0114,6.0216,6.1028,6.1772,6.2381,6.2381,6.2381,6.2381,6.2381,6.2381,6.2381,6.2381,6.2381,6.2381,6.2381,6.2381,6.2381,6.2381,6.2381,6.2381,6.2381,6.2381,6.2381,6.2381,6.2381,6.211,6.1235,6.1069,6.0736,5.9849,5.8818,5.8211,5.8211,5.7401,5.6664,5.647,5.647,5.7084,5.8391,5.8542,5.9346,6.1086,6.1334,6.1334,6.1086,6.1119,6.1119,6.1119,6.1119,6.1119,6.1119,6.1848,6.2577,6.3305,6.4034,6.4763,6.5425,6.5425,6.5425,6.5425,6.5425,6.5425,6.5425,6.5425,6.5425,6.5425,6.5425,6.5425,6.5425,6.6914,6.6812,6.6779,6.6609,6.5933,6.5189,6.4478,6.3734,6.3057,6.2482,6.2381,6.2381,6.2381,6.2381,6.2381,6.2381,6.2381,6.2381,6.2381,6.2381,6.2381,6.2381,6.2381,6.2381,6.2381,6.2381,6.2381,6.2381,6.2381,6.2381,6.2381,6.2381,6.2381,6.2381,6.2381,6.2381,6.2381,6.2381,6.2381,6.2381,6.2212,6.2144,6.2076,6.1332,6.1028,6.096,6.0317,6.0114,6.0216,6.1028,6.1772,6.2381,6.2381,6.2381,6.2381,6.2381,6.2381,6.2381,6.2381,6.2381,6.2381,6.2381,6.2381,6.2381,6.2381,6.2381,6.2381,6.2381,6.2381,6.2381,6.2381,6.2381,6.2302,6.2144,6.1513,6.0903,6.0736,5.9266,5.8211,5.8211,5.7401,5.6761,5.6761,5.718,5.787,5.8632,5.9402,6.0332,6.1465,6.1465,6.1383,6.1334,6.1169,6.1119,6.1119,6.1119,6.1119,6.1119,6.1848,6.2577,6.3305,6.4034,6.4763,6.5425,6.5425,6.5425,6.5425,6.5425,6.5425,6.5425,6.5425,6.5425,6.5425,6.5425,6.5425,6.5425,6.7421,6.7049,6.6812,6.6812,6.6203,6.5561,6.5189,6.4208,6.3362,6.299,6.2618,6.2381,6.2381,6.2381,6.2381,6.2381,6.2381,6.2381,6.2381,6.2381,6.2381,6.2381,6.2381,6.2381,6.2381,6.2381,6.2381,6.2381,6.2381,6.2381,6.2381,6.2381,6.2381,6.2381,6.2381,6.2381,6.2381,6.2381,6.2381,6.2381,6.2381,6.2381,6.2347,6.1975,6.1806,6.1772,6.1332,6.1197,6.1264,6.167,6.2076,6.2381,6.2381,6.2381,6.2381,6.2381,6.2381,6.2381,6.2381,6.2381,6.2381,6.2381,6.2381,6.2381,6.2381,6.2381,6.2381,6.2381,6.2381,6.2381,6.2381,6.2381,6.2381,6.2381,6.1951,6.1676,6.1676,6.0482,5.9531,5.9531,5.8728,5.8087,5.8087,5.8332,5.8844,5.961,6.0128,6.0787,6.1628,6.1628,6.1465,6.1383,6.1169,6.1119,6.1119,6.1119,6.1119,6.1119,6.1483,6.2245,6.3272,6.367,6.4432,6.5425,6.5425,6.5425,6.5425,6.5425,6.5425,6.5425,6.5425,6.5425,6.5425,6.5425,6.5425,6.5425,6.7963,6.7421,6.6948,6.6846,6.6305,6.5831,6.5696,6.4546,6.3666,6.3531,6.2854,6.2381,6.2381,6.2381,6.2381,6.2381,6.2381,6.2381,6.2381,6.2381,6.2381,6.2381,6.2381,6.2381,6.2381,6.2381,6.2381,6.2381,6.2381,6.2381,6.2381,6.2381,6.2381,6.2381,6.2381,6.2381,6.2381,6.2381,6.2381,6.2381,6.2381,6.2381,6.2381,6.2381,6.2381,6.2381,6.2381,6.2381,6.2381,6.2381,6.2381,6.2381,6.2381,6.2381,6.2381,6.2381,6.2381,6.2381,6.2381,6.2381,6.2381,6.2381,6.2381,6.2381,6.2381,6.2381,6.2381,6.2381,6.2381,6.2381,6.2381,6.2381,6.2381,6.2381,6.2381,6.2381,6.2381,6.1595,6.0986,6.0986,6.0194,5.9587,5.9587,5.9587,5.9816,6.0619,6.0787,6.1152,6.179,6.179,6.1628,6.1465,6.1252,6.1086,6.1119,6.1119,6.1119,6.1119,6.1119,6.1815,6.3107,6.3206,6.4001,6.526,6.5359,6.5425,6.5425,6.5425,6.5425,6.5425,6.5425,6.5425,6.5425,6.5425,6.5425,6.5425,6.8166,6.7827,6.7557,6.6914,6.6745,6.644,6.5797,6.4986,6.4241,6.3599,6.2854,6.2381,6.2381,6.2381,6.2381,6.2381,6.2381,6.2381,6.2381,6.2381,6.2381,6.2381,6.2381,6.2381,6.2381,6.2381,6.2381,6.2381,6.2381,6.2381,6.2381,6.2381,6.2381,6.2381,6.2381,6.2381,6.2381,6.2381,6.2381,6.2381,6.2381,6.2381,6.2381,6.2381,6.2381,6.2381,6.2381,6.2381,6.2381,6.2381,6.2381,6.2381,6.2381,6.2381,6.2381,6.2381,6.2381,6.2381,6.2381,6.2381,6.2381,6.2381,6.2381,6.2381,6.2381,6.2381,6.2381,6.2381,6.2381,6.2381,6.2381,6.2381,6.2381,6.2381,6.2381,6.2381,6.2381,6.1595,6.0986,6.0986,6.0194,5.9587,5.9587,6.0279,6.082,6.0903,6.1676,6.2223,6.2302,6.211,6.1837,6.1628,6.1465,6.1252,6.1119,6.1119,6.1119,6.1119,6.1119,6.155,6.2345,6.2974,6.3736,6.4564,6.516,6.5425,6.5425,6.5425,6.5425,6.5425,6.5425,6.5425,6.5425,6.5425,6.5425,6.5425,6.9316,6.847,6.7793,6.7489,6.7083,6.6711,6.6373,6.5696,6.4952,6.4208,6.3463,6.2854,6.2415,6.2381,6.2381,6.2381,6.2381,6.2381,6.2381,6.2381,6.2381,6.2381,6.2381,6.2381,6.2381,6.2381,6.2381,6.2381,6.2381,6.2381,6.2381,6.2381,6.2381,6.2381,6.2381,6.2381,6.2381,6.2381,6.2381,6.2381,6.2381,6.2381,6.2381,6.2381,6.2381,6.2381,6.2381,6.2381,6.2381,6.2381,6.2381,6.2381,6.2381,6.2381,6.2381,6.2381,6.2381,6.2381,6.2381,6.2381,6.2381,6.2381,6.2381,6.2381,6.2381,6.2381,6.2381,6.2381,6.2381,6.2381,6.2381,6.2381,6.2381,6.2381,6.2381,6.2381,6.2381,6.203,6.179,6.179,6.1432,6.1152,6.1152,6.1513,6.179,6.179,6.2144,6.2381,6.2381,6.2189,6.1917,6.1709,6.1465,6.1334,6.1119,6.1119,6.1119,6.1119,6.1119,6.1483,6.2212,6.2941,6.367,6.4432,6.5127,6.5425,6.5425,6.5425,6.5425,6.5425,6.5425,6.5425,6.5425,6.5425,6.5425,6.5425]},{"header":{"parameterUnit":"m.s-1","parameterCategory":1,"la1":30.6,"la2":28.766,"lo1":-90.7593,"lo2":-88.6598,"dy":0.0162,"dx":0.0183,"nx":116,"ny":114,"refTime":"2023-10-10T00:00:00:Z","depth":0,"parameterNumber":3,"parameterNumberName":"V-component_of_WINDS"},"data":[0.0,0.0,0.0,0.0,0.0,0.0,0.0,0.0,0.0,0.0,0.0,0.0,0.0,0.0,0.0,0.0,0.0,0.0,0.0,0.0,0.0,0.0,0.0,0.0,0.0,0.0,0.0,0.0,0.0,0.0,0.0,0.0,0.0,0.0,0.0,0.0,0.0,0.0,0.0,0.0,0.0,0.0,0.0,0.0,0.0,0.0,0.0,0.0,0.0,0.0,0.0,0.0,0.0,0.0,0.0,0.0,0.0,0.0,0.0,0.0,0.0,0.0,0.0,0.0,0.0,0.0,0.0,0.0,0.0,0.0,0.0,0.0,0.0,0.0,0.0,0.0,0.0,0.0,0.0,0.0,0.0,0.0,0.0,0.0,0.0,0.0,0.0,0.0,0.0,0.0,0.0,0.0,0.0,0.0,0.0,0.0,0.0,0.0,0.0,0.0,0.0,0.0,0.0,0.0,0.0,0.0,0.0,0.0,0.0,0.0,0.0,0.0,0.0,0.0,0.0,0.0,0.0,0.0,0.0,0.0,0.0,0.0,0.0,0.0,0.0,0.0,0.0,0.0,0.0,0.0,0.0,0.0,0.0,0.0,0.0,0.0,0.0,0.0,0.0,0.0,0.0,0.0,0.0,0.0,0.0,0.0,0.0,0.0,0.0,0.0,0.0,0.0,0.0,0.0,0.0,0.0,0.0,0.0,0.0,0.0,0.0,0.0,0.0,0.0,0.0,0.0,0.0,0.0,0.0,0.0,0.0,0.0,0.0,0.0,0.0,0.0,0.0,0.0,0.0,0.0,0.0,0.0,0.0,0.0,0.0,0.0,0.0,0.0,0.0,0.0,0.0,0.0,0.0,0.0,0.0,0.0,0.0,0.0,0.0,0.0,0.0,0.0,0.0,0.0,0.0,0.0,0.0,0.0,0.0,0.0,0.0,0.0,0.0,0.0,0.0,0.0,0.0,0.0,0.0,0.0,0.0,0.0,0.0,0.0,0.0,0.0,0.0,0.0,0.0,0.0,0.0,0.0,0.0,0.0,0.0,0.0,0.0,0.0,0.0,0.0,0.0,0.0,0.0,0.0,0.0,0.0,0.0,0.0,0.0,0.0,0.0,0.0,0.0,0.0,0.0,0.0,0.0,0.0,0.0,0.0,0.0,0.0,0.0,0.0,0.0,0.0,0.0,0.0,0.0,0.0,0.0,0.0,0.0,0.0,0.0,0.0,0.0,0.0,0.0,0.0,0.0,0.0,0.0,0.0,0.0,0.0,0.0,0.0,0.0,0.0,0.0,0.0,0.0,0.0,0.0,0.0,0.0,0.0,0.0,0.0,0.0,0.0,0.0,0.0,0.0,0.0,0.0,0.0,0.0,0.0,0.0,0.0,0.0,0.0,0.0,0.0,0.0,0.0,0.0,0.0,0.0,0.0,0.0,0.0,0.0,0.0,0.0,0.0,0.0,0.0,0.0,0.0,0.0,0.0,0.0,0.0,0.0,0.0,0.0,0.0,0.0,0.0,0.0,0.0,0.0,0.0,0.0,0.0,0.0,0.0,0.0,0.0,0.0,0.0,0.0,0.0,0.0,0.0,0.0,0.0,0.0,0.0,0.0,0.0,0.0,0.0,0.0,0.0,0.0,0.0,0.0,0.0,0.0,0.0,0.0,0.0,0.0,0.0,0.0,0.0,0.0,0.0,0.0,0.0,0.0,0.0,0.0,0.0,0.0,0.0,0.0,0.0,0.0,0.0,0.0,0.0,0.0,0.0,0.0,0.0,0.0,0.0,0.0,0.0,0.0,0.0,0.0,0.0,0.0,0.0,0.0,0.0,0.0,0.0,0.0,0.0,0.0,0.0,0.0,0.0,0.0,0.0,0.0,0.0,0.0,0.0,0.0,0.0,0.0,0.0,0.0,0.0,0.0,0.0,0.0,0.0,0.0,0.0,0.0,0.0,0.0,0.0,0.0,0.0,0.0,0.0,0.0,0.0,0.0,0.0,0.0,0.0,0.0,0.0,0.0,0.0,0.0,0.0,0.0,0.0,0.0,0.0,0.0,0.0,0.0,0.0,0.0,0.0,0.0,0.0,0.0,0.0,0.0,0.0,0.0,0.0,0.0,0.0,0.0,0.0,0.0,0.0,0.0,0.0,0.0,0.0,0.0,0.0,0.0,0.0,0.0,0.0,0.0,0.0,0.0,0.0,0.0,0.0,0.0,0.0,0.0,0.0,0.0,0.0,0.0,0.0,0.0,0.0,0.0,0.0,0.0,0.0,0.0,0.0,0.0,0.0,0.0,0.0,0.0,0.0,0.0,0.0,0.0,0.0,0.0,0.0,0.0,0.0,0.0,0.0,0.0,0.0,0.0,0.0,0.0,0.0,0.0,0.0,0.0,0.0,0.0,0.0,0.0,0.0,0.0,0.0,0.0,0.0,0.0,0.0,0.0,0.0,0.0,0.0,0.0,0.0,0.0,0.0,0.0,0.0,0.0,0.0,0.0,0.0,0.0,0.0,0.0,0.0,0.0,0.0,0.0,0.0,0.0,0.0,0.0,0.0,0.0,0.0,0.0,0.0,0.0,0.0,0.0,0.0,0.0,0.0,0.0,0.0,0.0,0.0,0.0,0.0,0.0,0.0,0.0,0.0,0.0,0.0,0.0,0.0,0.0,0.0,0.0,0.0,0.0,0.0,0.0,0.0,0.0,0.0,0.0,0.0,0.0,0.0,0.0,0.0,0.0,0.0,0.0,0.0,0.0,0.0,0.0,0.0,0.0,0.0,0.0,0.0,0.0,0.0,0.0,0.0,0.0,0.0,0.0,0.0,0.0,0.0,0.0,0.0,0.0,0.0,0.0,0.0,0.0,0.0,0.0,0.0,0.0,0.0,0.0,0.0,0.0,0.0,0.0,0.0,0.0,0.0,0.0,0.0,0.0,0.0,0.0,0.0,0.0,0.0,0.0,0.0,0.0,0.0,0.0,0.0,0.0,0.0,0.0,0.0,0.0,0.0,0.0,0.0,0.0,0.0,0.0,0.0,0.0,0.0,0.0,0.0,0.0,0.0,0.0,0.0,0.0,0.0,0.0,0.0,0.0,0.0,0.0,0.0,0.0,0.0,0.0,0.0,0.0,0.0,0.0,0.0,0.0,0.0,0.0,0.0,0.0,0.0,0.0,0.0,0.0,0.0,0.0,0.0,0.0,0.0,0.0,0.0,0.0,0.0,0.0,0.0,0.0,0.0,0.0,0.0,0.0,0.0,0.0,0.0,0.0,0.0,0.0,0.0,0.0,0.0,0.0,0.0,0.0,0.0,0.0,0.0,0.0,0.0,0.0,0.0,0.0,0.0,0.0,0.0,0.0,0.0,0.0,0.0,0.0,0.0,0.0,0.0,0.0,0.0,0.0,0.0,0.0,0.0,0.0,0.0,0.0,0.0,0.0,0.0,0.0,0.0,0.0,0.0,0.0,0.0,0.0,0.0,0.0,0.0,0.0,0.0,0.0,0.0,0.0,0.0,0.0,0.0,0.0,0.0,0.0,0.0,0.0,0.0,0.0,0.0,0.0,0.0,0.0,0.0,0.0,0.0,0.0,0.0,0.0,0.0,0.0,0.0,0.0,0.0,0.0,0.0,0.0,0.0,0.0,0.0,0.0,0.0,0.0,0.0,0.0,0.0,0.0,0.0,0.0,0.0,0.0,0.0,0.0,0.0,0.0,0.0,0.0,0.0,0.0,0.0,0.0,0.0,0.0,0.0,0.0,0.0,0.0,0.0,0.0,0.0,0.0,0.0,0.0,0.0,0.0,0.0,0.0,0.0,0.0,0.0,0.0,0.0,0.0,0.0,0.0,0.0,0.0,0.0,0.0,0.0,0.0,0.0,0.0,0.0,0.0,0.0,0.0,0.0,0.0,0.0,0.0,0.0,0.0,0.0,0.0,0.0,0.0,0.0,0.0,0.0,0.0,0.0,0.0,0.0,0.0,0.0,0.0,0.0,0.0,0.0,0.0,0.0,0.0,0.0,0.0,0.0,0.0,0.0,0.0,0.0,0.0,0.0,0.0,0.0,0.0,0.0,0.0,0.0,0.0,0.0,0.0,0.0,0.0,0.0,0.0,0.0,0.0,0.0,0.0,0.0,0.0,0.0,0.0,0.0,0.0,0.0,0.0,0.0,0.0,0.0,0.0,0.0,0.0,0.0,0.0,0.0,0.0,0.0,0.0,0.0,0.0,0.0,0.0,0.0,0.0,0.0,0.0,0.0,0.0,0.0,0.0,0.0,0.0,0.0,0.0,0.0,0.0,0.0,0.0,0.0,0.0,0.0,0.0,0.0,0.0,0.0,0.0,0.0,0.0,0.0,0.0,0.0,0.0,0.0,0.0,0.0,0.0,0.0,0.0,0.0,0.0,0.0,0.0,0.0,0.0,0.0,0.0,0.0,0.0,0.0,0.0,0.0,0.0,0.0,0.0,0.0,0.0,0.0,0.0,0.0,0.0,0.0,0.0,0.0,0.0,0.0,0.0,0.0,0.0,0.0,0.0,0.0,0.0,0.0,0.0,0.0,0.0,0.0,0.0,0.0,0.0,0.0,0.0,0.0,0.0,0.0,0.0,0.0,0.0,0.0,0.0,0.0,0.0,0.0,0.0,0.0,0.0,0.0,0.0,0.0,0.0,0.0,0.0,0.0,0.0,0.0,0.0,0.0,0.0,0.0,0.0,0.0,0.0,0.0,0.0,0.0,0.0,0.0,0.0,0.0,0.0,0.0,0.0,0.0,0.0,0.0,0.0,0.0,0.0,0.0,0.0,0.0,0.0,0.0,0.0,0.0,0.0,0.0,0.0,0.0,0.0,0.0,0.0,0.0,0.0,0.0,0.0,0.0,0.0,0.0,0.0,0.0,0.0,0.0,0.0,0.0,0.0,0.0,0.0,0.0,0.0,0.0,0.0,0.0,0.0,0.0,0.0,0.0,0.0,0.0,0.0,0.0,0.0,0.0,0.0,0.0,0.0,0.0,0.0,0.0,0.0,0.0,0.0,0.0,0.0,0.0,0.0,0.0,0.0,0.0,0.0,0.0,0.0,0.0,0.0,0.0,0.0,0.0,0.0,0.0,0.0,0.0,0.0,0.0,0.0,0.0,0.0,0.0,0.0,0.0,0.0,0.0,0.0,0.0,0.0,0.0,0.0,0.0,0.0,0.0,0.0,0.0,0.0,0.0,0.0,0.0,0.0,0.0,0.0,0.0,0.0,0.0,0.0,0.0,0.0,0.0,0.0,0.0,0.0,0.0,0.0,0.0,0.0,0.0,0.0,0.0,0.0,0.0,0.0,0.0,0.0,0.0,0.0,0.0,0.0,0.0,0.0,0.0,0.0,0.0,0.0,0.0,0.0,0.0,0.0,0.0,0.0,0.0,0.0,0.0,0.0,0.0,0.0,0.0,0.0,0.0,0.0,0.0,0.0,0.0,0.0,0.0,0.0,0.0,0.0,0.0,0.0,0.0,0.0,0.0,0.0,0.0,0.0,0.0,0.0,0.0,0.0,0.0,0.0,0.0,0.0,0.0,0.0,0.0,0.0,0.0,0.0,0.0,0.0,0.0,0.0,0.0,0.0,0.0,0.0,0.0,0.0,0.0,0.0,0.0,0.0,0.0,0.0,0.0,0.0,0.0,0.0,0.0,0.0,0.0,0.0,0.0,0.0,0.0,0.0,0.0,0.0,0.0,0.0,0.0,0.0,0.0,0.0,0.0,0.0,0.0,0.0,0.0,0.0,0.0,0.0,0.0,0.0,0.0,0.0,0.0,0.0,0.0,0.0,0.0,0.0,0.0,0.0,0.0,0.0,0.0,0.0,0.0,0.0,0.0,0.0,0.0,0.0,0.0,0.0,0.0,0.0,0.0,0.0,0.0,0.0,0.0,0.0,0.0,0.0,0.0,0.0,0.0,0.0,0.0,0.0,0.0,0.0,0.0,0.0,0.0,0.0,0.0,0.0,0.0,0.0,0.0,0.0,0.0,0.0,0.0,0.0,0.0,0.0,0.0,0.0,0.0,0.0,0.0,0.0,0.0,0.0,0.0,0.0,0.0,0.0,0.0,0.0,0.0,0.0,0.0,0.0,0.0,-4.5605,0.0,0.0,0.0,0.0,0.0,0.0,0.0,0.0,0.0,0.0,0.0,0.0,0.0,0.0,0.0,0.0,0.0,0.0,0.0,0.0,0.0,0.0,0.0,0.0,0.0,0.0,0.0,0.0,0.0,0.0,0.0,0.0,0.0,0.0,0.0,0.0,0.0,0.0,0.0,-3.9697,-3.9697,-3.9697,-3.9697,-3.9697,-3.9697,0.0,0.0,0.0,0.0,0.0,0.0,0.0,0.0,0.0,0.0,0.0,0.0,0.0,0.0,0.0,0.0,0.0,0.0,0.0,0.0,0.0,0.0,0.0,0.0,0.0,0.0,0.0,0.0,0.0,0.0,0.0,0.0,0.0,0.0,0.0,0.0,0.0,0.0,0.0,0.0,0.0,0.0,0.0,0.0,0.0,0.0,0.0,0.0,0.0,0.0,0.0,0.0,0.0,0.0,0.0,0.0,0.0,0.0,0.0,0.0,0.0,0.0,0.0,0.0,0.0,0.0,0.0,0.0,0.0,0.0,0.0,-4.5895,0.0,0.0,0.0,0.0,0.0,0.0,0.0,0.0,0.0,0.0,0.0,0.0,0.0,0.0,0.0,0.0,0.0,0.0,0.0,0.0,0.0,0.0,0.0,-3.9697,-3.9697,-3.9697,-3.9697,-3.9697,0.0,0.0,0.0,0.0,0.0,0.0,0.0,-3.9697,-3.9697,-3.9697,-3.9697,-3.9697,-3.9697,-3.9697,-3.9697,-3.9697,-3.9697,0.0,0.0,0.0,0.0,0.0,0.0,0.0,0.0,0.0,0.0,0.0,0.0,0.0,0.0,0.0,0.0,0.0,0.0,0.0,0.0,0.0,0.0,0.0,0.0,0.0,0.0,0.0,0.0,0.0,0.0,0.0,0.0,0.0,0.0,0.0,0.0,0.0,0.0,0.0,0.0,0.0,0.0,0.0,0.0,0.0,0.0,0.0,0.0,0.0,0.0,0.0,0.0,0.0,0.0,0.0,0.0,0.0,0.0,0.0,0.0,0.0,0.0,0.0,-4.5895,-4.5895,-4.5895,-4.6046,-4.6046,-4.6046,-4.6225,-4.6135,-4.6046,-4.6225,0.0,0.0,0.0,0.0,0.0,0.0,0.0,0.0,0.0,0.0,0.0,0.0,0.0,0.0,0.0,0.0,0.0,0.0,0.0,0.0,0.0,-3.9697,-3.9697,-3.9697,-3.9697,-3.9697,-3.9697,0.0,0.0,0.0,0.0,0.0,-3.9697,-3.9697,-3.9697,-3.9697,-3.9697,-3.9697,-3.9697,-3.9697,-3.9697,-3.9697,-3.9697,-3.9697,-3.9697,0.0,0.0,0.0,0.0,0.0,0.0,0.0,0.0,0.0,0.0,0.0,0.0,0.0,0.0,0.0,0.0,0.0,0.0,0.0,0.0,0.0,0.0,0.0,0.0,0.0,0.0,0.0,0.0,0.0,0.0,0.0,0.0,0.0,0.0,0.0,0.0,0.0,0.0,0.0,0.0,0.0,-4.5689,-4.5866,0.0,0.0,0.0,0.0,0.0,0.0,0.0,0.0,0.0,0.0,0.0,0.0,0.0,-4.5895,-4.5895,-4.5895,-4.5895,-4.5895,-4.5895,-4.5895,-4.5895,-4.6491,-4.6756,-4.6844,-4.7392,0.0,-4.6844,-4.7422,0.0,0.0,0.0,0.0,0.0,0.0,0.0,0.0,0.0,0.0,0.0,0.0,0.0,0.0,0.0,0.0,0.0,0.0,0.0,0.0,0.0,-3.9697,-3.9697,-3.9697,-3.9697,-3.9697,-3.9697,-3.9697,0.0,0.0,0.0,-3.9697,-3.9697,-3.9697,-3.9697,-3.9697,-3.9697,-3.9697,-3.9697,-3.9697,-3.9697,-3.9697,-3.9697,-3.9697,-3.9697,-3.9697,0.0,0.0,0.0,0.0,0.0,0.0,0.0,0.0,0.0,0.0,0.0,0.0,0.0,0.0,0.0,0.0,0.0,0.0,0.0,0.0,0.0,0.0,0.0,0.0,0.0,0.0,0.0,0.0,0.0,0.0,0.0,0.0,0.0,0.0,0.0,0.0,0.0,0.0,0.0,-4.5895,-4.6011,-4.6388,-4.6417,-4.6417,0.0,0.0,0.0,0.0,0.0,0.0,0.0,0.0,0.0,-4.5895,-4.6243,-4.6417,-4.6417,-4.6766,-4.694,-4.694,-4.7398,-4.758,-4.758,-4.8356,-4.8621,-4.8709,-4.9371,-4.9488,-4.9169,-4.8207,-4.7976,-4.8079,0.0,0.0,0.0,0.0,-4.8621,-4.8709,0.0,0.0,0.0,0.0,0.0,0.0,0.0,0.0,0.0,0.0,0.0,0.0,-3.9697,-3.9697,-3.9697,-3.9697,-3.9697,-3.9697,-3.9697,-3.9697,-3.9697,0.0,-3.9697,-3.9697,-3.9697,-3.9697,-3.9697,-3.9697,-3.9697,-3.9697,-3.9697,-3.9697,-3.9697,-3.9697,-3.9697,-3.9697,-3.9697,-3.9697,-3.9697,-3.9697,0.0,0.0,0.0,0.0,0.0,0.0,0.0,0.0,0.0,0.0,0.0,0.0,0.0,0.0,0.0,0.0,0.0,0.0,0.0,0.0,0.0,0.0,0.0,0.0,0.0,0.0,0.0,0.0,0.0,0.0,0.0,0.0,0.0,0.0,0.0,0.0,0.0,-4.6272,-4.6534,-4.7027,-4.6911,-4.6824,0.0,0.0,0.0,0.0,0.0,0.0,-4.6127,-4.6127,-4.6214,-4.6359,-4.6824,-4.7177,-4.7332,-4.78,-4.8155,-4.8404,-4.8953,-4.9224,-4.9224,-4.9907,-5.0258,-5.0258,-5.0979,-5.1234,-5.1172,-4.9612,-4.9151,-4.9555,-4.9438,-4.9657,-4.9995,-5.0171,-5.0258,-5.0345,0.0,0.0,0.0,0.0,0.0,0.0,0.0,0.0,0.0,0.0,0.0,-3.9697,-3.9697,-3.9697,-3.9697,-3.9697,-3.9697,-3.9697,-3.9697,-3.9697,-3.9697,-3.9697,-3.9697,-3.9697,-3.9697,-3.9697,-3.9697,-3.9697,-3.9697,-3.9697,-3.9697,-3.9697,-3.9697,-3.9697,-3.9697,-3.9697,-3.9697,-3.9697,-3.9697,-3.9697,-3.9697,0.0,0.0,0.0,0.0,0.0,0.0,0.0,0.0,0.0,0.0,0.0,0.0,0.0,0.0,0.0,0.0,0.0,0.0,0.0,0.0,0.0,0.0,0.0,0.0,0.0,0.0,0.0,0.0,0.0,0.0,0.0,0.0,0.0,0.0,0.0,0.0,0.0,0.0,-4.7724,-4.7201,0.0,0.0,0.0,0.0,-4.6135,-4.5956,-4.6156,-4.6737,-4.6766,-4.7056,-4.7666,-4.7724,-4.8097,-4.8832,-4.8862,-4.9224,-4.9907,-4.9907,-4.9907,-4.9995,-5.0636,-5.0979,-5.0979,-5.1654,-5.1935,-5.1903,-5.184,-5.1424,-5.0948,-5.0948,-5.0519,-5.0083,-5.0722,-5.0979,-5.1064,0.0,0.0,0.0,0.0,0.0,0.0,0.0,0.0,-3.9697,-3.9697,-3.9697,-3.9697,-3.9697,-3.9697,-3.9697,-3.9697,-3.9697,-3.9697,-3.9697,-3.9697,-3.9697,-3.9697,-3.9697,-3.9697,-3.9697,-3.9697,-3.9697,-3.9697,-3.9697,-3.9697,-3.9697,-3.9697,-3.9697,-3.9697,-3.9697,-3.9697,-3.9697,-3.9697,-3.9697,-3.9697,-3.9697,-3.9697,0.0,0.0,0.0,0.0,0.0,0.0,0.0,0.0,0.0,0.0,0.0,0.0,0.0,0.0,0.0,0.0,0.0,0.0,0.0,0.0,0.0,0.0,0.0,0.0,0.0,0.0,0.0,0.0,0.0,0.0,0.0,0.0,0.0,0.0,0.0,0.0,0.0,-4.8333,-4.8188,0.0,-4.8166,-4.784,-4.755,-4.7207,-4.7177,-4.7201,-4.7433,-4.7433,-4.755,-4.7782,-4.8188,-4.8486,-4.877,-4.9622,-5.0296,-5.0573,-5.1483,-5.1929,-5.1929,-5.2629,-5.3004,-5.3004,-5.326,-5.3344,-5.3344,-5.3344,-5.2923,-5.2376,-5.2376,-5.2457,-5.2629,-5.2918,-5.3004,-5.3004,0.0,0.0,0.0,0.0,0.0,0.0,0.0,0.0,-3.9697,-3.9697,-3.9697,-3.9697,-3.9697,-3.9697,-3.9697,-3.9697,-3.9697,-3.9697,-3.9697,-3.9697,-3.9697,-3.9697,-3.9697,-3.9697,-3.9697,-3.9697,-3.9697,-3.9697,-3.9697,-3.9697,-3.9697,-3.9697,-3.9697,-3.9697,-3.9697,-3.9697,-3.9697,-3.9697,-3.9697,-3.9697,-3.9697,-3.9697,-3.9697,0.0,0.0,0.0,0.0,0.0,0.0,0.0,0.0,0.0,0.0,0.0,0.0,0.0,0.0,0.0,0.0,0.0,0.0,0.0,0.0,0.0,0.0,0.0,0.0,0.0,0.0,0.0,0.0,0.0,0.0,0.0,0.0,0.0,0.0,0.0,-4.8566,-4.9001,-4.8856,-4.8711,-4.8711,-4.8537,-4.8217,-4.7811,-4.7782,-4.7869,-4.8072,-4.8101,-4.8283,-4.877,-4.9209,-4.9698,-5.0139,-5.1053,-5.1635,-5.1911,-5.2905,-5.3377,-5.3377,-5.3899,-5.4103,-5.4103,-5.4103,-5.4103,-5.4103,-5.4103,-5.385,-5.3439,-5.3439,-5.3724,-5.4103,-5.4103,-5.4103,-5.4103,0.0,0.0,0.0,0.0,0.0,0.0,0.0,-3.9697,-3.9697,-3.9697,-3.9697,-3.9697,-3.9697,-3.9697,-3.9697,-3.9697,-3.9697,-3.9697,-3.9697,-3.9697,-3.9697,-3.9697,-3.9697,-3.9697,-3.9697,-3.9697,-3.9697,-3.9697,-3.9697,-3.9697,-3.9697,-3.9697,-3.9697,-3.9697,-3.9697,-3.9697,-3.9697,-3.9697,-3.9697,-3.9697,-3.9697,-3.9697,-3.9697,0.0,0.0,0.0,0.0,0.0,0.0,0.0,0.0,0.0,0.0,0.0,0.0,0.0,0.0,0.0,0.0,0.0,0.0,0.0,0.0,0.0,0.0,0.0,0.0,0.0,0.0,0.0,0.0,0.0,0.0,0.0,0.0,0.0,-4.8827,-4.9291,-4.9669,-4.9669,-4.9117,-4.874,-4.874,-4.8188,-4.784,-4.784,-4.784,-4.8101,-4.8711,-4.874,-4.9413,-5.0793,-5.0793,-5.1542,-5.2935,-5.3024,-5.3377,-5.4103,-5.4103,-5.4103,-5.4103,-5.4103,-5.4103,-5.4103,-5.4103,-5.4103,-5.4103,-5.4103,-5.4103,-5.4103,-5.4103,-5.4103,-5.4103,-5.4103,-5.4103,-5.4103,0.0,0.0,0.0,0.0,0.0,0.0,0.0,-3.9697,-3.9697,-3.9697,-3.9697,-3.9697,-3.9697,-3.9697,-3.9697,-3.9697,-3.9697,-3.9697,-3.9697,-3.9697,-3.9697,-3.9697,-3.9697,-3.9697,-3.9697,-3.9697,-3.9697,-3.9697,-3.9697,-3.9697,-3.9697,-3.9697,-3.9697,-3.9697,-3.9697,-3.9594,-3.9362,-3.9594,-3.9594,-3.9465,-3.9594,-3.9697,-3.9697,0.0,0.0,0.0,0.0,0.0,0.0,0.0,0.0,0.0,0.0,0.0,0.0,0.0,0.0,0.0,0.0,0.0,0.0,0.0,0.0,0.0,0.0,0.0,0.0,0.0,0.0,0.0,0.0,0.0,0.0,0.0,0.0,-4.9611,-4.9436,-4.9553,-4.9669,-4.9669,-4.9524,-4.9407,-4.9407,-4.9262,-4.9146,-4.9146,-4.9146,-4.9233,-4.9407,-4.9407,-4.9882,-5.0793,-5.0793,-5.1263,-5.2154,-5.2726,-5.3113,-5.329,-5.3813,-5.4103,-5.4103,-5.4103,-5.4103,-5.4103,-5.4103,-5.4103,-5.4103,-5.4103,-5.4103,-5.4103,-5.4103,-5.4103,-5.4103,-5.4103,-5.4103,-5.4103,0.0,0.0,0.0,0.0,0.0,0.0,0.0,-3.9697,-3.9697,-3.9697,-3.9697,-3.9697,-3.9697,-3.9697,-3.9697,-3.9697,-3.9697,-3.9697,-3.9697,-3.9697,-3.9697,-3.9697,-3.9697,-3.9697,-3.9697,-3.9697,-3.9697,-3.9697,-3.9697,-3.9697,-3.9697,-3.9697,-3.9878,-4.0364,-4.0364,-4.044,-4.0743,-4.0945,-4.0743,-4.044,-4.0844,-4.0769,-4.0364,-4.016,-4.0541,-4.0997,-4.1331,-4.1618,-4.1982,-4.3171,0.0,0.0,0.0,0.0,0.0,0.0,0.0,0.0,0.0,0.0,0.0,0.0,0.0,0.0,0.0,0.0,0.0,0.0,0.0,0.0,0.0,0.0,0.0,0.0,-4.9669,-4.9669,-4.9669,-4.9669,-4.9669,-4.9669,-4.9669,-4.9669,-4.9669,-4.9669,-4.9669,-4.9669,-4.9669,-4.9669,-4.9669,-4.996,-5.0508,-5.1263,-5.1542,-5.2094,-5.2815,-5.329,-5.3465,-5.3465,-5.3931,-5.4103,-5.4103,-5.4103,-5.4103,-5.4103,-5.4103,-5.4103,-5.4103,-5.4103,-5.4103,0.0,0.0,0.0,0.0,0.0,-5.4103,-5.4103,0.0,0.0,0.0,0.0,0.0,0.0,0.0,-3.9697,-3.9697,-3.9697,-3.9697,-3.9697,-3.9697,-3.9697,-3.9697,-3.9697,-3.9697,-3.9697,-3.9697,-3.9697,-3.9697,-3.9697,-3.9697,-3.9697,-3.9697,-3.9697,-3.9697,-3.9697,-3.9697,-3.98,-3.9878,-3.9878,-4.0364,-4.1419,-4.1419,-4.1914,-4.2792,-4.2792,-4.2501,-4.211,-4.2598,-4.2208,-4.1319,-4.1093,-4.1842,-4.2955,-4.3497,-4.3769,-4.414,-4.5302,0.0,0.0,0.0,0.0,0.0,0.0,0.0,0.0,0.0,0.0,0.0,0.0,0.0,0.0,0.0,0.0,0.0,0.0,0.0,0.0,0.0,0.0,0.0,0.0,-4.9669,-4.9669,-4.9669,-4.9669,-4.9669,-4.9669,-4.9669,-4.9669,-4.9669,-4.9669,-4.9669,-4.9669,-4.9669,-4.9669,-4.9669,0.0,0.0,0.0,0.0,-5.3377,-5.4103,-5.4103,-5.4103,-5.4103,-5.4103,-5.4103,-5.4103,-5.4103,-5.4103,-5.4103,-5.4103,-5.4103,-5.4103,-5.4103,-5.4103,-5.4103,-5.4103,-5.4103,-5.4103,-5.4103,-5.4103,-5.4103,0.0,0.0,0.0,0.0,0.0,0.0,0.0,-3.9697,-3.9697,-3.9697,-3.9697,-3.9697,-3.9697,-3.9697,-3.9697,-3.9697,-3.9697,-3.9697,-3.9697,-3.9697,-3.9697,-3.9697,-3.9697,-3.9697,-3.9697,-3.9697,-3.9697,-3.9697,-3.9697,-4.0083,-4.0945,-4.0945,-4.1518,-4.2501,-4.2501,-4.2474,-4.2474,-4.2695,-4.2571,-4.2377,-4.2474,-4.2181,-4.1914,-4.2306,-4.2895,-4.3525,-4.3633,-4.4284,-4.5356,-4.6512,-4.7131,-4.7651,-4.8696,-4.905,0.0,0.0,0.0,0.0,0.0,0.0,0.0,0.0,0.0,0.0,0.0,0.0,0.0,0.0,0.0,0.0,0.0,0.0,0.0,-4.9669,-4.9669,-4.9669,-4.9669,-4.9669,-4.9669,-4.9669,-4.9669,-4.9669,-4.9669,-4.9669,-4.9669,-4.9669,-4.9669,-4.9669,-4.9669,-5.0442,-5.1169,-5.188,-5.2637,-5.3377,-5.4103,-5.4103,-5.4103,-5.4103,0.0,0.0,-5.4103,-5.4103,-5.4103,-5.4103,-5.4103,-5.4103,-5.4103,-5.4103,-5.4103,-5.4103,-5.4103,-5.4103,-5.4103,-5.4103,-5.4103,-5.4103,0.0,0.0,0.0,0.0,0.0,0.0,0.0,-3.9697,-3.9697,-3.9697,-3.9697,-3.9697,-3.9697,-3.9697,-3.9697,-3.9697,-3.9697,-3.9697,-3.9697,-3.9697,-3.9697,-3.9697,-3.9697,-3.9697,-3.9697,-3.9697,-3.9697,-3.9697,-4.016,-4.0743,-4.1219,-4.1716,-4.2598,-4.3559,-4.3559,-4.3748,-4.4125,-4.4312,-4.4125,-4.3748,-4.4031,-4.4132,-4.4028,-4.3905,-4.4386,-4.5324,-4.5942,-4.656,-4.7221,-4.8182,-4.8595,-4.8951,-4.9571,-4.9669,-4.9669,0.0,0.0,0.0,0.0,0.0,0.0,0.0,0.0,0.0,0.0,0.0,0.0,0.0,0.0,-4.9669,0.0,0.0,-4.9669,-4.9669,-4.9669,-4.9669,-4.9669,-4.9669,-4.9669,-4.9669,-4.9669,-4.9669,-4.9669,-4.9669,-4.9669,-4.9669,-4.9669,-4.9669,-4.9669,-5.0442,-5.1169,-5.188,-5.2637,-5.3377,-5.4103,-5.4103,-5.4103,-5.4103,-5.4103,-5.4103,-5.4103,-5.4103,-5.4103,-5.4103,-5.4103,-5.4103,-5.4103,-5.4103,-5.4103,-5.4103,-5.4103,-5.4103,-5.4103,-5.4103,-5.4103,-5.4103,0.0,0.0,0.0,0.0,0.0,0.0,0.0,-3.9697,-3.9697,-3.9697,-3.9697,-3.9697,-3.9697,-3.9697,-3.9697,-3.9697,-3.9697,-3.9697,-3.9697,-3.9697,-3.9697,-3.9697,-3.9697,-3.9697,-3.9697,-3.9697,-3.9697,-3.9697,-4.0567,-4.1119,-4.1518,-4.2404,-4.3464,-4.4591,-4.4591,-4.511,-4.5895,-4.5895,-4.5685,-4.5321,-4.583,-4.6177,-4.6175,-4.5807,-4.6301,-4.7317,-4.8362,-4.8798,-4.9001,-4.9494,-4.9669,-4.9669,-4.9669,-4.9669,-4.9669,-4.9669,-4.9669,0.0,0.0,0.0,0.0,0.0,0.0,0.0,0.0,0.0,-4.9669,-4.9669,-4.9669,-4.9669,-4.9669,-4.9669,-4.9669,-4.9669,-4.9669,-4.9669,-4.9669,-4.9669,-4.9669,-4.9669,-4.9669,-4.9669,-4.9669,-4.9669,-4.9669,-4.9669,-4.9669,-4.9669,-4.9669,-5.0508,-5.1263,-5.188,-5.2726,-5.3465,-5.4103,-5.4229,-5.4292,-5.4292,-5.4451,-5.4514,-5.4514,-5.4514,-5.4514,-5.4514,-5.4514,-5.4514,-5.4514,-5.4514,-5.4514,-5.4482,-5.4356,-5.4292,-5.4292,-5.4134,-5.4103,-5.4103,0.0,0.0,0.0,0.0,0.0,0.0,0.0,0.0,-3.9697,-3.9697,-3.9697,-3.9697,-3.9697,-3.9697,-3.9697,-3.9697,-3.9697,-3.9697,-3.9697,-3.9697,-3.9697,-3.9697,-3.9697,-3.9697,-3.9697,-3.9697,-3.9697,-3.9697,-3.98,-4.0844,-4.2598,-4.2792,-4.3843,-4.5685,-4.5685,-4.5776,-4.5895,-4.5895,-4.5895,-4.5834,-4.6505,-4.6674,-4.6848,-4.7883,-4.8412,-4.8537,-4.8682,-4.9088,-4.9582,-4.964,-4.9669,-4.9669,-4.9669,-4.9669,-4.9669,-4.9669,-4.9669,-4.9669,-4.9669,-4.9669,-4.9669,-4.9669,-4.9669,-4.9669,0.0,0.0,-4.9669,-4.9669,-4.9669,-4.9669,-4.9669,-4.9669,-4.9669,-4.9669,-4.9669,-4.9669,-4.9669,-4.9669,-4.9669,-4.9669,-4.9669,-4.9669,-4.9669,-4.9669,-4.9669,-4.9669,-4.9669,-4.9669,-4.9669,-5.1046,-5.1789,-5.188,-5.3258,-5.4017,-5.4103,-5.4703,-5.5019,-5.5019,-5.5651,-5.5967,-5.5967,-5.5967,-5.5967,-5.5967,-5.5967,-5.5967,-5.5967,-5.5967,-5.5967,-5.5904,-5.5272,-5.5019,-5.4956,-5.4324,-5.4103,-5.4103,0.0,0.0,0.0,0.0,0.0,0.0,0.0,0.0,0.0,-3.9697,-3.9697,-3.9697,-3.9697,-3.9697,-3.9697,-3.9697,-3.9697,-3.9697,-3.9697,-3.9697,-3.9697,-3.9697,-3.9697,-3.9697,-3.9697,-3.9697,-3.9697,-3.9697,-4.0262,-4.1345,-4.2792,-4.3368,-4.4434,-4.5895,-4.5895,-4.5895,-4.5895,-4.5895,-4.6098,-4.6475,-4.6737,-4.7259,-4.7985,-4.8537,-4.8943,-4.9291,-4.9291,-4.9436,0.0,-4.9669,-4.9669,-4.9669,-4.9669,-4.9669,-4.9669,-4.9669,-4.9669,-4.9669,-4.9669,-4.9669,-4.9669,-4.9669,-4.9669,-4.9669,-4.9669,-4.9669,-4.9669,-4.9669,-4.9669,-4.9669,-4.9669,-4.9669,-4.9669,0.0,-4.9669,-4.9669,-4.9669,-4.9669,-4.9669,-4.9669,-4.9669,-4.9669,-4.9669,-4.9669,-4.9669,-4.9669,-4.9669,-4.9863,-5.0346,-5.0887,-5.1786,-5.31,-5.3761,-5.4423,-5.5304,-5.5588,-5.5746,-5.5746,-5.6031,-5.6189,-5.6189,-5.6189,-5.6189,-5.6157,-5.5746,-5.5557,-5.5557,-5.5146,-5.4988,-5.4956,-5.464,-5.4514,-5.4482,-5.4198,-5.4103,-5.4189,0.0,0.0,0.0,0.0,0.0,0.0,0.0,0.0,0.0,0.0,-3.9697,-3.9697,-3.9697,-3.9697,-3.9697,-3.9697,-3.9697,-3.9697,-3.9697,-3.9697,-3.9697,-3.9697,-3.9697,-3.9697,-3.9697,-3.9697,-3.9697,-3.9697,-4.0465,-4.1319,-4.2404,-4.3464,-4.4434,-4.5475,-4.5776,-4.5895,-4.5895,-4.6069,-4.6417,-4.6853,-4.7201,-4.7898,-4.874,-4.8914,-4.9262,-4.9669,-4.9669,-4.9669,-4.9669,-4.9669,-4.9669,-4.9669,-4.9669,-4.9669,-4.9669,-4.9669,-4.9669,-4.9669,-4.9669,-4.9669,-4.9669,-4.9669,-4.9669,-4.9669,-4.9669,-4.9669,-4.9669,-4.9669,-4.9669,-4.9669,-4.9669,-4.9669,-4.9669,-4.9669,-4.9669,-4.9669,-4.9669,-4.9669,-4.9669,-4.9669,-4.9669,-4.9669,-4.9669,-4.9669,-4.9669,-4.9669,-4.9669,-5.0057,-5.0728,-5.116,-5.2211,-5.3954,-5.4352,-5.5086,-5.6189,-5.6378,-5.6473,-5.6473,-5.6663,-5.6757,-5.6757,-5.6757,-5.6757,-5.6726,-5.622,-5.5999,-5.5967,-5.5462,-5.5241,-5.5241,-5.5019,-5.4956,-5.4925,-5.4514,-5.4261,-5.4157,0.0,0.0,0.0,0.0,0.0,0.0,0.0,0.0,0.0,0.0,0.0,0.0,0.0,-3.9697,-3.9697,-3.9697,-3.9697,-3.9697,-3.9697,-3.9697,-3.9697,-3.9697,-3.9697,-3.9697,-3.9697,-3.9697,-3.9697,-3.9697,-3.9697,-4.0262,-4.1319,-4.2306,-4.3368,-4.4406,-4.5413,-4.5895,-4.5924,-4.6534,-4.6795,-4.694,-4.8159,-4.8682,-4.8798,-4.9407,-4.9669,-4.9669,-4.9669,-4.9669,-4.9669,-4.9669,-4.9669,-4.9669,-4.9669,-4.9669,-4.9669,-4.9669,-4.9669,-4.9669,-4.9669,-4.9669,-4.9669,-4.9669,-4.9669,-4.9669,-4.9669,-4.9669,-4.9669,-4.9669,-4.9669,-4.9669,-4.9669,-4.9669,-4.9669,-4.9669,-4.9669,-4.9669,-4.9669,-4.9669,-4.9669,-4.9669,-4.9669,-4.9669,0.0,-4.9669,-4.9669,-4.9669,-4.9669,-5.0057,-5.0728,-5.2145,-5.3223,-5.3985,-5.5391,-5.6157,-5.6189,-5.6852,-5.72,-5.72,-5.7895,-5.8211,-5.8211,-5.8211,-5.8211,-5.8211,-5.818,-5.818,-5.818,-5.8148,-5.8148,-5.8085,-5.739,-5.7137,-5.6947,-5.5588,-5.4672,-5.4103,0.0,0.0,0.0,0.0,0.0,0.0,0.0,0.0,0.0,0.0,0.0,0.0,0.0,0.0,0.0,0.0,-3.9697,-3.9697,-3.9697,-3.9697,-3.9697,-3.9697,-3.9697,-3.9697,-3.9697,-3.9697,-3.9697,-3.9697,-3.9697,-4.016,-4.1219,-4.2306,-4.3368,-4.4312,-4.5844,-4.6505,-4.6563,-4.7201,-4.7695,-4.813,-4.8566,-4.8972,-4.9378,-4.9582,-4.9669,-4.9669,0.0,-4.9669,-4.9669,-4.9669,-4.9669,-4.9669,-4.9669,-4.9669,-4.9669,-4.9669,-4.9669,-4.9669,-4.9669,-4.9669,-4.9669,-4.9669,-4.9669,-4.9669,-4.9669,-4.9669,-4.9669,-4.9669,-4.9669,-4.9669,-4.9669,-4.9669,-4.9669,-4.9669,-4.9669,-4.9669,-4.9669,-4.9669,-4.9669,-4.9669,-4.9669,0.0,0.0,0.0,0.0,-4.9669,-5.0075,-5.0896,-5.2081,-5.3092,-5.4328,-5.6113,-5.6636,-5.7105,-5.7579,-5.78,-5.7927,-5.7927,-5.8148,-5.8274,-5.8274,-5.8274,-5.8274,-5.8243,-5.7769,-5.7579,-5.7548,-5.7073,-5.6884,-5.6852,-5.6631,-5.6536,-5.6473,-5.5999,-5.5683,-5.5423,0.0,0.0,0.0,0.0,0.0,0.0,0.0,0.0,0.0,0.0,0.0,0.0,0.0,0.0,0.0,0.0,0.0,-3.9697,-3.9697,-3.9697,-3.9697,-3.9697,-3.9697,-3.9697,-3.9697,-3.9697,-3.9697,-3.9697,-3.9697,-4.0083,-4.0642,-4.1716,-4.2706,-4.3602,-4.5477,-4.6354,-4.6612,-4.7651,-4.8362,-4.874,-4.8972,-4.932,-4.9669,-4.9669,-4.9669,0.0,-4.9669,-4.9669,-4.9669,-4.9669,-4.9669,-4.9669,-4.9669,-4.9669,-4.9669,-4.9669,-4.9669,-4.9669,-4.9669,-4.9669,-4.9669,-4.9669,-4.9669,-4.9669,-4.9669,-4.9669,-4.9669,-4.9669,-4.9669,-4.9669,-4.9669,-4.9669,-4.9669,-4.9669,-4.9669,-4.9669,-4.9669,-4.9669,-4.9669,-4.9669,-4.9669,-4.9669,0.0,0.0,0.0,-5.0476,-5.1052,-5.2181,-5.3621,-5.4357,-5.5503,-5.7109,-5.7453,-5.78,-5.8274,-5.8274,-5.8274,-5.8274,-5.8274,-5.8401,-5.8654,-5.8654,-5.878,-5.897,-5.8527,-5.8338,-5.8274,-5.7832,-5.7642,-5.7642,-5.739,-5.7295,-5.7231,-5.6726,-5.6568,-5.6467,0.0,0.0,0.0,0.0,0.0,0.0,0.0,0.0,0.0,0.0,0.0,0.0,0.0,0.0,0.0,0.0,0.0,0.0,-3.9697,-3.9697,-3.9697,-3.9697,-3.9697,-3.9697,-3.9697,-3.9697,-3.9697,-3.9697,-3.9722,-3.9747,-3.9722,-4.0821,-4.1611,-4.2364,-4.4456,-4.5689,-4.632,-4.7999,-4.8769,-4.8827,-4.9436,-4.9669,-4.9669,-4.9669,-4.9669,-4.9669,-4.9669,-4.9669,-4.9669,-4.9669,-4.9669,-4.9669,-4.9669,-4.9669,-4.9669,-4.9669,-4.9669,-4.9669,-4.9669,-4.9669,-4.9669,-4.9669,-4.9669,-4.9669,-4.9669,-4.9669,-4.9669,-4.9669,-4.9669,-4.9669,0.0,0.0,-4.9766,-4.9766,-4.9766,-4.9766,-4.9766,-4.9766,-4.9766,0.0,0.0,0.0,0.0,0.0,0.0,-5.2025,0.0,-5.3651,-5.507,-5.5814,-5.6466,-5.7263,-5.7927,-5.8274,-5.8274,-5.8306,-5.8338,-5.8369,-5.8369,-5.8717,-5.9349,-5.9349,-5.9696,-6.0297,-6.0297,-6.0297,-6.0297,-6.0297,-6.0297,-6.0234,-5.9602,-5.9349,-5.9191,-5.7864,-5.739,-5.7295,0.0,0.0,0.0,0.0,0.0,0.0,0.0,0.0,0.0,0.0,0.0,0.0,0.0,0.0,0.0,0.0,0.0,0.0,-3.9697,-3.9697,-3.9697,-3.9697,-3.9697,-3.9697,-3.9697,-3.9697,-3.9697,-3.9697,-4.0099,-4.03,-4.0325,-4.1828,-4.299,-4.4064,-4.5829,-4.7121,-4.8125,-4.9049,-4.9436,-4.9436,-4.9611,-4.9669,-4.9669,-4.9669,-4.9669,-4.9669,-4.9669,-4.9669,-4.9669,-4.9669,-4.9669,-4.9669,0.0,-4.9669,-4.9669,0.0,0.0,-4.9669,-4.9669,-4.9669,-4.9669,-4.9669,-4.9669,-4.9669,-4.9669,-4.9669,-4.9669,-4.9669,-4.9669,-4.9669,-4.9669,0.0,0.0,-5.0537,-5.0981,0.0,-5.1326,-5.1326,0.0,-5.0603,0.0,-5.0714,-5.1254,-5.2102,0.0,0.0,-5.4657,-5.4813,-5.5783,-5.6433,-5.7215,-5.799,-5.818,-5.8274,-5.8274,-5.878,-5.9286,-5.9791,-5.9791,-5.9886,-6.0044,-6.0044,-6.0139,-6.0297,-6.0297,-6.0297,-6.0297,-6.0297,-6.0297,-6.0265,-6.0107,-6.0044,-6.0012,-5.9633,-5.9507,-5.9475,0.0,0.0,0.0,0.0,0.0,0.0,0.0,0.0,0.0,0.0,0.0,0.0,0.0,0.0,0.0,0.0,0.0,0.0,0.0,-3.9697,-3.9697,-3.9697,-3.9697,-3.9697,-3.9697,-3.9697,-3.9823,-4.0049,-4.0375,-4.0651,-4.0877,-4.1817,-4.2682,-4.3651,-4.498,-4.6404,-4.7715,-4.8581,-4.9248,0.0,0.0,-4.9669,-4.9669,-4.9669,-4.9669,-4.9669,-4.9669,-4.9669,-4.9669,-4.9669,0.0,-4.9669,-4.9669,-4.9669,-4.9669,-4.9669,0.0,-4.9669,-4.9669,-4.9669,-4.9669,-4.9669,-4.9669,-4.9669,-4.9669,-4.9669,-4.9669,-4.9669,-4.9669,-4.9669,-4.9669,-5.0057,-5.0346,0.0,0.0,0.0,-5.0952,-5.122,-5.1238,0.0,-5.1313,0.0,-5.2226,-5.3486,-5.4822,0.0,-5.5937,-5.6279,-5.7058,-5.7465,-5.7871,-5.8274,-5.8274,-5.8401,-5.8717,-5.9412,-5.9918,-6.0297,-6.0297,-6.0455,-6.0771,-6.0771,-6.0929,-6.1245,0.0,-6.1245,-6.1245,-6.1245,-6.1245,-6.1213,-6.0897,-6.0771,-6.0739,-6.0423,-6.0297,-6.0297,0.0,0.0,0.0,0.0,0.0,0.0,0.0,0.0,0.0,0.0,0.0,0.0,0.0,0.0,0.0,0.0,0.0,0.0,0.0,0.0,-3.9697,-3.9697,-3.9697,-3.9697,-3.9697,-3.9697,-3.9923,-4.04,-4.0551,-4.0877,-4.1329,-4.148,-4.1915,-4.2587,-4.3484,-4.4811,-4.6319,-4.7513,-4.8553,-4.9473,-4.9669,-4.9669,-4.9669,0.0,-4.9669,-4.9669,-4.9669,-4.9669,-4.9669,-4.9669,-4.9669,-4.9669,-4.9669,-4.9669,-4.9669,-4.9669,-4.9669,-4.9669,-4.9669,-4.9669,-4.9669,-4.9669,-4.9669,-4.9669,-4.9669,-4.9669,-4.9669,-4.9669,-4.9669,-4.9669,-4.9669,-4.9766,-4.9863,-4.9863,0.0,-4.996,-4.996,-5.0544,-5.0953,-5.0854,-5.1975,-5.2881,-5.3068,-5.4809,-5.6061,-5.6342,-5.6961,-5.7642,-5.8243,-5.8274,-5.8306,-5.8401,-5.8496,-5.8875,-5.957,-6.017,-6.0487,-6.0581,-6.0581,-6.0897,-6.1529,-6.1529,-6.1845,-6.2446,-6.2446,-6.2446,-6.2446,-6.2446,-6.2446,-6.2383,-6.1782,-6.1529,-6.1466,-6.0803,-6.0581,-6.0581,0.0,0.0,0.0,0.0,0.0,0.0,0.0,0.0,0.0,0.0,-3.9697,-3.9697,0.0,0.0,0.0,0.0,0.0,0.0,0.0,0.0,0.0,-3.9697,-3.9697,-3.9697,-3.9697,-3.9697,-3.9747,-3.9848,-4.0752,-4.1254,-4.1354,-4.2258,-4.3263,-4.4323,-4.4405,-4.5209,-4.6319,-4.7513,-4.8122,-4.8324,-4.9375,-4.9669,-4.9669,-4.9669,0.0,0.0,-4.9669,-4.9669,-4.9669,-4.9669,-4.9669,-4.9669,-4.9669,-4.9669,-4.9669,-4.9669,-4.9669,-4.9669,-4.9669,-4.9669,-4.9669,-4.9669,-4.9669,-4.9669,-4.9669,-4.9669,0.0,-4.9669,-4.9669,-4.9669,-4.9669,-5.025,-5.0632,-5.0632,-5.1169,-5.1512,-5.1512,-5.2115,-5.2282,0.0,-5.2269,-5.3256,-5.4449,-5.4891,0.0,0.0,-5.8085,-5.8148,-5.8274,-5.8274,-5.8527,-5.9096,-5.9665,-6.0297,-6.1024,-6.115,-6.1498,-6.2067,-6.2067,-6.213,-6.2256,-6.2256,-6.2319,-6.2446,-6.2446,0.0,-6.2446,-6.2446,-6.2446,-6.2414,-6.2288,-6.2256,-6.2225,-6.2098,-6.2067,-6.2067,0.0,0.0,0.0,0.0,0.0,0.0,0.0,-3.9697,-3.9697,-3.9697,-3.9697,-3.9697,-3.9697,-3.9697,-3.9697,0.0,0.0,0.0,0.0,0.0,0.0,0.0,0.0,0.0,-3.9697,-3.9697,-3.9848,-4.0124,0.0,-4.148,-4.1781,-4.2585,-4.3295,-4.3823,-4.3823,-4.4453,-4.5502,-4.6032,-4.6556,-4.7177,-4.8324,-4.8852,-4.8852,0.0,0.0,0.0,0.0,-4.9669,-4.9669,-4.9669,-4.9669,-4.9669,-4.9669,-4.9669,-4.9669,-4.9669,-4.9669,-4.9669,-4.9669,-4.9669,-4.9669,-4.9669,-4.9669,-4.9669,-4.9669,0.0,0.0,-4.9669,-4.9669,-4.9669,-4.9669,-4.996,-5.025,-5.025,-5.0508,-5.0793,-5.0793,-5.1558,-5.2112,-5.1748,-5.2871,-5.3982,-5.468,-5.5206,-5.6041,-5.7559,-5.7684,-5.7871,-5.8274,-5.8622,-5.9128,-5.9791,-6.0487,-6.1024,-6.1403,-6.1751,-6.2098,-6.2446,-6.2446,-6.2446,-6.2446,-6.2446,-6.2446,-6.2446,-6.2446,-6.2446,-6.2446,-6.2446,-6.2446,-6.2446,-6.2446,-6.2446,-6.2446,-6.2446,-6.2446,-6.2446,0.0,0.0,0.0,0.0,0.0,0.0,0.0,-3.9697,-3.9697,-3.9697,-3.9597,-3.9521,-3.9521,-3.9622,-3.9697,0.0,0.0,0.0,0.0,0.0,0.0,0.0,0.0,0.0,0.0,0.0,0.0,-4.035,-4.1003,0.0,0.0,0.0,0.0,0.0,-4.2986,-4.3517,-4.437,-4.4587,-4.5182,0.0,0.0,-4.7615,0.0,0.0,0.0,0.0,0.0,-4.9669,-4.9669,-4.9669,-4.9669,-4.9669,-4.9669,-4.9669,-4.9669,-4.9669,-4.9669,-4.9669,-4.9669,-4.9669,-4.9669,-4.9669,-4.9669,-4.9669,-4.9669,-4.9669,-4.9669,-4.9669,-4.9669,-4.9669,-4.9669,-4.9669,-4.9669,-4.9669,-4.9669,-4.9727,-4.9872,-5.0888,-5.1672,-5.1817,-5.3422,0.0,-5.4684,-5.529,0.0,-5.6796,-5.7143,-5.7714,-5.8496,-5.9286,-5.9981,-6.0518,-6.1245,-6.1624,-6.1624,-6.2161,-6.2446,-6.2446,-6.2446,-6.2446,-6.2446,-6.2446,-6.2446,-6.2446,-6.2446,-6.2446,-6.2446,-6.2446,-6.2446,-6.2446,-6.2446,-6.2446,-6.2446,-6.2446,-6.2414,-6.2612,0.0,0.0,0.0,0.0,0.0,0.0,0.0,-3.9697,-3.9697,-3.9697,-3.927,-3.8944,-3.8944,-3.9396,-3.9697,0.0,0.0,0.0,0.0,0.0,0.0,0.0,0.0,0.0,0.0,0.0,0.0,-3.9772,-4.0827,0.0,0.0,0.0,0.0,0.0,0.0,-4.3098,-4.3184,-4.4261,0.0,0.0,0.0,0.0,0.0,0.0,0.0,0.0,0.0,-4.9669,-4.9669,0.0,0.0,-4.9669,-4.9669,-4.9669,-4.9669,-4.9669,0.0,0.0,-4.9669,-4.9669,-4.9669,-4.9669,-4.9669,-4.9669,-4.9669,0.0,-4.9669,-4.9669,-4.9669,-4.9669,-4.9669,-4.9669,-4.9669,-4.9669,-4.9669,-4.9872,-5.0481,-5.1178,-5.1846,-5.2426,0.0,0.0,-5.4582,-5.4786,-5.5089,-5.5918,-5.7285,-5.8304,-5.9222,-6.0487,-6.1245,-6.1308,-6.1972,-6.2351,-6.2351,-6.2414,-6.2446,-6.2446,-6.2446,-6.2446,-6.2446,-6.2446,-6.2446,-6.2446,-6.2446,-6.2446,0.0,-6.2446,-6.2446,-6.2446,-6.2446,-6.2446,-6.2446,-6.2446,-6.271,-6.3068,0.0,0.0,0.0,0.0,0.0,0.0,-3.9697,-3.9697,-3.9697,-3.9697,-3.922,-3.8868,-3.8868,-3.8768,-3.8818,-3.917,0.0,0.0,0.0,0.0,0.0,0.0,0.0,0.0,0.0,0.0,-3.9697,-3.9697,-4.0475,0.0,0.0,0.0,0.0,0.0,0.0,-4.2986,-4.2986,-4.3517,0.0,0.0,0.0,0.0,0.0,0.0,0.0,0.0,0.0,0.0,-4.9669,-4.9669,0.0,0.0,-4.9669,-4.9669,0.0,0.0,-4.9669,-4.9669,-4.9669,-4.9669,-4.9669,-4.9669,-4.9669,-4.9669,-4.9669,0.0,-4.9669,-4.9669,-4.9669,-4.9669,-4.9669,-4.9669,-4.9669,-4.9669,-4.9669,-4.9901,-5.0598,-5.1207,-5.1846,-5.2484,-5.3123,0.0,0.0,0.0,-5.4657,-5.6364,-5.8324,-5.9789,-6.055,-6.1087,-6.1593,-6.2003,-6.2288,-6.2446,-6.2446,-6.2446,-6.2446,-6.2446,-6.2446,-6.2446,-6.2446,-6.2446,-6.2446,-6.2446,-6.2446,-6.2446,0.0,-6.2446,-6.2446,-6.2446,-6.2446,-6.2612,-6.2905,-6.2905,-6.3164,-6.3643,0.0,0.0,0.0,0.0,0.0,-3.9697,-3.9697,-3.9697,-3.9697,-3.9697,-3.9069,-3.8617,-3.8617,-3.8214,-3.8038,-3.8341,-3.8868,0.0,0.0,0.0,0.0,0.0,0.0,0.0,0.0,0.0,-3.9697,-3.9697,-4.0249,-4.0701,0.0,0.0,-4.2359,-4.2735,0.0,0.0,0.0,0.0,0.0,0.0,0.0,0.0,0.0,0.0,0.0,0.0,0.0,0.0,0.0,0.0,0.0,0.0,0.0,0.0,0.0,0.0,-4.9669,-4.9669,-4.9669,-4.9669,-4.9669,-4.9669,-4.9669,-4.9669,0.0,0.0,-4.9669,-4.9669,-4.9669,-4.9669,-4.9669,-4.9669,-4.9669,-4.9669,-4.9669,-4.9988,-5.083,-5.1323,-5.1933,-5.2746,0.0,-5.35,0.0,-5.35,-5.4465,-5.6728,-5.8597,-6.0129,-6.1371,-6.1593,-6.1909,-6.2414,-6.2446,-6.2446,-6.2446,-6.2446,-6.2446,-6.2446,-6.2446,-6.2446,-6.2446,-6.2446,-6.2446,-6.2446,-6.2446,-6.2446,0.0,-6.2446,-6.2446,-6.2446,-6.2612,-6.2905,-6.3164,-6.3357,-6.3738,-6.4114,0.0,0.0,0.0,0.0,0.0,0.0,-3.9697,-3.9697,-3.9697,-3.9697,-3.8718,-3.8015,-3.8015,-3.7733,-3.7501,-3.7211,-3.7713,0.0,0.0,0.0,0.0,0.0,0.0,0.0,0.0,0.0,-3.9697,-3.9697,-4.0249,-4.0526,-4.0551,-4.1656,-4.2158,-4.2183,0.0,0.0,0.0,0.0,0.0,0.0,0.0,0.0,0.0,0.0,0.0,0.0,0.0,0.0,0.0,0.0,0.0,0.0,0.0,-4.9669,0.0,0.0,-4.9669,-4.9669,-4.9669,-4.9669,-4.9669,-4.9669,-4.9669,-4.9669,-4.9669,-4.9669,-4.9669,-4.9669,-4.9669,-4.9669,-4.9669,-4.9669,-4.9669,-4.9669,-4.9669,-5.0133,-5.141,-5.1614,-5.2078,0.0,0.0,-5.35,-5.35,-5.35,-5.4465,-5.6728,-5.7628,0.0,-6.1242,-6.2035,-6.2414,-6.2446,-6.2446,-6.2446,-6.2446,-6.2446,-6.2446,-6.2446,-6.2446,-6.2446,-6.2446,-6.2446,-6.2446,-6.2446,-6.2446,-6.2446,0.0,-6.2446,-6.2446,-6.2414,-6.2971,-6.3164,-6.326,-6.3705,-6.4207,-6.4702,0.0,0.0,0.0,0.0,0.0,0.0,0.0,-3.9697,-3.9697,-3.9697,-3.8718,-3.8114,-3.8212,-3.7475,-3.6988,-3.6893,-3.7754,0.0,0.0,0.0,0.0,0.0,0.0,0.0,0.0,0.0,-3.9697,-3.9697,-3.9873,-4.0149,-4.0526,-4.0877,-4.143,-4.2158,-4.2333,0.0,0.0,0.0,0.0,0.0,0.0,0.0,0.0,0.0,0.0,0.0,0.0,0.0,0.0,0.0,0.0,0.0,0.0,0.0,0.0,-4.9669,-4.9669,-4.9669,-4.9669,-4.9669,-4.9669,-4.9669,-4.9669,-4.9669,-4.9669,-4.9669,-4.9669,-4.9669,-4.9669,-4.9669,-4.9669,-4.9669,-4.9669,-4.9669,-4.9669,-5.0133,-5.1439,-5.1614,0.0,-5.3355,-5.35,-5.35,0.0,0.0,-5.4775,-5.6017,-5.7221,-5.8502,-5.9655,-6.0874,-6.1815,-6.2414,-6.2446,-6.2446,-6.2446,-6.2446,-6.2446,-6.2446,-6.2446,-6.2446,-6.2446,-6.2446,-6.2446,-6.2446,-6.2446,-6.2446,-6.2446,-6.2446,-6.2446,-6.2414,-6.3002,-6.3357,-6.3738,-6.43,-6.4761,-6.5156,0.0,0.0,0.0,0.0,0.0,0.0,0.0,-3.9697,-3.9697,-3.9697,-3.8718,-3.8114,-3.8409,-3.7394,-3.6709,-3.6709,-3.7369,0.0,0.0,0.0,0.0,0.0,0.0,0.0,0.0,-3.9597,-3.9697,-3.9697,-3.9697,-3.9873,-4.0199,-4.0199,-4.0802,-4.1856,-4.1856,-4.2258,0.0,0.0,0.0,0.0,0.0,0.0,-4.2986,0.0,0.0,0.0,0.0,0.0,0.0,0.0,0.0,0.0,0.0,0.0,0.0,0.0,-4.9375,-4.9669,-4.9669,-4.9669,-4.9669,-4.9669,-4.9669,0.0,-4.9669,-4.9669,-4.9669,-4.9669,-4.9669,-4.9669,-4.9669,-4.9669,-4.9669,-4.9669,-4.9872,-5.0423,-5.1468,-5.1817,0.0,-5.3384,0.0,0.0,0.0,-5.389,-5.4672,-5.5605,-5.6809,-5.7989,-5.9348,-6.0568,-6.1582,-6.2315,-6.2446,-6.2446,-6.2446,-6.2446,-6.2446,-6.2446,-6.2446,-6.2446,-6.2446,-6.2446,-6.2446,-6.2446,-6.2446,-6.2446,0.0,-6.2446,-6.2446,-6.2414,-6.3164,-6.3611,-6.3988,-6.4669,-6.5156,-6.5425,0.0,0.0,0.0,0.0,0.0,0.0,0.0,-3.9697,-3.9697,-3.9697,-3.8718,-3.8114,-3.8409,-3.7394,-3.6709,-3.6709,0.0,0.0,0.0,0.0,0.0,0.0,0.0,0.0,0.0,-3.9371,-3.9647,-3.9697,-3.9697,-3.9697,-3.9697,-3.9697,-4.0249,-4.1229,-4.1304,-4.1957,0.0,0.0,0.0,0.0,0.0,0.0,0.0,0.0,0.0,0.0,0.0,0.0,0.0,0.0,0.0,0.0,0.0,0.0,0.0,0.0,0.0,0.0,0.0,-4.9669,-4.9669,-4.9669,-4.9669,-4.9669,-4.9669,0.0,0.0,-4.9669,-4.9669,-4.9669,-4.9669,-4.9669,-4.9669,-4.9669,-5.0249,-5.0888,-5.1527,-5.2194,0.0,0.0,-5.35,0.0,-5.35,-5.35,-5.4048,-5.5442,-5.6258,-5.7543,-5.9725,-6.0568,-6.1379,-6.2216,-6.2315,-6.2315,-6.2446,-6.2446,-6.2446,-6.2446,-6.2446,-6.2446,-6.2446,-6.2446,-6.2446,0.0,-6.2446,-6.2446,-6.2446,-6.2414,-6.2414,-6.2513,-6.3516,-6.3988,-6.4081,-6.5033,-6.5425,-6.5425,0.0,0.0,0.0,0.0,0.0,0.0,0.0,0.0,0.0,0.0,-3.8718,-3.8114,-3.8409,-3.7394,-3.6709,0.0,0.0,0.0,0.0,0.0,0.0,0.0,0.0,0.0,0.0,-3.8994,-3.927,-3.9697,-3.9697,-3.9697,-3.9697,-3.9697,-3.9823,-4.0124,-4.0953,-4.1957,0.0,0.0,0.0,0.0,0.0,0.0,0.0,0.0,0.0,0.0,-4.2986,-4.3184,0.0,0.0,0.0,0.0,0.0,0.0,0.0,0.0,-4.7485,-4.8424,-4.8424,0.0,-4.9669,-4.9669,-4.9669,-4.9669,0.0,0.0,0.0,0.0,0.0,0.0,-4.9669,-4.9669,-4.9669,-4.9669,-5.0249,-5.0888,-5.1527,-5.2572,0.0,-5.35,-5.35,-5.35,-5.35,-5.35,-5.3664,-5.4019,-5.507,-5.5987,-5.6456,-5.8196,-5.9576,-6.042,-6.1175,-6.1815,-6.2414,-6.2446,-6.2446,-6.2446,-6.2446,-6.2446,-6.2446,-6.2446,-6.2446,-6.2446,-6.2446,-6.2446,-6.2414,-6.2808,-6.2971,-6.3068,-6.4114,-6.4485,-6.4577,-6.5156,-6.5425,-6.5425,0.0,0.0,0.0,0.0,0.0,0.0,0.0,0.0,0.0,0.0,0.0,0.0,0.0,0.0,0.0,0.0,0.0,0.0,0.0,0.0,0.0,0.0,0.0,-3.7462,-3.809,-3.8617,-3.9019,-3.932,-3.9572,-3.9697,-3.9697,-3.9446,-3.9446,-3.9747,-4.0852,-4.1656,0.0,0.0,0.0,0.0,-4.2986,0.0,0.0,0.0,0.0,0.0,-4.2986,-4.2986,0.0,-4.3713,-4.3932,-4.4042,0.0,0.0,0.0,0.0,-4.6347,-4.7177,-4.7177,-4.8424,-4.9669,-4.9669,-4.9669,-4.9669,-4.9669,0.0,0.0,0.0,0.0,0.0,0.0,-4.9669,-4.9785,-5.0075,-5.0685,-5.1439,0.0,0.0,-5.35,-5.35,-5.35,-5.35,0.0,-5.35,-5.35,-5.35,-5.4429,-5.5313,-5.6006,-5.7409,-5.874,-5.9895,-6.0316,-6.1175,-6.2414,-6.2446,-6.2446,-6.2446,-6.2446,-6.2446,-6.2446,-6.2446,-6.2446,-6.2446,-6.2446,-6.2446,-6.2414,-6.3002,-6.3164,-6.326,-6.43,-6.4702,-6.4793,-6.5246,-6.5425,-6.5425,0.0,0.0,0.0,0.0,0.0,0.0,0.0,0.0,0.0,0.0,0.0,0.0,0.0,0.0,0.0,0.0,0.0,0.0,0.0,0.0,0.0,0.0,0.0,-3.7111,-3.7186,-3.8216,-3.8793,-3.8868,-3.9421,-3.9697,-3.9697,-3.922,-3.9295,-3.9848,-4.0802,-4.1304,0.0,0.0,0.0,0.0,-4.2986,0.0,0.0,0.0,0.0,0.0,0.0,0.0,0.0,-4.2986,-4.2986,-4.2986,-4.2986,0.0,0.0,0.0,0.0,0.0,-4.6005,-4.7587,-4.9248,-4.9375,-4.9571,-4.9669,-4.9669,0.0,0.0,0.0,0.0,0.0,0.0,-4.9901,0.0,0.0,0.0,0.0,-5.3355,-5.35,-5.35,-5.35,-5.35,0.0,-5.35,-5.35,-5.35,-5.35,-5.4139,-5.507,-5.6403,-5.7191,-5.8167,-5.9652,-5.9683,-6.042,-6.2016,-6.2016,-6.2016,-6.2016,-6.2016,-6.2016,-6.2016,-6.2016,-6.2116,-6.2216,0.0,0.0,-6.2414,-6.3068,-6.326,-6.3357,-6.4393,-6.4793,-6.4885,-6.5246,-6.5425,-6.5425,0.0,0.0,0.0,0.0,0.0,0.0,0.0,0.0,0.0,0.0,0.0,0.0,0.0,0.0,0.0,0.0,0.0,0.0,0.0,0.0,0.0,-3.6358,-3.6433,-3.6709,-3.7186,-3.7814,-3.8391,-3.8868,-3.9421,-3.9697,-3.9697,-3.9597,-3.9848,-4.04,-4.0576,-4.1153,-4.2057,0.0,0.0,0.0,0.0,0.0,0.0,0.0,0.0,0.0,0.0,0.0,0.0,-4.2986,-4.2986,-4.2986,-4.2986,0.0,0.0,0.0,0.0,0.0,-4.4993,-4.582,-4.7074,-4.8021,-4.8951,-4.9669,-4.9669,0.0,0.0,0.0,0.0,0.0,0.0,-5.0946,-5.1352,0.0,0.0,-5.2688,0.0,0.0,-5.35,-5.35,0.0,-5.35,-5.35,-5.35,-5.35,-5.35,-5.4139,-5.4778,-5.5575,-5.6246,-5.7328,-5.8714,-5.8822,-5.9255,-6.0316,-6.0316,-6.0316,-6.0316,-6.0316,-6.0316,-6.0316,-6.0316,-6.0628,-6.1379,0.0,-6.1815,-6.2414,-6.3452,-6.38,-6.3894,-6.4943,-6.5336,-6.5336,-6.5425,-6.5425,-6.5492,0.0,0.0,0.0,0.0,0.0,0.0,0.0,0.0,0.0,0.0,0.0,0.0,0.0,0.0,0.0,0.0,0.0,0.0,0.0,0.0,0.0,-3.6358,-3.6358,-3.6483,-3.6734,-3.7563,-3.814,-3.8391,-3.927,-3.9697,-3.9697,-3.9396,-3.9371,-3.9647,-3.9948,-4.0526,-4.1329,-4.2183,-4.271,-4.2986,0.0,0.0,0.0,0.0,0.0,0.0,0.0,0.0,0.0,0.0,-4.2986,-4.2986,-4.2986,0.0,0.0,0.0,0.0,0.0,-4.3823,-4.4796,-4.5902,-4.6112,-4.7074,-4.7892,-4.7892,0.0,0.0,0.0,0.0,0.0,0.0,-5.141,-5.173,-5.2078,0.0,-5.3181,-5.3471,-5.35,-5.35,0.0,0.0,-5.35,-5.35,-5.35,-5.35,-5.35,-5.3791,-5.44,-5.5358,-5.5707,-5.6537,-5.7833,-5.7863,-5.8055,-5.8495,-5.8495,-5.8931,-5.9895,-5.9895,-5.9895,-5.9895,-5.9895,-6.0106,-6.0524,0.0,-6.0732,-6.1144,-6.2614,-6.3292,-6.3388,-6.4852,-6.5425,-6.5425,-6.5425,-6.5425,-6.5591,0.0,0.0,0.0,0.0,0.0,0.0,0.0,0.0,0.0,0.0,0.0,0.0,0.0,0.0,0.0,0.0,0.0,0.0,0.0,0.0,-3.6358,-3.6358,-3.6358,-3.6358,-3.6358,-3.7437,-3.8015,-3.8015,-3.9145,-3.9697,-3.9697,-3.927,-3.9069,-3.9094,-3.9772,-4.03,-4.0777,-4.1882,-4.2585,-4.2986,0.0,0.0,0.0,0.0,0.0,0.0,0.0,0.0,0.0,0.0,0.0,0.0,0.0,0.0,0.0,-4.2986,-4.2986,-4.3011,-4.3137,-4.4112,-4.5037,-4.4727,0.0,-4.6727,-4.6591,0.0,0.0,0.0,0.0,0.0,0.0,-5.1962,0.0,-5.2717,-5.321,-5.35,-5.35,-5.35,-5.35,-5.35,-5.35,-5.35,-5.35,-5.35,-5.35,-5.35,-5.35,-5.4081,-5.5329,-5.5416,-5.5997,-5.7274,-5.7303,-5.7303,-5.7303,-5.7303,-5.7944,-5.9255,-5.9255,-5.9255,-5.9255,-5.9105,-5.9212,-5.9576,-5.9531,-5.9637,-6.0106,-6.169,-6.2386,-6.2583,-6.4049,-6.4636,-6.4636,-6.4636,-6.4636,-6.4833,0.0,0.0,0.0,0.0,0.0,0.0,0.0,0.0,0.0,0.0,0.0,0.0,0.0,0.0,0.0,0.0,0.0,0.0,0.0,0.0,-3.6358,-3.6358,-3.6358,-3.6358,-3.6358,-3.7437,-3.8015,-3.8015,-3.9145,-3.9697,-3.9697,-3.9647,-3.9647,-3.9672,-4.0752,-4.1254,-4.1354,-4.2459,-4.2936,-4.2986,-4.2986,0.0,0.0,0.0,0.0,0.0,0.0,0.0,0.0,0.0,0.0,0.0,0.0,0.0,-4.2986,-4.2986,-4.2986,-4.3087,-4.3614,-4.3878,-4.4029,-4.4508,-4.6264,0.0,-4.7216,-4.7541,0.0,0.0,0.0,0.0,0.0,-5.2978,-5.3384,-5.3442,-5.3471,-5.35,-5.35,0.0,-5.35,-5.35,-5.35,-5.35,-5.35,-5.35,-5.35,-5.35,-5.35,-5.4081,-5.5329,-5.5416,-5.5997,-5.7274,-5.7303,-5.7303,-5.7303,-5.7303,-5.7416,-5.7528,-5.7528,-5.7528,-5.7499,-5.6945,-5.7416,-5.8714,-5.8411,-5.9002,-6.0316,-6.1215,-6.1621,-6.1621,-6.2288,-6.2551,-6.2551,-6.2551,-6.2551,-6.2773,0.0,0.0,0.0,0.0,0.0,0.0,0.0,0.0,0.0,0.0,0.0,0.0,0.0,0.0,0.0,0.0,0.0,0.0,0.0,-3.6358,-3.6358,-3.6358,-3.6684,-3.6885,-3.6885,-3.7613,-3.8191,-3.8542,-3.932,-3.9697,-3.9697,-3.9697,-3.9697,-3.9722,-4.0501,-4.1028,-4.1379,-4.2133,-4.266,-4.2986,-4.2986,-4.2986,0.0,0.0,0.0,0.0,0.0,0.0,0.0,0.0,-4.2986,-4.2986,-4.2986,-4.2986,-4.2986,-4.2986,-4.2986,-4.3112,-4.3639,-4.379,-4.394,-4.4493,0.0,0.0,0.0,0.0,0.0,0.0,0.0,0.0,0.0,0.0,-5.35,-5.35,-5.35,-5.35,-5.35,-5.35,-5.35,-5.35,-5.35,-5.35,-5.35,-5.35,-5.35,-5.35,-5.35,-5.4081,-5.5329,-5.5416,-5.5997,-5.7274,-5.7303,-5.7303,-5.7303,-5.7303,-5.7303,-5.7303,-5.7303,-5.71,-5.6752,-5.6897,-5.712,-5.7306,-5.7673,-5.8178,-5.8822,-6.018,-6.0774,-6.0908,-6.1891,-6.2256,-6.2256,-6.2256,-6.2256,-6.2477,0.0,0.0,0.0,0.0,0.0,0.0,0.0,0.0,0.0,0.0,0.0,0.0,0.0,0.0,0.0,0.0,0.0,0.0,-3.6358,-3.6358,-3.6433,-3.6609,-3.6985,-3.7362,-3.7713,-3.809,-3.8467,-3.8868,-3.9421,-3.9697,-3.9697,-3.9697,-3.9697,-3.9722,-4.045,-4.0978,-4.1379,-4.2108,-4.2635,-4.2986,-4.2986,-4.2986,0.0,0.0,0.0,0.0,0.0,0.0,0.0,0.0,-4.2986,-4.2986,-4.2986,-4.2986,-4.2986,-4.2986,-4.2986,-4.3112,-4.3639,-4.3915,-4.4141,0.0,0.0,0.0,0.0,0.0,0.0,0.0,0.0,0.0,0.0,0.0,0.0,0.0,-5.35,-5.35,-5.35,-5.35,-5.35,-5.35,-5.35,-5.35,-5.35,-5.35,-5.35,-5.35,-5.3704,-5.4284,-5.5358,-5.562,-5.62,-5.7274,-5.7303,-5.7303,-5.7303,-5.7303,-5.7303,-5.7303,-5.7303,-5.71,-5.6694,-5.6694,-5.6694,-5.6834,-5.74,-5.7827,-5.8225,-5.9362,-5.9895,-5.997,-6.0979,-6.1286,-6.1286,-6.1286,-6.1286,-6.1472,0.0,0.0,0.0,0.0,0.0,0.0,0.0,0.0,0.0,0.0,0.0,0.0,0.0,0.0,0.0,0.0,0.0,0.0,-3.6383,-3.6383,-3.6634,-3.7161,-3.7186,-3.7713,-3.8843,-3.8868,-3.8868,-3.8868,-3.9421,-3.9697,-3.9697,-3.9697,-3.9697,-3.9747,-4.0852,-4.1329,-4.1404,-4.2509,-4.2961,-4.2986,-4.2986,-4.2986,-4.2986,0.0,0.0,0.0,0.0,0.0,0.0,0.0,-4.2986,-4.2986,-4.2986,-4.2986,-4.2986,-4.2986,-4.2986,-4.3112,-4.3664,-4.4192,-4.4618,0.0,0.0,0.0,0.0,0.0,0.0,0.0,0.0,0.0,0.0,0.0,0.0,-5.329,-5.35,-5.35,-5.35,-5.35,-5.35,-5.35,-5.35,-5.35,-5.35,-5.35,-5.35,-5.35,-5.4139,-5.4778,-5.5387,-5.6055,-5.6694,-5.7274,-5.7303,-5.7303,-5.7303,-5.7303,-5.7303,-5.7303,-5.7303,-5.7303,-5.7245,-5.5997,-5.6333,-5.7722,-5.7467,-5.7883,-5.8694,-5.8991,-5.9099,-5.9099,-5.9099,-5.9099,-5.9099,-5.9099,-5.9099,-5.9308,0.0,0.0,0.0,0.0,0.0,0.0,0.0,0.0,0.0,0.0,0.0,0.0,0.0,0.0,0.0,0.0,0.0,0.0,-3.7513,-3.7513,-3.7588,-3.7764,-3.8165,-3.8517,-3.8868,-3.9245,-3.9446,-3.9446,-3.9622,-3.9697,-3.9697,-3.9697,-3.9697,-3.9722,-4.045,-4.0978,-4.1379,-4.2108,-4.2635,-4.2986,-4.2986,-4.2986,-4.2986,0.0,0.0,0.0,0.0,0.0,0.0,0.0,0.0,0.0,-4.2986,-4.2986,-4.2986,-4.2986,-4.2986,-4.3187,-4.4116,-4.394,0.0,0.0,0.0,0.0,0.0,0.0,0.0,0.0,0.0,0.0,-5.0238,0.0,0.0,-5.329,-5.35,-5.35,-5.35,-5.35,-5.35,-5.35,-5.35,-5.35,-5.35,-5.35,-5.35,-5.35,-5.4139,-5.4778,-5.5387,-5.6055,-5.6694,-5.7274,-5.7303,-5.7303,-5.7303,-5.7303,-5.7303,-5.7303,-5.6868,-5.6665,-5.6665,-5.6945,-5.7056,-5.7137,-5.7951,-5.8406,-5.8694,-5.8991,-5.9099,-5.9099,-5.9099,-5.9099,-5.9099,-5.9099,-5.9099,-5.9308,0.0,0.0,0.0,0.0,0.0,0.0,0.0,0.0,0.0,0.0,0.0,0.0,0.0,0.0,0.0,0.0,0.0,0.0,0.0,-3.8015,-3.8115,-3.8341,-3.8693,-3.8969,-3.9195,-3.9521,-3.9697,-3.9697,-3.9697,-3.9697,-3.9697,-3.9697,-3.9697,-3.9722,-4.0275,-4.0827,-4.1379,-4.1907,-4.2484,-4.2986,-4.2986,-4.2986,-4.2986,0.0,0.0,0.0,0.0,0.0,0.0,0.0,0.0,0.0,-4.2986,-4.2986,-4.2986,-4.2986,-4.2986,-4.3112,-4.379,-4.3639,0.0,0.0,0.0,0.0,0.0,0.0,0.0,0.0,0.0,-4.7769,-4.8992,-4.9788,0.0,-5.2487,-5.2837,-5.2943,-5.3395,-5.35,-5.35,-5.35,-5.35,-5.35,-5.35,-5.35,-5.35,-5.35,-5.4342,-5.5039,-5.5387,-5.6258,-5.6926,-5.7303,-5.7303,-5.7303,-5.7528,-5.7416,-5.7416,-5.764,-5.7178,-5.7003,-5.7114,-5.7342,-5.7452,-5.7555,-5.8515,-5.8882,-5.8882,-5.8991,-5.9099,-5.9099,-5.9099,-5.9099,-5.9099,-5.9099,-5.9099,-5.9308,0.0,0.0,0.0,0.0,0.0,0.0,0.0,0.0,0.0,0.0,0.0,0.0,0.0,0.0,0.0,0.0,0.0,0.0,0.0,0.0,-3.8391,-3.8919,-3.8944,-3.917,-3.9697,-3.9697,-3.9697,-3.9697,-3.9697,-3.9697,-3.9697,-3.9697,-3.9697,-3.9722,-4.0275,-4.0827,-4.1379,-4.1907,-4.2484,-4.2986,-4.2986,-4.2986,-4.2986,-4.2986,0.0,0.0,0.0,0.0,0.0,0.0,0.0,0.0,-4.2986,-4.2986,-4.2986,-4.2986,-4.2986,-4.2986,-4.3037,0.0,0.0,0.0,0.0,0.0,0.0,0.0,0.0,-4.6301,0.0,-4.6636,-4.786,-4.8094,-4.8877,-5.1127,-5.1565,-5.2028,-5.3184,-5.3395,-5.35,-5.35,-5.35,-5.35,-5.35,-5.35,-5.35,-5.35,-5.4691,-5.5416,-5.5416,-5.6607,-5.7303,-5.7303,-5.7303,-5.7528,-5.7781,-5.7528,-5.764,-5.8195,-5.8003,-5.8003,-5.8195,-5.7386,-5.7555,-5.8803,-5.8991,-5.9099,-5.9099,-5.9099,-5.9099,-5.9099,-5.9099,-5.9099,-5.9099,-5.9099,-5.9099,-5.9308,0.0,0.0,0.0,0.0,0.0,0.0,0.0,0.0,0.0,0.0,0.0,0.0,0.0,0.0,0.0,0.0,0.0,0.0,0.0,0.0,-3.9396,-3.9521,-3.9521,-3.9572,-3.9697,-3.9697,-3.9697,-3.9697,-3.9697,-3.9697,-3.9697,-3.9697,-3.9697,-3.9722,-4.0275,-4.0827,-4.1379,-4.1907,-4.2484,-4.2986,-4.2986,-4.2986,-4.2986,-4.2986,-4.2986,0.0,0.0,0.0,0.0,0.0,0.0,0.0,-4.2986,-4.2986,-4.2986,-4.2986,-4.2986,-4.3062,-4.3514,-4.3388,0.0,0.0,0.0,0.0,0.0,-4.5598,-4.6301,-4.6301,-4.6301,-4.6636,-4.786,-4.8094,-4.8532,-5.0014,-5.1127,-5.1811,-5.2028,-5.2943,-5.35,-5.35,-5.35,-5.35,-5.35,-5.35,-5.35,-5.35,-5.4691,-5.5416,-5.5416,-5.6607,-5.7303,-5.7303,-5.7557,-5.7781,-5.7781,-5.8003,-5.8085,-5.8195,-5.8085,-5.8335,-5.8555,-5.8406,-5.8545,-5.8991,-5.9099,-5.9099,-5.9099,-5.9099,-5.9099,-5.9099,-5.9099,-5.9099,-5.9099,-5.9099,-5.9099,-5.9308,0.0,0.0,0.0,0.0,0.0,0.0,0.0,0.0,0.0,0.0,0.0,0.0,0.0,0.0,0.0,0.0,0.0,0.0,0.0,0.0,-3.9697,-3.9697,-3.9697,-3.9697,-3.9697,-3.9697,-3.9697,-3.9697,-3.9697,-3.9697,-3.9697,-3.9697,-3.9697,-3.9722,-4.0275,-4.0827,-4.1379,-4.1907,-4.2484,-4.2986,-4.2986,-4.2986,-4.2986,-4.2986,-4.2986,-4.2986,-4.2986,0.0,0.0,0.0,0.0,0.0,0.0,0.0,-4.2986,-4.2986,-4.2986,-4.3037,-4.3338,0.0,0.0,-4.3338,0.0,0.0,-4.4618,-4.5497,-4.6301,-4.6301,-4.6301,-4.6541,-4.7087,-4.7205,-4.7652,-4.8877,-4.9562,-5.0323,-5.1565,-5.2244,-5.2837,-5.3395,-5.35,-5.35,-5.35,-5.35,-5.3646,-5.3965,-5.4865,-5.5562,-5.5881,-5.6781,-5.7416,-5.7528,-5.7669,-5.7892,-5.8225,-5.8225,-5.8335,-5.8664,-5.8555,-5.8555,-5.8882,-5.8882,-5.8991,-5.9099,-5.9099,-5.9099,-5.9099,-5.9099,-5.9099,-5.9099,-5.9099,-5.9099,-5.9099,-5.9099,-5.9099,-5.9308,0.0,0.0,0.0,0.0,0.0,0.0,0.0,0.0,0.0,0.0,0.0,0.0,0.0,0.0,0.0,0.0,0.0,0.0,0.0,0.0,0.0,-3.9697,-3.9697,-3.9697,-3.9697,-3.9697,-3.9697,-3.9697,-3.9697,0.0,0.0,0.0,-3.9747,-3.9848,-4.04,-4.0953,-4.1505,-4.2057,-4.2559,-4.2986,-4.2986,-4.2986,-4.2986,-4.2986,-4.2986,-4.2986,-4.2986,-4.2986,-4.2986,-4.2986,0.0,0.0,0.0,0.0,-4.2986,-4.2986,-4.2986,-4.2986,-4.2986,0.0,-4.2986,-4.2986,-4.374,0.0,-4.4593,-4.5422,-4.62,-4.6301,-4.6301,-4.6301,-4.6301,-4.6301,-4.6636,-4.7652,-4.7977,-4.8762,-5.0796,-5.1456,-5.2028,-5.3049,-5.3395,-5.35,-5.35,-5.35,-5.3791,-5.4458,-5.5068,-5.5707,-5.6374,-5.6984,-5.7528,-5.7781,-5.7892,-5.8225,-5.8694,-5.8445,-5.8664,-5.9099,-5.8882,-5.8912,-5.9099,-5.9099,-5.9099,-5.9099,-5.9099,-5.9099,-5.9099,-5.9099,-5.9099,-5.9099,-5.9099,-5.9099,-5.9099,-5.9099,-5.9099,-5.9308,0.0,0.0,0.0,0.0,0.0,0.0,0.0,0.0,0.0,0.0,0.0,0.0,0.0,0.0,0.0,0.0,0.0,0.0,-3.9697,0.0,0.0,-3.9697,-3.9697,-3.9697,-3.9697,-3.9697,-3.9697,-3.9697,-3.9697,0.0,0.0,0.0,0.0,-4.0425,-4.0978,-4.153,-4.2082,-4.2635,-4.2911,-4.2986,-4.2986,-4.2986,-4.2986,-4.2986,-4.2986,-4.2986,-4.2986,-4.2986,-4.2986,-4.2986,-4.2986,0.0,0.0,0.0,-4.2986,-4.2986,-4.2986,-4.2986,0.0,0.0,-4.2986,0.0,-4.3438,-4.4041,0.0,0.0,-4.5723,0.0,-4.6301,-4.6301,-4.6301,-4.6301,-4.6301,-4.6541,-4.7416,-4.821,-4.8532,-5.0323,-5.1783,-5.192,-5.2837,-5.35,-5.35,-5.35,-5.3791,-5.4458,-5.5068,-5.5707,-5.6374,-5.7207,-5.7781,-5.7781,-5.8335,-5.8584,-5.8694,-5.8882,-5.8991,-5.9099,-5.9099,-5.9099,-5.9099,-5.9099,-5.9099,-5.9099,-5.9099,-5.9099,-5.9099,-5.9099,-5.9099,-5.9099,-5.9099,-5.9099,-5.9099,-5.9099,-5.9099,-5.9308,0.0,0.0,0.0,0.0,0.0,0.0,0.0,0.0,0.0,0.0,0.0,0.0,0.0,0.0,0.0,-3.9697,-3.9697,-3.9697,-3.9697,-3.9697,-3.9697,-3.9697,-3.9697,-3.9697,-3.9697,-3.9697,-3.9848,-4.0149,0.0,0.0,0.0,-4.0626,-4.0576,0.0,0.0,0.0,-4.2183,-4.2735,-4.2986,-4.2986,-4.2986,-4.2986,-4.2986,-4.2986,-4.2986,-4.2986,-4.2986,-4.2986,-4.2986,-4.2986,-4.2986,-4.2986,-4.2986,0.0,0.0,0.0,-4.2986,0.0,-4.2986,-4.2986,-4.2986,0.0,-4.3388,-4.394,-4.4493,0.0,-4.5648,-4.62,-4.6301,-4.6301,-4.6301,-4.6301,-4.6301,-4.6301,-4.6755,-4.7324,-4.7977,-4.8992,-4.9901,-5.0573,-5.1155,-5.1484,-5.1484,-5.1484,-5.2234,-5.3913,-5.4226,-5.516,-5.6868,-5.727,-5.764,-5.7974,-5.8335,-5.8555,-5.8882,-5.8991,-5.9099,-5.9099,-5.9099,-5.9099,-5.9099,-5.9099,-5.9099,-5.9099,-5.9099,-5.9099,-5.9099,-5.9099,-5.9099,-5.9099,-5.9099,-5.9099,-5.9099,-5.9099,-5.9099,-5.9308,0.0,0.0,0.0,0.0,0.0,0.0,0.0,0.0,0.0,0.0,0.0,0.0,0.0,0.0,0.0,0.0,-3.9697,-3.9697,-3.9697,-3.9697,-3.9697,-3.9697,-3.9697,-3.9697,-3.9697,-3.9823,-4.0099,0.0,0.0,0.0,-4.1329,-4.148,-4.1329,0.0,-4.1781,0.0,0.0,0.0,0.0,-4.2986,-4.2986,-4.2986,-4.2986,-4.2986,-4.2986,-4.2986,-4.2986,-4.2986,-4.2986,-4.2986,-4.2986,-4.2986,-4.2986,-4.2986,0.0,0.0,0.0,0.0,0.0,0.0,-4.2986,-4.2986,-4.3288,-4.374,0.0,0.0,-4.5422,0.0,-4.6225,-4.6301,-4.6301,-4.6301,-4.6301,-4.6301,-4.6301,-4.6636,-4.7534,-4.786,-4.8416,-4.9335,-4.9675,-4.9901,-4.9901,-4.9901,-5.0758,-5.2992,-5.3444,-5.4573,-5.6651,-5.7191,-5.764,-5.8195,-5.8305,-5.8555,-5.9099,-5.9099,-5.9099,-5.9099,-5.9099,-5.9099,-5.9099,-5.9099,-5.9099,-5.9099,-5.9099,-5.9099,-5.9099,-5.9099,-5.9099,-5.9099,-5.9099,-5.9099,-5.9099,-5.9099,-5.9099,-5.9308,0.0,0.0,0.0,0.0,0.0,0.0,0.0,0.0,0.0,0.0,0.0,0.0,-3.9594,-3.9697,-3.9697,-3.9697,-3.9697,-3.9697,-3.9697,-3.9697,-3.9697,-3.9697,-3.9697,0.0,-3.9697,-4.0199,-4.0501,0.0,0.0,0.0,-4.1354,-4.1882,-4.2108,-4.2057,-4.2133,-4.2434,-4.2936,0.0,0.0,0.0,-4.2986,-4.2986,-4.2986,-4.2986,-4.2986,-4.2986,-4.2986,-4.2986,-4.2986,-4.2986,-4.2986,-4.2986,-4.2986,-4.2986,-4.2986,0.0,0.0,0.0,0.0,-4.2986,0.0,-4.2986,-4.3011,0.0,0.0,0.0,0.0,-4.5422,-4.5949,-4.6301,-4.6301,-4.6301,-4.6301,-4.6301,-4.6301,-4.6301,-4.6421,-4.7416,-4.8094,-4.821,-4.9221,-4.9901,-4.9901,-4.9901,-5.0417,-5.17,-5.2875,-5.4119,-5.5444,-5.6936,-5.7892,-5.8195,-5.8555,-5.8773,-5.9099,-5.9099,-5.9099,-5.9099,-5.9099,-5.9099,-5.9099,-5.9099,-5.9099,-5.9099,-5.9099,-5.9099,-5.9099,-5.9099,-5.9099,-5.9099,-5.9099,-5.9099,-5.9099,-5.9099,-5.9099,-5.9308,0.0,0.0,0.0,0.0,0.0,0.0,0.0,0.0,0.0,0.0,0.0,0.0,0.0,-3.9697,-3.9697,-3.9697,-3.9697,-3.9697,-3.9697,-3.9697,-3.9697,-3.9697,-3.9697,-3.9848,-4.0224,-4.0425,0.0,0.0,0.0,-4.2032,-4.2384,-4.2585,-4.2685,-4.2685,-4.2685,-4.2785,-4.2986,-4.2986,0.0,0.0,0.0,0.0,0.0,0.0,0.0,0.0,0.0,0.0,0.0,-4.2986,-4.2986,-4.2986,0.0,0.0,0.0,0.0,0.0,0.0,0.0,0.0,0.0,-4.2986,-4.2986,-4.3112,-4.3689,-4.4217,-4.4794,-4.5372,-4.5924,-4.6301,-4.6301,-4.6301,-4.6301,-4.6301,-4.6301,-4.6301,-4.6301,-4.6636,-4.6993,-4.6993,-4.7324,-4.756,-4.756,-4.756,-4.8354,-5.0459,-5.1014,-5.247,-5.5211,-5.5992,-5.6822,-5.7892,-5.8225,-5.8664,-5.9099,-5.9099,-5.9099,-5.9099,-5.9099,-5.9099,-5.9099,-5.9099,-5.9099,-5.9099,-5.9099,-5.9099,-5.9099,-5.9099,-5.9099,-5.9099,-5.9099,-5.9099,-5.9099,-5.9099,-5.9099,-5.9308,0.0,0.0,0.0,0.0,0.0,0.0,0.0,0.0,0.0,0.0,0.0,0.0,0.0,0.0,-3.9697,-3.9697,-3.9697,-3.9697,-3.9697,-3.9697,-3.9772,-3.9973,-3.9973,-4.0224,-4.0777,-4.0978,0.0,0.0,0.0,0.0,0.0,-4.2986,-4.2986,-4.2986,-4.2986,-4.2986,0.0,0.0,0.0,-4.2986,0.0,0.0,-4.2986,0.0,0.0,0.0,0.0,0.0,0.0,0.0,0.0,0.0,0.0,0.0,0.0,0.0,0.0,0.0,-4.2986,0.0,0.0,0.0,0.0,-4.3062,-4.3438,0.0,-4.4518,-4.507,-4.5648,-4.61,-4.6276,-4.6301,-4.6301,-4.6301,-4.6301,-4.6301,-4.6301,-4.6301,-4.6301,-4.6301,-4.6301,-4.6301,-4.6301,-4.6301,-4.704,-4.8781,-4.9499,0.0,-5.3727,-5.4449,-5.5383,-5.6566,-5.7751,-5.8415,-5.8495,-5.8882,-5.9099,-5.9099,-5.9099,-5.9099,-5.9099,-5.9099,-5.9099,-5.9099,-5.9099,-5.9099,-5.9099,-5.9099,-5.9099,-5.9099,-5.9099,-5.9099,-5.9099,-5.9099,-5.9099,-5.9308,0.0,0.0,0.0,0.0,0.0,0.0,0.0,0.0,0.0,-3.7998,0.0,0.0,0.0,0.0,0.0,-3.9747,-3.9747,-3.9747,-3.9747,-3.9747,-3.9973,-4.0526,-4.0551,-4.0802,-4.1354,-4.1882,-4.2158,0.0,0.0,0.0,0.0,0.0,-4.2986,-4.2986,-4.2986,-4.2986,-4.2986,0.0,-4.2986,-4.2986,0.0,-4.2986,-4.2986,0.0,0.0,0.0,-4.2986,-4.2986,0.0,-4.2986,0.0,0.0,0.0,0.0,0.0,0.0,0.0,0.0,0.0,0.0,0.0,0.0,0.0,0.0,-4.2986,0.0,-4.3966,-4.4518,-4.507,-4.5648,-4.62,-4.6301,-4.6301,-4.6301,-4.6301,-4.6301,-4.6301,-4.6301,-4.6301,-4.6301,-4.6301,-4.6301,-4.6301,-4.6301,-4.6552,-4.7104,-4.8807,-5.008,-5.0655,-5.2459,-5.3724,-5.4414,-5.7133,-5.8085,-5.7187,-5.8386,-5.8991,-5.8991,-5.9099,-5.9099,-5.9099,-5.9099,-5.9099,-5.9099,-5.9099,-5.9099,-5.9099,-5.9099,-5.9099,-5.9099,-5.9099,-5.9099,-5.9099,-5.9099,-5.9129,-5.9308,0.0,0.0,0.0,0.0,0.0,0.0,-3.5402,-3.6748,-3.7956,0.0,0.0,0.0,0.0,-4.0877,-4.0877,-4.0877,-4.0877,-4.0877,-4.0877,-4.0877,-4.0953,-4.1103,-4.1103,-4.1354,-4.1907,-4.2082,-4.2359,0.0,-4.2911,-4.2986,-4.2986,-4.2986,-4.2986,0.0,-4.2986,-4.2986,-4.2986,-4.2986,0.0,0.0,-4.2986,-4.2986,0.0,0.0,0.0,0.0,0.0,-4.2986,-4.2986,0.0,-4.2986,-4.2986,0.0,0.0,0.0,0.0,0.0,0.0,-4.2986,0.0,0.0,0.0,0.0,0.0,0.0,0.0,-4.3966,-4.4518,-4.507,-4.5648,-4.62,-4.6301,-4.6301,-4.6301,-4.6301,-4.6301,-4.6301,-4.6301,-4.6301,-4.6301,-4.6301,-4.6301,-4.6301,-4.6301,-4.6552,0.0,-4.7977,-4.9127,-5.0655,-5.2459,-5.3724,-5.4057,-5.4769,-5.5355,-5.556,-5.6736,-5.744,-5.7804,-5.8634,-5.9099,-5.9099,-5.9099,-5.9099,-5.9099,-5.9099,-5.9099,-5.9099,-5.9099,-5.9099,-5.9099,-5.9099,-5.9099,-5.9099,-5.9099,-5.9398,-5.9937,0.0,0.0,0.0,0.0,0.0,-3.5093,-3.5093,-3.6121,-3.7247,0.0,0.0,0.0,0.0,0.0,-4.1329,-4.1329,-4.1329,-4.1329,-4.1329,-4.1329,-4.143,-4.1656,-4.1681,-4.1932,-4.2484,-4.2509,-4.266,-4.2986,-4.2986,-4.2986,-4.2961,-4.2735,-4.2635,0.0,0.0,0.0,0.0,0.0,0.0,0.0,-4.2986,0.0,0.0,-4.2986,-4.2986,0.0,0.0,0.0,-4.2986,-4.2986,-4.2986,0.0,0.0,0.0,0.0,0.0,0.0,0.0,0.0,0.0,0.0,0.0,0.0,0.0,-4.2986,-4.3212,-4.3689,0.0,-4.4895,-4.5372,-4.615,-4.6301,-4.6301,-4.6301,-4.6301,-4.6301,-4.6301,-4.6301,-4.6301,-4.6301,-4.6301,-4.6301,-4.6301,-4.6301,-4.6451,-4.6753,-4.728,-4.828,-4.9816,-5.1698,-5.2508,-5.2262,-5.3335,-5.3937,-5.4057,-5.5327,-5.6165,-5.6423,-5.7245,-5.7611,-5.7611,-5.7611,-5.7833,-5.8276,-5.8276,-5.8634,-5.9099,-5.9099,-5.9099,-5.9099,-5.9099,-5.9099,-5.9099,-5.9099,-5.9518,-6.0176,0.0,0.0,-3.4572,-3.4159,-3.4217,-3.4217,-3.4217,-3.5243,-3.6391,0.0,-3.8989,-4.0123,0.0,-4.1397,-4.153,-4.153,-4.153,-4.153,-4.153,-4.153,-4.1731,-4.2233,-4.2258,-4.2484,-4.2961,-4.2986,-4.2986,-4.2986,-4.2986,-4.2936,-4.2886,-4.2384,-4.2108,-4.2057,0.0,0.0,0.0,0.0,0.0,-4.2737,-4.2961,-4.2986,0.0,0.0,-4.2986,-4.2986,-4.2986,-4.2986,-4.2986,-4.2986,-4.2986,0.0,0.0,0.0,0.0,0.0,-4.2986,0.0,0.0,0.0,0.0,0.0,0.0,0.0,-4.2986,-4.2986,-4.3288,0.0,-4.4618,-4.497,-4.61,-4.6301,-4.6301,-4.6301,-4.6301,-4.6301,-4.6301,-4.6301,-4.6301,-4.6301,-4.6301,-4.6301,-4.6301,-4.6301,-4.6301,-4.6301,-4.6828,-4.7606,-4.8711,-5.0304,-5.0865,-5.0104,-5.2262,-5.3214,-5.2658,-5.3937,-5.4769,-5.515,-5.5295,-5.5412,-5.5412,-5.5412,-5.5964,-5.6962,-5.6962,-5.7693,-5.8634,-5.8634,-5.8882,-5.9099,-5.9099,-5.9099,-5.9099,-5.9099,-5.9518,-6.0176,-3.3948,-3.4053,-3.4138,-3.4306,-3.4533,-3.478,-3.478,-3.6082,-3.7502,-3.8684,-4.0901,0.0,0.0,-4.2078,-4.266,-4.266,-4.266,-4.266,-4.266,-4.266,-4.271,-4.2811,-4.2811,-4.2861,-4.2986,-4.2986,-4.2986,-4.2986,-4.2986,-4.276,-4.2308,-4.2208,-4.1907,-4.1505,0.0,0.0,0.0,0.0,0.0,-4.1558,-4.2625,0.0,-4.2986,-4.2986,-4.2986,-4.2986,-4.2986,-4.2986,-4.2986,-4.2986,-4.2986,-4.2986,0.0,0.0,0.0,-4.2986,0.0,0.0,0.0,0.0,0.0,0.0,0.0,0.0,-4.2986,-4.2986,-4.3288,0.0,-4.4618,-4.497,-4.61,-4.6301,-4.6301,-4.6301,-4.6301,-4.6301,-4.6301,-4.6301,-4.6301,-4.6301,-4.6301,-4.6301,-4.6301,-4.6301,-4.6301,-4.6301,-4.6828,-4.7606,-4.8711,-4.9115,-4.9495,-4.9719,-5.0206,-5.0461,-5.0588,-5.2139,-5.312,-5.351,-5.4797,-5.5412,-5.5412,-5.5412,-5.5528,-5.5732,-5.5732,-5.5848,-5.6107,-5.6107,-5.7245,-5.9099,-5.9099,-5.9099,-5.9099,-5.9099,-5.9518,-6.0176,-3.3922,-3.4047,-3.4173,-3.4423,-3.4548,-3.4673,-3.4673,-3.552,-3.646,-3.7648,-3.9545,0.0,0.0,0.0,-4.2263,-4.2961,-4.2986,-4.2986,-4.2986,-4.2986,-4.2986,-4.2986,-4.2986,-4.2986,-4.2986,-4.2986,-4.2986,-4.2986,-4.271,-4.2434,-4.2158,-4.1605,-4.1329,-4.1329,-4.1053,0.0,0.0,0.0,-4.1977,-4.1668,-4.1914,0.0,-4.1215,-4.181,-4.2037,-4.215,-4.2737,-4.2986,-4.2986,-4.2986,-4.2986,0.0,-4.2986,-4.2986,-4.2986,0.0,-4.2986,-4.2986,0.0,0.0,0.0,-4.2986,0.0,0.0,0.0,-4.2986,-4.3288,-4.4392,-4.4618,-4.497,-4.61,-4.6301,-4.6301,-4.6301,-4.6301,-4.6301,-4.6301,-4.6301,-4.6301,-4.6301,-4.6301,-4.6301,-4.6301,-4.6301,-4.6301,-4.6301,-4.6828,-4.7481,-4.8309,-4.8611,-4.9038,-4.9565,-4.959,-4.9719,-5.0129,-5.0968,-5.157,-5.2068,-5.2903,-5.3389,-5.351,-5.351,-5.3844,-5.4442,-5.4442,-5.4797,-5.5412,-5.5412,-5.6107,-5.7358,-5.7915,-5.8525,-5.9099,-5.9099,-5.9518,-6.0176,-3.3796,-3.4047,-3.4173,-3.4173,-3.4298,-3.4298,-3.4298,-3.4777,-3.55,0.0,0.0,0.0,0.0,0.0,0.0,0.0,-4.2849,-4.2986,-4.2986,-4.2986,-4.2986,-4.2986,-4.2986,-4.2986,-4.2986,-4.2986,-4.2986,-4.2986,-4.2434,-4.2108,-4.1982,-4.0978,-4.0752,-4.1153,-4.0489,0.0,0.0,0.0,0.0,-4.1386,0.0,-4.0268,-3.9686,-4.0384,-4.087,-4.1215,-4.2513,-4.2986,-4.2986,-4.2986,-4.2986,-4.2986,-4.2986,-4.2986,0.0,0.0,0.0,0.0,0.0,0.0,0.0,0.0,0.0,-4.2986,0.0,0.0,0.0,-4.4392,0.0,0.0,-4.61,0.0,0.0,-4.6175,0.0,0.0,0.0,-4.625,0.0,-4.6301,-4.6301,-4.6301,-4.6301,-4.6301,-4.6301,-4.6301,-4.6728,-4.7205,-4.7732,-4.8309,-4.8862,-4.9414,-4.954,-4.9719,-5.0001,-5.0129,-5.0359,-5.0867,-5.0994,-5.1246,-5.1471,-5.1596,-5.2192,-5.3146,-5.3146,-5.3724,-5.4679,-5.4679,-5.4797,-5.515,-5.6394,-5.747,-5.8415,-5.8634,-5.9071,-5.9666,-3.3418,-3.3544,-3.3544,-3.3544,-3.3796,-3.3922,-3.3922,-3.5232,-3.6194,0.0,0.0,0.0,0.0,0.0,0.0,0.0,0.0,0.0,-4.2986,0.0,-4.2986,-4.2986,-4.2986,-4.2986,-4.2986,-4.2986,-4.2986,-4.2986,-4.2434,-4.1907,-4.143,-4.0802,-4.0551,-4.0495,-3.9306,0.0,0.0,0.0,-3.9855,0.0,-3.9243,-4.0036,0.0,-3.9803,-4.0152,-4.1215,-4.2513,-4.2986,-4.2986,0.0,-4.2986,-4.2986,0.0,-4.2986,-4.2986,-4.2986,0.0,0.0,0.0,0.0,0.0,0.0,-4.2986,0.0,0.0,0.0,-4.3288,-4.4392,0.0,-4.497,-4.61,0.0,0.0,0.0,0.0,0.0,-4.5648,-4.5999,-4.6301,-4.6301,-4.6301,-4.6301,-4.6301,-4.6301,-4.6301,-4.6301,-4.6376,-4.6652,-4.7205,-4.7732,-4.8259,-4.8837,-4.9339,-4.959,-4.9719,-4.9976,-5.0129,-5.0232,-5.0867,-5.112,-5.112,-5.1471,-5.1721,-5.1846,-5.1846,-5.1944,-5.2068,-5.2068,-5.2658,-5.3844,-5.515,-5.5732,-5.5964,-5.6991,-5.747,-5.7844,-3.3418,-3.3418,0.0,-3.3418,-3.3544,-3.367,-3.367,-3.4153,-3.4984,0.0,-3.6803,0.0,0.0,0.0,0.0,0.0,0.0,-4.0846,0.0,0.0,-4.2012,-4.2986,-4.2986,-4.2986,-4.2986,-4.2986,-4.2986,-4.2986,-4.2434,-4.2032,-4.1806,-4.1254,-4.1003,-4.0896,-3.9612,0.0,-4.0111,0.0,-3.8919,0.0,0.0,0.0,0.0,-3.8246,-3.9334,-4.1215,-4.1696,-4.2375,-4.2986,0.0,-4.2986,0.0,0.0,0.0,0.0,-4.2986,0.0,0.0,0.0,0.0,0.0,0.0,0.0,0.0,-4.2986,0.0,-4.3288,0.0,0.0,0.0,0.0,0.0,0.0,0.0,-4.615,-4.6225,0.0,0.0,-4.6301,-4.6301,0.0,0.0,-4.6301,-4.6301,-4.6301,-4.6301,-4.6301,-4.6552,-4.7104,-4.7631,-4.8184,-4.8761,-4.9314,-4.959,-4.959,-4.9719,-4.9847,-5.0129,-5.0359,-5.0741,-5.112,-5.1246,-5.1471,-5.1596,-5.1596,-5.1596,-5.1596,-5.1596,-5.1944,-5.2439,-5.3025,-5.4084,-5.55,-5.5964,-5.6194,-5.6423,-3.3418,0.0,0.0,0.0,-3.3418,-3.3418,-3.3418,-3.3418,-3.3902,0.0,0.0,0.0,-3.8223,-3.8246,0.0,0.0,-3.9075,-3.9428,0.0,0.0,-4.1558,0.0,0.0,0.0,-4.2874,-4.2762,-4.2762,-4.2874,-4.2323,-4.2158,-4.2133,-4.143,-4.1204,-4.1222,0.0,-3.9014,-3.9292,0.0,-3.7901,-3.783,-3.7471,-3.7067,-3.6824,-3.7188,-3.8484,-4.0152,-4.05,-4.1215,-4.2037,-4.2375,-4.2513,0.0,-4.2849,-4.2986,-4.2986,0.0,0.0,0.0,-4.2986,0.0,0.0,0.0,0.0,0.0,0.0,0.0,0.0,0.0,0.0,0.0,0.0,0.0,0.0,-4.61,0.0,-4.625,0.0,-4.6225,0.0,0.0,0.0,0.0,0.0,-4.6301,-4.6301,-4.6301,-4.6301,-4.6476,-4.6878,-4.7531,-4.8109,-4.851,-4.9213,-4.959,-4.959,-4.959,-4.9719,-4.9976,-5.0129,-5.0359,-5.0867,-5.0994,-5.1246,-5.1471,-5.1596,-5.1596,-5.1596,-5.1596,-5.1596,-5.1596,-5.1596,-5.278,-5.4442,-5.4797,-5.4915,-5.5144,-3.3418,-3.3418,0.0,0.0,0.0,-3.3418,-3.3418,-3.3418,0.0,0.0,0.0,0.0,0.0,0.0,0.0,0.0,0.0,-4.0012,-4.0129,0.0,-4.2199,0.0,0.0,-4.2199,0.0,-4.2199,-4.2199,-4.2513,-4.1966,-4.1938,-4.2133,-4.1053,-4.0827,-4.1197,-3.8304,-3.7909,-3.9292,-3.7443,-3.6631,-3.6556,-3.7112,-3.6603,-3.5541,0.0,-3.7287,-3.7528,-3.8862,0.0,0.0,-4.0755,-4.1215,0.0,0.0,0.0,0.0,0.0,0.0,0.0,0.0,0.0,0.0,-4.2986,0.0,0.0,0.0,0.0,-4.394,0.0,0.0,0.0,0.0,0.0,-4.6125,-4.5598,-4.5974,0.0,0.0,-4.5974,-4.6301,-4.6301,-4.6301,0.0,0.0,-4.6301,-4.6301,-4.6301,-4.6301,-4.6326,-4.6326,-4.733,-4.7908,-4.7933,-4.9012,-4.959,-4.959,-4.959,-4.959,-4.959,-4.9976,-5.0129,-5.0104,-5.0741,-5.112,-5.112,-5.1471,-5.1596,-5.1596,-5.1596,-5.1596,-5.1596,-5.1596,-5.1596,-5.1846,-5.3146,-5.3631,-5.3833,0.0,0.0,0.0,0.0,0.0,0.0,0.0,-3.3418,0.0,0.0,0.0,0.0,0.0,-3.5623,-3.5971,0.0,0.0,-3.6316,-3.7243,-3.8461,0.0,0.0,0.0,-4.172,0.0,0.0,-4.211,-4.2199,-4.2026,-4.1954,-4.1828,-4.1803,-4.1638,-4.1247,-3.9255,-3.8597,0.0,0.0,0.0,0.0,0.0,-3.5767,-3.5418,0.0,-3.6603,-3.7309,-3.779,-3.8506,0.0,-3.9686,-4.0292,-4.087,-4.1239,-4.1834,-4.2425,-4.265,-4.2625,-4.2762,0.0,0.0,-4.2986,-4.2986,0.0,0.0,0.0,0.0,0.0,0.0,0.0,0.0,0.0,0.0,-4.625,-4.6075,-4.6175,-4.625,0.0,-4.62,-4.6301,-4.6301,-4.6301,-4.6301,0.0,-4.6301,-4.6301,-4.6301,-4.6301,-4.6301,-4.6301,-4.7004,-4.7556,-4.7908,-4.8661,-4.9213,-4.959,-4.959,-4.959,-4.959,-4.9719,-4.9847,-5.0129,-5.0359,-5.0614,-5.112,-5.1246,-5.1346,-5.1596,-5.1596,-5.1596,-5.1596,-5.1596,-5.1596,-5.1596,-5.2068,-5.2192,-5.2518,-3.3418,0.0,0.0,0.0,0.0,0.0,0.0,0.0,0.0,0.0,-3.4153,0.0,-3.4652,0.0,-3.4901,0.0,-3.4528,-3.5005,-3.6295,-3.7144,0.0,-3.8698,-4.0292,0.0,0.0,0.0,0.0,0.0,-4.1972,-4.1914,-4.1905,-4.1941,-4.1756,-4.1221,-3.9309,-3.8387,-3.804,-3.5997,-3.5273,0.0,0.0,-3.517,0.0,0.0,-3.5644,-3.646,0.0,-3.6824,-3.755,-3.8007,-3.8602,-3.9193,-4.0152,-4.0894,-4.1492,-4.2199,-4.2425,-4.2513,-4.2737,-4.2874,0.0,-4.3212,-4.3539,0.0,-4.4041,0.0,-4.5045,0.0,0.0,0.0,0.0,0.0,-4.6301,-4.6301,-4.6301,-4.6301,0.0,-4.6301,-4.6301,-4.6301,-4.6301,-4.6301,-4.6301,-4.6301,-4.6301,-4.6301,-4.6301,-4.6301,-4.6301,-4.6828,-4.738,-4.7883,-4.846,-4.9038,-4.959,-4.959,-4.959,-4.959,-4.959,-4.9719,-5.0001,-5.0001,-5.0385,-5.0741,-5.0867,-5.0968,-5.122,-5.122,-5.122,-5.122,-5.1346,-5.1471,-5.1471,-5.1596,-5.1596,-5.18,0.0,0.0,0.0,0.0,-3.3418,0.0,0.0,0.0,-3.3418,0.0,-3.3418,-3.3418,-3.3418,-3.3418,-3.3418,-3.3418,-3.4528,-3.5848,-3.7067,-3.7188,0.0,0.0,-3.9334,-3.9334,-3.9686,0.0,0.0,0.0,0.0,-4.172,-4.2061,-4.1569,-4.1324,-4.1163,-3.8501,0.0,-3.783,-3.5721,-3.5024,-3.5294,-3.5046,-3.4922,-3.4797,-3.4548,-3.4548,-3.4797,-3.4548,-3.4423,-3.4528,-3.5827,-3.6194,-3.666,-3.9193,-3.9896,-4.0268,-4.1606,-4.2199,-4.24,-4.24,-4.2762,-4.3137,-4.3664,-4.384,0.0,0.0,0.0,-4.5522,0.0,0.0,0.0,0.0,0.0,-4.6301,-4.6301,-4.6301,-4.6301,-4.6301,-4.6301,-4.6301,-4.6301,-4.6301,-4.6301,-4.6301,-4.6301,-4.6301,-4.6301,-4.6301,-4.6301,-4.6301,-4.6803,-4.733,-4.7883,-4.8435,-4.9012,-4.959,-4.959,-4.959,-4.959,-4.959,-4.959,-4.959,-5.0001,-5.0104,-5.0129,-5.0487,-5.0588,-5.0588,-5.0588,-5.0588,-5.0588,-5.0994,-5.112,-5.112,-5.1471,-5.1596,-5.1675,-3.3418,-3.3418,-3.3418,0.0,-3.3418,-3.3418,0.0,0.0,0.0,0.0,-3.3418,-3.3418,-3.3418,-3.3418,-3.3418,-3.3418,-3.367,0.0,0.0,0.0,0.0,-3.646,-3.8268,-3.9216,-3.9334,-4.0571,-4.1172,-4.1287,0.0,-4.1184,-4.1135,-4.1403,-4.1443,-4.1188,-3.8966,-3.8213,-3.8444,-3.5945,-3.4943,-3.5046,-3.4673,-3.4548,-3.4548,0.0,-3.4047,-3.4173,-3.4298,-3.4423,-3.4423,-3.4777,-3.5376,-3.6114,-3.6824,-3.7429,-3.8365,-3.9919,-4.0384,-4.0639,-4.1834,-4.2495,-4.3069,-4.3447,-4.4095,-4.4743,-4.5221,-4.5698,0.0,0.0,0.0,0.0,0.0,0.0,-4.6301,-4.6301,-4.6301,-4.6301,-4.6301,-4.6301,-4.6301,-4.6301,-4.6301,-4.6301,-4.6301,-4.6301,-4.6301,-4.6301,-4.6301,-4.6301,-4.6301,-4.6451,-4.6954,-4.7883,-4.8058,-4.8611,-4.959,-4.959,-4.959,-4.959,-4.959,-4.959,-4.959,-4.9719,-4.9847,-5.0129,-5.0232,-5.0359,-5.0588,-5.0588,-5.0588,-5.0588,-5.0715,-5.0867,-5.112,-5.1471,-5.1596,-5.1622,-3.3418,0.0,0.0,-3.3418,0.0,0.0,-3.3418,-3.3418,0.0,-3.3418,-3.3418,0.0,-3.3418,-3.3418,-3.3418,-3.3418,-3.3418,0.0,-3.4278,0.0,0.0,-3.6215,-3.7648,-3.8625,-3.9216,-4.0571,0.0,-4.1172,0.0,-4.1142,-4.0942,-4.1257,-4.1347,-4.1217,-3.9593,-3.8766,-3.841,-3.6013,-3.4922,-3.4797,-3.4423,-3.4173,0.0,-3.3796,-3.367,-3.367,-3.3922,-3.3922,-3.3922,-3.3922,-3.4278,-3.4901,-3.55,-3.5971,-3.6824,-3.8246,-3.9193,-3.9966,-4.1065,-4.2074,-4.302,-4.3746,-4.4432,-4.5072,-4.556,-4.5955,-4.6301,-4.6301,-4.6301,-4.6301,-4.6301,0.0,0.0,-4.6301,-4.6301,-4.6301,0.0,0.0,0.0,-4.6301,-4.6301,-4.6301,-4.6301,-4.6301,-4.6301,-4.6301,-4.6301,-4.6301,-4.6301,-4.6301,-4.6702,-4.7531,-4.7782,-4.8335,-4.9213,-4.9464,-4.959,-4.959,-4.959,-4.959,-4.959,-4.959,-4.9719,-4.9847,-4.9847,-4.9976,-5.0206,-5.0206,-5.0206,-5.0232,-5.0359,-5.0614,-5.0867,-5.122,-5.1471,-5.1596,0.0,0.0,0.0,0.0,0.0,0.0,0.0,-3.3418,0.0,-3.3418,0.0,-3.3418,-3.3418,-3.3418,-3.3418,-3.3418,0.0,-3.3902,-3.5005,-3.4027,-3.4507,-3.7188,-3.7309,-3.8029,-3.9474,-4.0571,-4.1172,0.0,0.0,-4.1172,-4.1172,-4.1172,-4.1172,-4.1172,0.0,0.0,0.0,-3.5644,-3.4797,-3.4673,-3.4047,-3.3796,-3.3796,-3.3544,-3.3418,-3.3418,-3.3418,-3.3418,-3.3418,-3.3418,-3.3418,-3.3544,-3.4757,-3.5129,-3.5376,-3.6703,-3.8171,-3.9636,-4.024,-4.1685,-4.3223,-4.4154,-4.4689,-4.5126,-4.5597,-4.5939,-4.618,-4.618,-4.6301,-4.6301,-4.6301,-4.6301,-4.6301,-4.6301,-4.6301,0.0,0.0,0.0,0.0,0.0,-4.6301,0.0,-4.6301,-4.6301,-4.6301,-4.6301,-4.6301,-4.6301,-4.6301,-4.6301,-4.6577,-4.7104,-4.7631,-4.8184,-4.8761,-4.9314,-4.959,-4.959,-4.959,-4.959,-4.959,-4.959,-4.959,-4.959,-4.959,-4.959,-4.959,-4.959,-4.959,-4.959,-4.9847,-5.0232,-5.0614,-5.0867,-5.1246,-5.1471,0.0,0.0,0.0,0.0,0.0,-3.3418,-3.3418,-3.3418,-3.3418,-3.3418,-3.3418,-3.3418,-3.3418,-3.3418,-3.3418,-3.3418,-3.3418,0.0,0.0,0.0,0.0,-3.7188,-3.7309,-3.8387,-4.0803,-4.1057,-4.1172,0.0,0.0,-4.1172,-4.1172,-4.1172,-4.1172,-4.1172,0.0,0.0,-3.6237,-3.4652,0.0,-3.4047,-3.367,-3.3544,-3.3418,-3.3418,-3.3418,-3.3418,-3.3418,-3.3418,-3.3418,-3.3418,-3.3418,-3.3418,-3.367,-3.3796,-3.4027,-3.5376,-3.6961,-3.8631,-3.9831,-4.1707,-4.353,-4.3941,-4.4476,-4.4964,-4.5306,-4.5696,-4.5939,-4.5939,-4.6059,-4.6301,-4.6301,-4.6301,-4.6301,-4.6301,0.0,0.0,0.0,0.0,0.0,0.0,-4.6301,-4.6301,-4.6301,-4.6301,-4.6301,-4.6301,-4.6301,-4.6301,-4.6301,-4.6301,-4.6577,0.0,-4.7631,-4.8184,0.0,-4.9314,-4.959,-4.959,-4.959,-4.959,-4.959,-4.959,-4.959,-4.959,-4.959,-4.959,-4.959,-4.959,-4.959,-4.959,-4.9719,-4.9847,-5.0232,-5.0232,-5.0487,-5.0842,0.0,0.0,0.0,0.0,0.0,0.0,0.0,-3.375,-3.3672,-3.3457,-3.3418,-3.3418,-3.3418,-3.3418,-3.3418,-3.3418,-3.3418,-3.3418,-3.3418,-3.3418,-3.4507,-3.7188,-3.7309,-3.8506,-4.1172,-4.1172,-4.1172,-4.1172,0.0,-4.1172,-4.1172,-4.1172,-4.1172,-4.1057,0.0,-3.791,0.0,0.0,-3.3922,-3.3922,-3.3544,-3.3418,-3.3418,-3.3418,-3.3418,-3.3418,-3.3418,-3.3418,-3.3418,-3.3418,-3.3418,-3.3418,-3.3418,-3.3418,-3.3583,-3.4432,-3.6373,-3.8363,-3.9489,-4.1614,-4.3577,-4.3988,-4.4523,-4.484,-4.4963,-4.5331,-4.5574,-4.5817,-4.5939,-4.6059,-4.6301,-4.6301,-4.6301,0.0,0.0,0.0,0.0,0.0,-4.6301,0.0,0.0,0.0,-4.5281,-4.5281,-4.5525,-4.6301,-4.6301,-4.6301,-4.6301,-4.6301,-4.6426,0.0,0.0,0.0,-4.8309,0.0,-4.959,-4.959,-4.959,-4.959,-4.959,-4.959,-4.959,-4.959,-4.959,-4.959,-4.959,-4.959,-4.959,-4.959,-4.959,-4.9719,-4.9847,-5.0001,-5.0232,-5.0487,0.0,-3.4707,0.0,0.0,-3.4707,-3.459,-3.4258,-3.4199,-3.4023,-3.3496,-3.3418,-3.3418,-3.3418,-3.3418,-3.3418,-3.3418,-3.3418,-3.3418,-3.3418,-3.3418,-3.4383,-3.6824,-3.6946,-3.8149,-4.0687,-4.0455,-4.0687,0.0,0.0,-4.0942,-4.1172,-4.1172,-4.1057,-4.0687,0.0,0.0,0.0,-3.4777,-3.3796,-3.3796,-3.3544,-3.3418,-3.3418,-3.3418,-3.3418,-3.3418,-3.3418,-3.3418,-3.3418,-3.3418,-3.3418,-3.3418,-3.3418,-3.3418,-3.3496,-3.3945,-3.6121,-3.8481,-3.9336,-4.1558,-4.3794,-4.4227,-4.447,-4.4717,-4.4717,-4.4963,-4.5208,-4.5574,-4.5696,-4.5817,-4.618,-4.6301,-4.6301,-4.6301,0.0,0.0,0.0,0.0,-4.6301,0.0,-4.6059,-4.555,-4.4767,-4.4251,-4.4374,-4.5793,-4.5914,-4.5914,-4.5914,-4.618,0.0,0.0,-4.723,-4.7782,-4.7908,-4.8912,-4.949,-4.959,-4.959,-4.959,-4.959,-4.959,-4.959,-4.959,-4.959,-4.959,-4.959,-4.959,-4.959,-4.959,-4.959,-4.959,-4.959,-4.9847,-5.0001,-5.0104,0.0,0.0,0.0,0.0,0.0,-3.4687,-3.4648,-3.4648,-3.4336,-3.3535,-3.3418,-3.3418,-3.3418,-3.3418,-3.3418,-3.3418,-3.3418,-3.3418,-3.3418,-3.3418,-3.4027,-3.55,-3.5623,-3.6824,-3.9357,-3.8268,-3.8885,0.0,0.0,-3.9966,-4.1172,-4.1172,-4.0571,-3.9357,-3.791,-3.6703,-3.55,-3.4027,-3.3418,-3.3418,-3.3418,-3.3418,-3.3418,-3.3418,-3.3418,-3.3418,-3.3418,-3.3418,-3.3418,-3.3418,-3.3418,-3.3418,-3.3418,-3.3418,-3.3496,-3.3945,-3.6328,-3.8897,-3.9423,-4.1811,-4.4275,-4.4323,-4.4347,-4.4347,-4.4347,-4.4594,-4.484,-4.484,-4.5331,-4.5817,-4.5817,-4.6059,-4.6301,-4.6301,-4.6301,-4.6301,-4.6301,-4.6301,-4.6301,-4.6301,-4.5281,-4.489,-4.6059,-4.3879,-4.2981,-4.4374,-4.4497,-4.4497,-4.4497,0.0,0.0,-4.6301,-4.6903,-4.7431,-4.7908,-4.8535,-4.9113,-4.959,-4.959,-4.959,-4.959,-4.959,-4.959,-4.959,-4.959,-4.959,-4.959,-4.959,-4.959,-4.959,-4.959,-4.959,-4.959,-4.959,-4.959,-4.9719,0.0,0.0,0.0,0.0,0.0,0.0,0.0,-3.5117,-3.4805,-3.3926,-3.3809,-3.3711,-3.3457,-3.3418,-3.3418,-3.3418,-3.3418,-3.3418,-3.3418,-3.3418,-3.4027,-3.5376,-3.5376,-3.6215,-3.8029,-3.755,-3.8149,0.0,0.0,-3.9826,-4.1172,-4.1172,-4.0942,-4.0316,-3.8268,-3.7067,-3.646,-3.4278,-3.3418,-3.3418,-3.3418,-3.3418,-3.3418,-3.3418,-3.3418,-3.3418,-3.3418,-3.3418,-3.3418,-3.3418,-3.3418,-3.3418,-3.3418,-3.3594,-3.3906,-3.4316,-3.616,-3.8145,-3.8611,-4.0813,-4.3051,-4.3051,-4.3701,-4.4347,-4.4347,-4.4347,-4.4594,-4.4717,-4.5331,-4.5817,-4.5817,-4.6059,-4.6301,-4.6301,-4.6301,-4.6301,-4.6301,-4.6301,-4.6301,-4.6301,-4.5793,-4.5403,-4.5159,-4.3357,-4.2074,-4.1843,-4.2603,-4.3357,-4.4251,-4.4767,-4.5403,-4.6301,-4.6853,-4.738,-4.7908,-4.8485,-4.9063,-4.959,-4.959,-4.959,-4.959,-4.959,-4.959,-4.959,-4.959,-4.959,-4.959,-4.959,-4.959,-4.959,-4.959,-4.959,-4.959,-4.959,-4.959,-4.959,-3.6016,0.0,-3.6016,0.0,-3.6016,-3.5918,-3.5625,-3.5586,-3.5312,-3.457,-3.4336,-3.4043,-3.3476,-3.3418,-3.3418,-3.3418,-3.3418,-3.3418,-3.3418,-3.3418,-3.3796,-3.4757,-3.4757,0.0,-3.6703,-3.6338,-3.6924,-3.8625,-3.8625,-3.9357,-4.0571,-4.1057,-4.0803,-3.9966,-3.8506,-3.7166,-3.6093,-3.4632,-3.3796,-3.3418,-3.3418,-3.3418,-3.3418,-3.3418,-3.3418,-3.3418,-3.3418,-3.3418,-3.3418,-3.3418,-3.3418,-3.3418,-3.3418,-3.373,-3.416,-3.457,-3.6053,-3.755,-3.7984,-4.0192,-4.2293,-4.2293,-4.3326,-4.4347,-4.4347,-4.4347,-4.4347,-4.4594,-4.5086,-4.5574,-4.5574,-4.5939,-4.618,-4.6301,-4.6301,-4.6301,-4.6301,-4.6301,-4.6301,-4.6301,-4.5914,-4.5525,-4.489,-4.3232,-4.197,-4.146,-4.197,-4.258,-4.3606,-4.4127,-4.489,-4.6301,-4.6702,-4.723,-4.7908,-4.8309,-4.8735,-4.8918,-4.9461,-4.9332,-4.8918,-4.9461,-4.959,-4.959,-4.959,-4.959,-4.959,-4.959,-4.959,-4.959,-4.959,-4.959,-4.959,-4.959,-4.959,-4.959,-3.6016,-3.6016,-3.6016,-3.6016,-3.6016,-3.6016,-3.6016,-3.6016,-3.5859,-3.543,-3.498,-3.4375,-3.3516,-3.3418,-3.3418,-3.3418,-3.3418,-3.3418,-3.3418,-3.3418,-3.3418,0.0,0.0,-3.4027,-3.5376,-3.4153,-3.4757,-3.7287,-3.7287,-3.8029,-3.9216,-4.0571,-3.9849,-3.7429,-3.8625,-3.7045,-3.3544,-3.4881,-3.4652,-3.3418,-3.3418,-3.3418,-3.3418,-3.3418,-3.3418,-3.3418,-3.3418,-3.3418,-3.3418,-3.3418,-3.3418,-3.3418,-3.3418,-3.373,-3.416,-3.457,-3.6053,-3.755,-3.7984,-4.0192,-4.2293,-4.2293,-4.3326,-4.4347,-4.4347,-4.4347,-4.4347,-4.4347,-4.4594,-4.4963,-4.5208,-4.5574,-4.5939,-4.6301,-4.6301,-4.6301,-4.6301,-4.6301,-4.6301,-4.6301,-4.5159,-4.489,-4.618,-4.3755,-4.2706,-4.4127,-4.2981,-4.2201,-4.2201,-4.3482,-4.489,-4.6301,-4.6326,-4.6828,-4.7908,-4.7908,-4.7802,-4.7425,-4.8918,-4.8787,-4.7425,-4.8918,-4.959,-4.959,-4.959,-4.959,-4.959,-4.959,-4.959,-4.959,-4.959,-4.959,-4.959,-4.959,-4.959,-4.959,-3.6016,-3.6016,-3.6016,-3.6016,-3.6016,-3.6016,-3.6016,-3.6016,-3.5879,-3.5449,-3.5273,-3.4844,-3.3965,-3.3594,-3.3418,0.0,-3.3418,-3.3418,0.0,-3.3418,-3.3418,-3.3418,-3.3418,-3.3544,-3.4027,-3.367,-3.4278,-3.5971,-3.6824,-3.8387,-4.0571,-4.1057,-4.0711,-3.9966,-3.9474,-3.8007,-3.5971,-3.5623,-3.4652,-3.3418,-3.3418,-3.3418,-3.3418,-3.3418,-3.3418,-3.3418,-3.3418,-3.3418,-3.3418,-3.3418,-3.3418,-3.3418,-3.3418,-3.3926,-3.4531,-3.4668,-3.5481,-3.6495,-3.6634,-3.7975,-3.9692,-4.0581,-4.1888,-4.32,-4.4099,-4.4347,-4.4347,-4.4347,-4.4594,-4.484,-4.4963,-4.5453,-4.5817,-4.5939,-4.618,-4.6301,-4.6301,-4.6301,-4.6301,-4.6301,-4.5914,-4.5793,-4.6301,-4.4645,-4.3855,-4.4251,-4.2097,-4.1715,-4.3482,-4.4127,-4.489,-4.6301,-4.5403,-4.5231,-4.5914,-4.628,-4.6175,-4.5552,-4.7257,-4.7821,-4.7425,-4.8918,-4.959,-4.959,-4.959,-4.959,-4.959,-4.959,-4.959,-4.959,-4.959,-4.959,-4.959,-4.959,-4.959,-4.964,-3.6016,-3.6016,-3.6016,-3.6016,-3.6016,-3.6016,-3.6016,-3.6016,-3.5918,-3.5664,-3.5488,-3.5176,-3.4629,-3.416,0.0,-3.3457,-3.3418,-3.3418,-3.3418,-3.3418,-3.3418,-3.3418,-3.3418,-3.3418,-3.3418,-3.3418,0.0,-3.4652,-3.646,-3.8625,-4.1172,-4.1172,-4.0942,-4.0455,-4.0083,-3.898,-3.7309,-3.646,-3.5376,-3.4153,-3.3544,-3.3418,-3.3418,-3.3418,-3.3418,-3.3418,-3.3418,-3.3418,-3.3418,-3.3418,-3.3418,-3.3418,-3.3418,-3.4004,-3.4707,-3.4707,-3.5332,-3.6016,-3.6016,-3.7059,-3.8507,-3.9801,-4.1248,-4.2673,-4.395,-4.4347,-4.4347,-4.4347,-4.447,-4.4594,-4.484,-4.5086,-4.5453,-4.5817,-4.5939,-4.618,-4.6301,-4.6301,-4.6301,-4.6301,-4.6301,-4.6301,-4.6301,-4.5525,-4.5013,-4.5013,-4.3505,-4.2981,-4.4251,-4.3357,-4.363,-4.5525,-4.4251,-4.3742,-4.4389,-4.4782,-4.465,-4.3849,-4.516,-4.6066,-4.6603,-4.8084,-4.8763,-4.8787,-4.9332,-4.959,-4.959,-4.959,-4.959,-4.959,-4.959,-4.959,-4.959,-4.959,-4.959,-4.9665,-3.6016,-3.6016,-3.6016,-3.6016,-3.6016,-3.6016,-3.6016,-3.6016,-3.6016,-3.6016,-3.5684,-3.543,-3.5391,-3.5,-3.4414,-3.3574,0.0,0.0,-3.3418,-3.3418,-3.3418,-3.3418,-3.3418,-3.3418,-3.3418,-3.3418,-3.3544,-3.367,-3.6093,-3.8625,-4.1172,-4.1172,-4.0455,-3.9216,-4.0571,-3.9732,-3.7309,-3.7309,-3.6581,-3.5253,-3.3902,-3.3418,-3.3418,-3.3418,-3.3418,-3.3418,-3.3418,-3.3418,-3.3418,-3.3418,-3.3418,-3.3437,-3.3457,-3.4023,-3.4707,-3.4707,-3.5332,-3.6016,-3.6016,-3.6944,-3.8242,-3.967,-4.1248,-4.2673,-4.395,-4.4347,-4.4347,-4.4347,-4.4347,-4.4347,-4.4717,-4.484,-4.4963,-4.5574,-4.5817,-4.5939,-4.618,-4.6301,-4.6301,-4.6301,-4.6301,-4.6301,-4.6301,-4.6301,-4.6301,-4.6301,-4.618,-4.5671,-4.4374,-4.1715,-4.146,-4.4127,-4.2855,-4.2326,-4.2936,-4.3333,-4.3218,-4.242,-4.2879,-4.3769,-4.5096,-4.6603,-4.7269,-4.7269,-4.8787,-4.9461,-4.9461,-4.959,-4.959,-4.959,-4.959,-4.959,-4.959,-4.959,-4.959,-4.9665,0.0,0.0,-3.6016,-3.6016,-3.6016,-3.6016,-3.6016,-3.6016,-3.6016,-3.6016,-3.5937,-3.5742,-3.543,-3.5293,-3.5,-3.4453,-3.4101,-3.3769,-3.3437,-3.3418,-3.3418,-3.3418,-3.3418,-3.3418,-3.3418,-3.3418,-3.4403,-3.6338,-3.7067,-3.8625,-4.1172,-4.1172,-4.0455,-3.9216,-4.0571,-3.9732,-3.7309,-3.7309,-3.6581,-3.5253,-3.3902,-3.3418,-3.3418,-3.3418,-3.3418,-3.3418,-3.3418,-3.3418,-3.3418,-3.3418,-3.3418,-3.3476,-3.3809,-3.4277,-3.4707,-3.4707,-3.5332,-3.6016,-3.6016,-3.6287,-3.6809,-3.8242,-4.0452,-4.2673,-4.395,-4.4347,-4.4347,-4.4347,-4.4347,-4.4347,-4.4347,-4.4594,-4.484,-4.4963,-4.5453,-4.5817,-4.5939,-4.618,-4.6301,-4.6301,-4.6301,-4.6301,-4.6301,-4.6301,-4.6301,-4.6301,-4.5403,-4.4645,-4.4374,-4.1715,-4.0946,-4.258,-4.1332,-4.0755,-4.0887,-4.1728,-4.2478,-4.2922,-4.3053,-4.3236,-4.3631,-4.5119,-4.5773,-4.5773,-4.7293,-4.7953,-4.7953,-4.9177,-4.959,-4.959,-4.959,-4.959,-4.959,-4.959,-4.959,-4.9741,-3.6055,-3.6016,-3.6094,-3.6289,-3.6309,-3.6387,-3.6582,-3.6601,-3.6601,-3.6601,-3.6601,-3.6523,-3.6289,-3.6094,-3.5801,-3.5351,-3.4551,-3.3965,-3.373,-3.3535,-3.3418,-3.3418,-3.3418,-3.3418,-3.3418,-3.3418,-3.4632,-3.7309,-3.7309,-3.8625,-4.1172,-4.1172,-4.0455,-3.9216,-4.0571,-4.0083,-3.8149,-3.755,-3.6946,-3.6093,-3.4153,-3.3418,-3.3418,-3.3418,-3.3418,-3.3418,-3.3418,-3.3418,-3.3418,-3.3418,-3.3418,-3.3496,-3.3945,-3.4355,-3.4746,-3.4961,-3.5488,-3.6016,-3.6016,-3.6016,-3.6287,-3.7709,-3.967,-4.1505,-4.227,-4.2925,-4.3451,-4.3451,-4.3826,-4.4347,-4.4347,-4.447,-4.4594,-4.484,-4.5086,-4.5453,-4.5817,-4.5939,-4.618,-4.6301,-4.6301,-4.6301,-4.6301,-4.6301,-4.6301,-4.6301,-4.5671,-4.4645,-4.3357,-4.197,-4.1203,-4.1332,-3.9953,-3.932,-3.932,-4.0259,-4.1092,-4.1817,-4.2031,-4.2138,-4.2116,-4.3631,-4.4298,-4.4298,-4.5797,-4.6736,-4.7425,-4.824,-4.9047,-4.959,-4.959,-4.959,-4.959,-4.959,-4.959,-4.9766,-3.6289,-3.6211,-3.6328,-3.6699,-3.6758,-3.6894,-3.7246,-3.7305,-3.7305,-3.7305,-3.7305,-3.7305,-3.7305,-3.6973,-3.6601,-3.6152,-3.5039,-3.4316,-3.418,-3.3769,-3.3516,-3.3516,-3.3457,-3.3418,-3.3418,-3.3418,-3.4673,-3.7032,-3.7032,-3.8545,-4.1181,-4.1085,-4.0317,-3.9094,-4.0363,-4.0083,-3.8506,-3.7429,-3.7067,-3.6824,-3.4403,-3.3418,-3.3418,-3.3418,-3.3418,-3.3418,-3.3418,-3.3418,-3.3418,-3.3418,-3.3418,-3.3516,-3.4004,-3.4414,-3.4805,-3.5332,-3.5742,-3.6016,-3.6016,-3.6016,-3.6287,-3.7709,-3.9035,-3.9932,-4.0192,-4.1119,-4.2016,-4.2293,-4.32,-4.4099,-4.4223,-4.4347,-4.4347,-4.4717,-4.4717,-4.4963,-4.5574,-4.5696,-4.5939,-4.618,-4.6301,-4.6301,-4.6301,-4.6301,-4.6301,-4.6301,-4.6301,-4.5159,-4.2328,-4.2201,-4.146,-3.9953,-3.8814,-3.8212,-3.8274,-3.9123,-3.9765,-4.0241,-4.0675,-4.0882,-4.0882,-4.2138,-4.2818,-4.2818,-4.4298,-4.5661,-4.6736,-4.7003,-4.7953,-4.9307,-4.9307,-4.9461,-4.959,-4.959,-4.959,-4.9766,-3.7109,-3.7109,-3.7109,-3.7187,-3.7207,-3.7226,-3.7285,-3.7305,-3.7305,-3.7305,-3.7305,-3.7305,-3.7305,-3.7246,-3.7031,-3.6601,-3.6055,-3.5391,-3.4648,-3.4199,-3.3965,-3.3965,-3.3613,-3.3418,-3.3418,-3.3418,-3.4332,-3.6186,-3.6186,-3.7746,-4.0745,-4.0306,-3.9499,-3.8243,-3.9163,-3.8149,-3.5992,-3.5746,-3.5746,-3.5623,-3.4027,-3.3418,-3.3418,-3.3418,-3.3418,-3.3418,-3.3418,-3.3418,-3.3418,-3.3418,-3.3418,-3.3555,-3.4355,-3.4648,-3.4863,-3.5684,-3.5976,-3.6016,-3.6016,-3.6016,-3.6287,-3.7709,-3.8242,-3.8772,-3.9932,-4.0322,-4.0862,-4.2016,-4.242,-4.2925,-4.4099,-4.4347,-4.4347,-4.4347,-4.4594,-4.484,-4.4963,-4.5453,-4.5817,-4.5817,-4.618,-4.6301,-4.6301,-4.6301,-4.6301,-4.6301,-4.6301,-4.5159,-4.2328,-4.2201,-4.1075,-3.857,-3.8304,-3.8357,-3.873,-3.9268,-3.9765,-4.0241,-4.0675,-4.0882,-4.0882,-4.1147,-4.1289,-4.1289,-4.2818,-4.3514,-4.3907,-4.5119,-4.6469,-4.7689,-4.7689,-4.8502,-4.959,-4.959,-4.959,-4.9766,-3.7344,-3.7305,-3.7363,-3.7598,-3.7637,-3.7715,-3.7949,-3.7988,-3.7988,-3.7988,-3.7988,-3.7988,-3.7988,-3.7773,-3.7559,-3.7363,-3.6758,-3.6191,-3.5781,-3.4922,-3.4414,-3.4414,-3.4219,-3.4101,-3.4101,-3.4101,-3.4823,-3.6411,-3.6411,-3.7885,-4.0732,-4.0502,-4.0022,-3.9634,-3.9893,-3.916,-3.7802,-3.635,-3.5955,-3.6215,-3.4278,-3.3418,-3.3418,-3.3418,-3.3418,-3.3418,-3.3418,-3.3418,-3.3418,-3.3418,-3.3418,-3.3574,-3.4434,-3.4707,-3.4863,-3.5762,-3.6016,-3.6016,-3.6016,-3.6016,-3.6152,-3.6809,-3.6924,-3.7193,-3.7863,-3.8507,-3.9277,-3.9932,-4.1248,-4.2546,-4.3051,-4.3826,-4.4347,-4.4347,-4.447,-4.4594,-4.4717,-4.5086,-4.5453,-4.5817,-4.5939,-4.6059,-4.6301,-4.6301,-4.6301,-4.6301,-4.6301,-4.5159,-4.2328,-4.2201,-4.0946,-3.8304,-3.8191,-3.8274,-3.8481,-3.8937,-3.9392,-3.9868,-4.0303,-4.0655,-4.0882,-4.0882,-4.0882,-4.0882,-4.1573,-4.2398,-4.3097,-4.3769,-4.4983,-4.6335,-4.7136,-4.7821,-4.8502,-4.9332,-4.959,-4.9715,-3.7656,-3.7598,-3.7695,-3.8027,-3.8086,-3.8184,-3.8516,-3.8574,-3.8574,-3.8574,-3.8574,-3.8574,-3.8574,-3.8281,-3.8027,-3.793,-3.7246,-3.6777,-3.668,-3.5625,-3.4961,-3.4863,-3.4766,-3.4707,-3.4707,-3.4707,-3.527,-3.6391,-3.6391,-3.7699,-4.0083,-3.9971,-3.9904,-4.0028,-3.9792,-3.94,-3.8653,-3.6457,-3.5957,-3.6364,-3.4193,-3.3418,-3.3418,-3.3418,-3.3418,-3.3418,-3.3418,-3.3418,-3.3418,-3.3418,-3.3496,-3.3711,-3.4453,-3.4766,-3.5019,-3.5801,-3.6016,-3.6016,-3.6016,-3.6016,-3.6016,-3.6016,-3.6016,-3.6016,-3.6016,-3.6809,-3.7709,-3.7975,-4.0062,-4.1888,-4.2293,-4.3451,-4.4347,-4.4347,-4.4347,-4.4347,-4.4594,-4.4717,-4.4963,-4.5453,-4.5696,-4.5817,-4.618,-4.618,-4.618,-4.6301,-4.6059,-4.4767,-4.2328,-4.1947,-4.071,-3.8304,-3.8191,-3.8191,-3.8191,-3.8626,-3.9081,-3.9537,-4.0013,-4.0448,-4.0882,-4.0882,-4.0882,-4.0882,-4.0882,-4.1573,-4.2538,-4.2538,-4.3492,-4.4846,-4.5932,-4.6603,-4.7003,-4.8502,-4.9047,-4.9252,-3.8496,-3.8476,-3.8496,-3.8516,-3.8535,-3.8535,-3.8574,-3.8574,-3.8574,-3.8574,-3.8574,-3.8574,-3.8574,-3.8555,-3.8359,-3.7969,-3.7519,-3.709,-3.6699,-3.6191,-3.5742,-3.5351,-3.4922,-3.4707,-3.4707,-3.4707,-3.4902,-3.5465,-3.5465,-3.6443,-3.827,-3.7832,-3.7645,-3.7754,-3.7186,-3.6336,-3.5001,-3.4497,-3.43,-3.4241,-3.3701,-3.3418,-3.3418,-3.3418,-3.3418,-3.3418,-3.3418,-3.3418,-3.3418,-3.3418,-3.3691,-3.4101,-3.4551,-3.5,-3.543,-3.5879,-3.6016,-3.6016,-3.6016,-3.6016,-3.6016,-3.6016,-3.6016,-3.6016,-3.6016,-3.6016,-3.6539,-3.7842,-3.9277,-4.071,-4.2038,-4.3451,-4.4347,-4.4347,-4.4347,-4.4347,-4.4347,-4.4594,-4.484,-4.484,-4.5208,-4.5453,-4.5817,-4.5817,-4.5939,-4.6301,-4.5159,-4.3731,-4.2328,-4.1075,-3.9692,-3.8191,-3.8191,-3.8191,-3.8191,-3.8626,-3.9081,-3.9537,-4.0013,-4.0448,-4.0882,-4.0882,-4.0882,-4.0882,-4.0882,-4.1025,-4.1004,-4.1004,-4.1997,-4.3236,-4.3375,-4.4183,-4.5503,-4.7003,-4.7557,-4.7762,-3.8574,-3.8574,-3.8574,-3.8574,-3.8574,-3.8574,-3.8574,-3.8574,-3.8574,-3.8574,-3.8574,-3.8574,-3.8574,-3.8574,-3.8516,-3.834,-3.7695,-3.7226,-3.707,-3.6406,-3.5937,-3.5781,-3.5605,-3.5527,-3.5527,-3.5527,-3.5605,-3.5781,-3.5781,-3.6515,-3.8109,-3.7943,-3.8256,-3.9151,-3.8047,-3.7556,-3.7524,-3.5731,-3.5072,-3.5174,-3.427,-3.3672,-3.3418,-3.3418,-3.3418,-3.3418,-3.3418,-3.3418,-3.3418,-3.3418,-3.3711,-3.4141,-3.457,-3.5019,-3.5469,-3.5898,-3.6016,-3.6016,-3.6016,-3.6016,-3.6016,-3.6016,-3.6016,-3.6016,-3.6016,-3.6016,-3.6152,-3.6674,-3.7975,-3.9035,-3.954,-4.1505,-4.3051,-4.3051,-4.3701,-4.4347,-4.4347,-4.447,-4.4594,-4.484,-4.4963,-4.5086,-4.5453,-4.5696,-4.5817,-4.5939,-4.5671,-4.4497,-4.2328,-4.0192,-3.8702,-3.8191,-3.8191,-3.8191,-3.8191,-3.8357,-3.8812,-3.9537,-3.9723,-4.0179,-4.0882,-4.0882,-4.0882,-4.0882,-4.0882,-4.0882,-4.0882,-4.0882,-4.1289,-4.1855,-4.2678,-4.3375,-4.4045,-4.5526,-4.6603,-4.7449,-3.8574,-3.8574,-3.8535,-3.8398,-3.8359,-3.832,-3.8184,-3.8184,-3.8184,-3.8184,-3.8184,-3.8184,-3.8184,-3.8184,-3.8184,-3.8184,-3.7519,-3.709,-3.709,-3.6426,-3.6016,-3.6016,-3.6016,-3.6016,-3.6016,-3.6016,-3.6016,-3.6016,-3.6016,-3.6539,-3.7461,-3.7461,-3.7975,-3.8904,-3.7842,-3.781,-3.8157,-3.621,-3.5547,-3.5706,-3.4547,-3.3887,-3.3613,-3.3476,-3.3418,-3.3418,-3.3418,-3.3418,-3.3437,-3.3574,-3.3906,-3.4336,-3.4785,-3.5234,-3.5644,-3.5937,-3.6016,-3.6016,-3.6016,-3.6016,-3.6016,-3.6016,-3.6016,-3.6016,-3.6016,-3.6016,-3.6016,-3.6016,-3.7059,-3.8109,-3.8109,-4.0062,-4.1761,-4.2293,-4.3051,-4.3826,-4.4223,-4.4347,-4.4347,-4.4594,-4.4594,-4.484,-4.5208,-4.5453,-4.5696,-4.5939,-4.5403,-4.3879,-4.1075,-3.9188,-3.8191,-3.8191,-3.8191,-3.8191,-3.8191,-3.8191,-3.8564,-3.933,-3.9475,-3.993,-4.0675,-4.082,-4.0882,-4.0882,-4.0882,-4.0882,-4.0882,-4.0882,-4.0882,-4.1025,-4.1997,-4.2398,-4.2538,-4.4023,-4.5119,-4.6066,-3.8574,-3.8574,-3.8437,-3.8008,-3.793,-3.7773,-3.7363,-3.7305,-3.7305,-3.7305,-3.7305,-3.7305,-3.7305,-3.7305,-3.7305,-3.7305,-3.6914,-3.668,-3.666,-3.6269,-3.6016,-3.6016,-3.6016,-3.6016,-3.6016,-3.6016,-3.6016,-3.6016,-3.6016,-3.6016,-3.6016,-3.6016,-3.6016,-3.6016,-3.6016,-3.6016,-3.5996,-3.5566,-3.5391,-3.5312,-3.4434,-3.4082,-3.4023,-3.3594,-3.3437,-3.3437,-3.3418,-3.3418,-3.3496,-3.3926,-3.4355,-3.4785,-3.5254,-3.5684,-3.6016,-3.6016,-3.6016,-3.6016,-3.6016,-3.6016,-3.6016,-3.6016,-3.6016,-3.6016,-3.6016,-3.6016,-3.6016,-3.6016,-3.7059,-3.8109,-3.8109,-3.9277,-4.0603,-4.2016,-4.2293,-4.2799,-4.4099,-4.4347,-4.4347,-4.4347,-4.4347,-4.4594,-4.5208,-4.5331,-4.5574,-4.618,-4.3731,-4.1075,-3.8304,-3.8191,-3.8191,-3.8191,-3.8191,-3.8191,-3.8191,-3.8191,-3.8398,-3.8854,-3.933,-3.9785,-4.0241,-4.0675,-4.0882,-4.0882,-4.0882,-4.0882,-4.0882,-4.0882,-4.0882,-4.0882,-4.0882,-4.0882,-4.1025,-4.2538,-4.3097,-4.3236,-3.8574,-3.8574,-3.8535,-3.8398,-3.8125,-3.7891,-3.7754,-3.748,-3.7305,-3.7305,-3.7305,-3.7305,-3.7305,-3.7305,-3.7305,-3.7305,-3.6914,-3.6543,-3.623,-3.6094,-3.6016,-3.6016,-3.6016,-3.6016,-3.6016,-3.6016,-3.6016,-3.6016,-3.6016,-3.6016,-3.6016,-3.6016,-3.6016,-3.6016,-3.6016,-3.6016,-3.6016,-3.5879,-3.5664,-3.5371,-3.5098,-3.4805,-3.4473,-3.4043,-3.3887,-3.3828,-3.3535,-3.3418,-3.3496,-3.3926,-3.4355,-3.4824,-3.5586,-3.5918,-3.6016,-3.6016,-3.6016,-3.6016,-3.6016,-3.6016,-3.6016,-3.6016,-3.6016,-3.6016,-3.6016,-3.6016,-3.6016,-3.6016,-3.6287,-3.6674,-3.6674,-3.7729,-3.8904,-3.9277,-4.0991,-4.242,-4.2799,-4.3701,-4.4347,-4.4347,-4.4347,-4.4347,-4.4594,-4.4963,-4.5331,-4.5574,-4.3505,-4.146,-3.9692,-3.8681,-3.8191,-3.8191,-3.8191,-3.8191,-3.8191,-3.8191,-3.8398,-3.8854,-3.933,-3.9785,-4.0241,-4.0675,-4.0882,-4.0882,-4.0882,-4.0882,-4.0882,-4.0882,-4.0882,-4.0882,-4.0882,-4.0882,-4.1004,-4.1431,-4.2278,-4.3097,-3.8574,-3.8574,-3.8516,-3.8359,-3.7969,-3.7617,-3.7461,-3.707,-3.6797,-3.6797,-3.6797,-3.6797,-3.6797,-3.6797,-3.6797,-3.6797,-3.6562,-3.6309,-3.6035,-3.6016,-3.6016,-3.6016,-3.6016,-3.6016,-3.6016,-3.6016,-3.6016,-3.6016,-3.6016,-3.6016,-3.6016,-3.6016,-3.6016,-3.6016,-3.6016,-3.6016,-3.6016,-3.6016,-3.5879,-3.5625,-3.5469,-3.5234,-3.4922,-3.4492,-3.4316,-3.4297,-3.4023,-3.3926,-3.4004,-3.4453,-3.4883,-3.5312,-3.5859,-3.6016,-3.6016,-3.6016,-3.6016,-3.6016,-3.6016,-3.6016,-3.6016,-3.6016,-3.6016,-3.6016,-3.6016,-3.6016,-3.6016,-3.6016,-3.6016,-3.6016,-3.6016,-3.6674,-3.7461,-3.7975,-3.954,-4.0862,-4.1377,-4.2673,-4.3451,-4.3451,-4.3974,-4.4347,-4.447,-4.484,-4.4816,-4.3903,-4.273,-4.1203,-3.9451,-3.8549,-3.8037,-3.8191,-3.8191,-3.8191,-3.8191,-3.8191,-3.8316,-3.8585,-3.904,-3.9516,-3.9972,-4.0427,-4.0717,-4.0882,-4.0882,-4.0882,-4.0882,-4.0882,-4.0882,-4.0882,-4.0882,-4.0882,-4.0882,-4.0882,-4.1431,-4.2257,-3.8574,-3.8574,-3.8457,-3.8047,-3.7637,-3.7207,-3.6797,-3.6348,-3.6055,-3.6035,-3.6016,-3.6016,-3.6016,-3.6016,-3.6016,-3.6016,-3.6016,-3.6016,-3.6016,-3.6016,-3.6016,-3.6016,-3.6016,-3.6016,-3.6016,-3.6016,-3.6016,-3.6016,-3.6016,-3.6016,-3.6016,-3.6016,-3.6016,-3.6016,-3.6016,-3.6016,-3.6016,-3.6016,-3.6016,-3.5996,-3.5605,-3.5449,-3.5391,-3.4941,-3.4766,-3.4766,-3.4726,-3.4707,-3.4766,-3.5234,-3.5664,-3.6016,-3.6016,-3.6016,-3.6016,-3.6016,-3.6016,-3.6016,-3.6016,-3.6016,-3.6016,-3.6016,-3.6016,-3.6016,-3.6016,-3.6016,-3.6016,-3.6016,-3.6016,-3.6016,-3.6016,-3.6016,-3.6403,-3.7709,-3.7975,-3.8507,-3.9801,-4.1377,-4.2293,-4.2293,-4.3451,-4.447,-4.4717,-4.4717,-4.3802,-4.1843,-4.1565,-4.0408,-3.8171,-3.777,-3.777,-3.8171,-3.8191,-3.8191,-3.8191,-3.8191,-3.8191,-3.8191,-3.8647,-3.9102,-3.9558,-4.0013,-4.0468,-4.0882,-4.0882,-4.0882,-4.0882,-4.0882,-4.0882,-4.0882,-4.0882,-4.0882,-4.0882,-4.0882,-4.0882,-4.0882,-3.8633,-3.8574,-3.8555,-3.8457,-3.8066,-3.7637,-3.7226,-3.6797,-3.6406,-3.6074,-3.6016,-3.6016,-3.6016,-3.6016,-3.6016,-3.6016,-3.6016,-3.6016,-3.6016,-3.6016,-3.6016,-3.6016,-3.6016,-3.6016,-3.6016,-3.6016,-3.6016,-3.6016,-3.6016,-3.6016,-3.6016,-3.6016,-3.6016,-3.6016,-3.6016,-3.6016,-3.6016,-3.6016,-3.6016,-3.6016,-3.5918,-3.5879,-3.584,-3.541,-3.5234,-3.5195,-3.4824,-3.4707,-3.4766,-3.5234,-3.5664,-3.6016,-3.6016,-3.6016,-3.6016,-3.6016,-3.6016,-3.6016,-3.6016,-3.6016,-3.6016,-3.6016,-3.6016,-3.6016,-3.6016,-3.6016,-3.6016,-3.6016,-3.6016,-3.6016,-3.6016,-3.6016,-3.6152,-3.6423,-3.7327,-3.8242,-3.8507,-4.0732,-4.2293,-4.2293,-4.3451,-4.4347,-4.4347,-4.3678,-4.2627,-4.1437,-4.0256,-3.8993,-3.7482,-3.7482,-3.7616,-3.777,-3.8037,-3.8191,-3.8191,-3.8191,-3.8191,-3.8191,-3.8647,-3.9102,-3.9558,-4.0013,-4.0468,-4.0882,-4.0882,-4.0882,-4.0882,-4.0882,-4.0882,-4.0882,-4.0882,-4.0882,-4.0882,-4.0882,-4.0882,-4.0882,-3.8926,-3.8711,-3.8574,-3.8574,-3.8223,-3.7851,-3.7637,-3.707,-3.6582,-3.6367,-3.6152,-3.6016,-3.6016,-3.6016,-3.6016,-3.6016,-3.6016,-3.6016,-3.6016,-3.6016,-3.6016,-3.6016,-3.6016,-3.6016,-3.6016,-3.6016,-3.6016,-3.6016,-3.6016,-3.6016,-3.6016,-3.6016,-3.6016,-3.6016,-3.6016,-3.6016,-3.6016,-3.6016,-3.6016,-3.6016,-3.6016,-3.6016,-3.5996,-3.5781,-3.5684,-3.5664,-3.541,-3.5332,-3.5371,-3.5605,-3.584,-3.6016,-3.6016,-3.6016,-3.6016,-3.6016,-3.6016,-3.6016,-3.6016,-3.6016,-3.6016,-3.6016,-3.6016,-3.6016,-3.6016,-3.6016,-3.6016,-3.6016,-3.6016,-3.6016,-3.6016,-3.6016,-3.6016,-3.6016,-3.6674,-3.7059,-3.7059,-3.8904,-4.0344,-4.0344,-4.1505,-4.2397,-4.2397,-4.1993,-4.1203,-4.0018,-3.9235,-3.8353,-3.7213,-3.7213,-3.7482,-3.7616,-3.8037,-3.8191,-3.8191,-3.8191,-3.8191,-3.8191,-3.8419,-3.8895,-3.9537,-3.9785,-4.0261,-4.0882,-4.0882,-4.0882,-4.0882,-4.0882,-4.0882,-4.0882,-4.0882,-4.0882,-4.0882,-4.0882,-4.0882,-4.0882,-3.9238,-3.8926,-3.8652,-3.8594,-3.8281,-3.8008,-3.793,-3.7266,-3.6758,-3.668,-3.6289,-3.6016,-3.6016,-3.6016,-3.6016,-3.6016,-3.6016,-3.6016,-3.6016,-3.6016,-3.6016,-3.6016,-3.6016,-3.6016,-3.6016,-3.6016,-3.6016,-3.6016,-3.6016,-3.6016,-3.6016,-3.6016,-3.6016,-3.6016,-3.6016,-3.6016,-3.6016,-3.6016,-3.6016,-3.6016,-3.6016,-3.6016,-3.6016,-3.6016,-3.6016,-3.6016,-3.6016,-3.6016,-3.6016,-3.6016,-3.6016,-3.6016,-3.6016,-3.6016,-3.6016,-3.6016,-3.6016,-3.6016,-3.6016,-3.6016,-3.6016,-3.6016,-3.6016,-3.6016,-3.6016,-3.6016,-3.6016,-3.6016,-3.6016,-3.6016,-3.6016,-3.6016,-3.6016,-3.6016,-3.6016,-3.6016,-3.6016,-3.7193,-3.8109,-3.8109,-3.9277,-4.0192,-4.0192,-4.0192,-3.9779,-3.8618,-3.8353,-3.7842,-3.6944,-3.6944,-3.7213,-3.7482,-3.7904,-3.8171,-3.8191,-3.8191,-3.8191,-3.8191,-3.8191,-3.8626,-3.9433,-3.9495,-3.9992,-4.0779,-4.0841,-4.0882,-4.0882,-4.0882,-4.0882,-4.0882,-4.0882,-4.0882,-4.0882,-4.0882,-4.0882,-4.0882,-3.9355,-3.916,-3.9004,-3.8633,-3.8535,-3.8359,-3.7988,-3.7519,-3.709,-3.6719,-3.6289,-3.6016,-3.6016,-3.6016,-3.6016,-3.6016,-3.6016,-3.6016,-3.6016,-3.6016,-3.6016,-3.6016,-3.6016,-3.6016,-3.6016,-3.6016,-3.6016,-3.6016,-3.6016,-3.6016,-3.6016,-3.6016,-3.6016,-3.6016,-3.6016,-3.6016,-3.6016,-3.6016,-3.6016,-3.6016,-3.6016,-3.6016,-3.6016,-3.6016,-3.6016,-3.6016,-3.6016,-3.6016,-3.6016,-3.6016,-3.6016,-3.6016,-3.6016,-3.6016,-3.6016,-3.6016,-3.6016,-3.6016,-3.6016,-3.6016,-3.6016,-3.6016,-3.6016,-3.6016,-3.6016,-3.6016,-3.6016,-3.6016,-3.6016,-3.6016,-3.6016,-3.6016,-3.6016,-3.6016,-3.6016,-3.6016,-3.6016,-3.7193,-3.8109,-3.8109,-3.9277,-4.0192,-4.0192,-3.9146,-3.8374,-3.8242,-3.7059,-3.6287,-3.6152,-3.6403,-3.6789,-3.7213,-3.7482,-3.7904,-3.8191,-3.8191,-3.8191,-3.8191,-3.8191,-3.846,-3.8957,-3.9351,-3.9827,-4.0344,-4.0717,-4.0882,-4.0882,-4.0882,-4.0882,-4.0882,-4.0882,-4.0882,-4.0882,-4.0882,-4.0882,-4.0882,-4.0019,-3.9531,-3.9141,-3.8965,-3.873,-3.8516,-3.832,-3.793,-3.75,-3.707,-3.6641,-3.6289,-3.6035,-3.6016,-3.6016,-3.6016,-3.6016,-3.6016,-3.6016,-3.6016,-3.6016,-3.6016,-3.6016,-3.6016,-3.6016,-3.6016,-3.6016,-3.6016,-3.6016,-3.6016,-3.6016,-3.6016,-3.6016,-3.6016,-3.6016,-3.6016,-3.6016,-3.6016,-3.6016,-3.6016,-3.6016,-3.6016,-3.6016,-3.6016,-3.6016,-3.6016,-3.6016,-3.6016,-3.6016,-3.6016,-3.6016,-3.6016,-3.6016,-3.6016,-3.6016,-3.6016,-3.6016,-3.6016,-3.6016,-3.6016,-3.6016,-3.6016,-3.6016,-3.6016,-3.6016,-3.6016,-3.6016,-3.6016,-3.6016,-3.6016,-3.6016,-3.6016,-3.6016,-3.6016,-3.6016,-3.6016,-3.6016,-3.6539,-3.6944,-3.6944,-3.7461,-3.7842,-3.7842,-3.7327,-3.6944,-3.6944,-3.6423,-3.6016,-3.6016,-3.6268,-3.6654,-3.7079,-3.7482,-3.777,-3.8191,-3.8191,-3.8191,-3.8191,-3.8191,-3.8419,-3.8874,-3.933,-3.9785,-4.0261,-4.0696,-4.0882,-4.0882,-4.0882,-4.0882,-4.0882,-4.0882,-4.0882,-4.0882,-4.0882,-4.0882,-4.0882]}]]